<?xml version="1.0" encoding="UTF-8" standalone="no" ?>
<gpx xmlns="http://www.topografix.com/GPX/1/1" xmlns:xsi="http://www.w3.org/2001/XMLSchema-instance" xsi:schemaLocation="http://www.topografix.com/GPX/1/1 http://www.topografix.com/GPX/1/1/gpx.xsd" version="1.1" creator="VisuGPX - https://www.visugpx.com">
  <metadata>
    <name>Pic de la Géla</name>
    <desc><![CDATA[[url]https://plus.google.com/photos/105108571230570121986/albums/5886054068606289713?banner=pwa[/url]
[img]https://lh4.googleusercontent.com/-5DZ6hq2jhDU/Ua93HO6C-UI/AAAAAAAAMGI/eIKcmF2PQwo/w702-h527-no/2013.06.05 La G%25C3%25A9la 006.jpg[/img]]]></desc>
  </metadata>
  <trk>
    <name><![CDATA[La Gela]]></name>
    <trkseg>
      <trkpt lat="42.74997" lon="0.0883">
        <ele>1500</ele>
        <time>2013-06-05T05:03:35Z</time>
      </trkpt>
      <trkpt lat="42.74997" lon="0.08828">
        <ele>1504</ele>
        <time>2013-06-05T05:03:45Z</time>
      </trkpt>
      <trkpt lat="42.74997" lon="0.08827">
        <ele>1504</ele>
        <time>2013-06-05T05:03:46Z</time>
      </trkpt>
      <trkpt lat="42.74997" lon="0.08826">
        <ele>1507</ele>
        <time>2013-06-05T05:03:52Z</time>
      </trkpt>
      <trkpt lat="42.74997" lon="0.08825">
        <ele>1511</ele>
        <time>2013-06-05T05:03:56Z</time>
      </trkpt>
      <trkpt lat="42.74997" lon="0.08825">
        <ele>1514</ele>
        <time>2013-06-05T05:04:02Z</time>
      </trkpt>
      <trkpt lat="42.74996" lon="0.08825">
        <ele>1514</ele>
        <time>2013-06-05T05:04:03Z</time>
      </trkpt>
      <trkpt lat="42.74997" lon="0.08827">
        <ele>1519</ele>
        <time>2013-06-05T05:04:14Z</time>
      </trkpt>
      <trkpt lat="42.74997" lon="0.08826">
        <ele>1515</ele>
        <time>2013-06-05T05:04:16Z</time>
      </trkpt>
      <trkpt lat="42.74997" lon="0.08825">
        <ele>1520</ele>
        <time>2013-06-05T05:04:17Z</time>
      </trkpt>
      <trkpt lat="42.74997" lon="0.08824">
        <ele>1519</ele>
        <time>2013-06-05T05:04:18Z</time>
      </trkpt>
      <trkpt lat="42.74996" lon="0.08824">
        <ele>1506</ele>
        <time>2013-06-05T05:04:22Z</time>
      </trkpt>
      <trkpt lat="42.74996" lon="0.08824">
        <ele>1528</ele>
        <time>2013-06-05T05:04:23Z</time>
      </trkpt>
      <trkpt lat="42.74997" lon="0.08824">
        <ele>1521</ele>
        <time>2013-06-05T05:04:24Z</time>
      </trkpt>
      <trkpt lat="42.74997" lon="0.08826">
        <ele>1514</ele>
        <time>2013-06-05T05:04:28Z</time>
      </trkpt>
      <trkpt lat="42.74997" lon="0.08826">
        <ele>1525</ele>
        <time>2013-06-05T05:04:29Z</time>
      </trkpt>
      <trkpt lat="42.74997" lon="0.08826">
        <ele>1520</ele>
        <time>2013-06-05T05:04:30Z</time>
      </trkpt>
      <trkpt lat="42.74995" lon="0.08823">
        <ele>1520</ele>
        <time>2013-06-05T05:04:46Z</time>
      </trkpt>
      <trkpt lat="42.74995" lon="0.08824">
        <ele>1522</ele>
        <time>2013-06-05T05:04:49Z</time>
      </trkpt>
      <trkpt lat="42.74995" lon="0.08824">
        <ele>1518</ele>
        <time>2013-06-05T05:04:50Z</time>
      </trkpt>
      <trkpt lat="42.74995" lon="0.08822">
        <ele>1515</ele>
        <time>2013-06-05T05:04:54Z</time>
      </trkpt>
      <trkpt lat="42.74995" lon="0.08822">
        <ele>1524</ele>
        <time>2013-06-05T05:04:55Z</time>
      </trkpt>
      <trkpt lat="42.74995" lon="0.0882">
        <ele>1520</ele>
        <time>2013-06-05T05:04:56Z</time>
      </trkpt>
      <trkpt lat="42.74996" lon="0.0882">
        <ele>1513</ele>
        <time>2013-06-05T05:05:02Z</time>
      </trkpt>
      <trkpt lat="42.74996" lon="0.0882">
        <ele>1513</ele>
        <time>2013-06-05T05:05:03Z</time>
      </trkpt>
      <trkpt lat="42.74996" lon="0.0882">
        <ele>1522</ele>
        <time>2013-06-05T05:05:04Z</time>
      </trkpt>
      <trkpt lat="42.74995" lon="0.08821">
        <ele>1520</ele>
        <time>2013-06-05T05:05:06Z</time>
      </trkpt>
      <trkpt lat="42.74998" lon="0.08828">
        <ele>1520</ele>
        <time>2013-06-05T05:05:25Z</time>
      </trkpt>
      <trkpt lat="42.74998" lon="0.08827">
        <ele>1520</ele>
        <time>2013-06-05T05:05:41Z</time>
      </trkpt>
      <trkpt lat="42.75" lon="0.08827">
        <ele>1519</ele>
        <time>2013-06-05T05:05:59Z</time>
      </trkpt>
      <trkpt lat="42.75001" lon="0.08825">
        <ele>1522</ele>
        <time>2013-06-05T05:06:08Z</time>
      </trkpt>
      <trkpt lat="42.74999" lon="0.08829">
        <ele>1519</ele>
        <time>2013-06-05T05:06:20Z</time>
      </trkpt>
      <trkpt lat="42.74999" lon="0.08825">
        <ele>1520</ele>
        <time>2013-06-05T05:06:43Z</time>
      </trkpt>
      <trkpt lat="42.75" lon="0.08827">
        <ele>1519</ele>
        <time>2013-06-05T05:07:03Z</time>
      </trkpt>
      <trkpt lat="42.74997" lon="0.08826">
        <ele>1520</ele>
        <time>2013-06-05T05:07:27Z</time>
      </trkpt>
      <trkpt lat="42.74997" lon="0.08825">
        <ele>1519</ele>
        <time>2013-06-05T05:07:47Z</time>
      </trkpt>
      <trkpt lat="42.74996" lon="0.08825">
        <ele>1521</ele>
        <time>2013-06-05T05:08:06Z</time>
      </trkpt>
      <trkpt lat="42.74997" lon="0.08827">
        <ele>1521</ele>
        <time>2013-06-05T05:08:12Z</time>
      </trkpt>
      <trkpt lat="42.74998" lon="0.08824">
        <ele>1521</ele>
        <time>2013-06-05T05:08:27Z</time>
      </trkpt>
      <trkpt lat="42.74996" lon="0.08824">
        <ele>1519</ele>
        <time>2013-06-05T05:08:33Z</time>
      </trkpt>
      <trkpt lat="42.74991" lon="0.08826">
        <ele>1521</ele>
        <time>2013-06-05T05:08:49Z</time>
      </trkpt>
      <trkpt lat="42.7499" lon="0.08825">
        <ele>1514</ele>
        <time>2013-06-05T05:08:52Z</time>
      </trkpt>
      <trkpt lat="42.74991" lon="0.08825">
        <ele>1525</ele>
        <time>2013-06-05T05:08:53Z</time>
      </trkpt>
      <trkpt lat="42.7499" lon="0.08825">
        <ele>1521</ele>
        <time>2013-06-05T05:08:54Z</time>
      </trkpt>
      <trkpt lat="42.74991" lon="0.08828">
        <ele>1518</ele>
        <time>2013-06-05T05:09:00Z</time>
      </trkpt>
      <trkpt lat="42.74991" lon="0.08829">
        <ele>1523</ele>
        <time>2013-06-05T05:09:01Z</time>
      </trkpt>
      <trkpt lat="42.7499" lon="0.08826">
        <ele>1520</ele>
        <time>2013-06-05T05:11:22Z</time>
      </trkpt>
      <trkpt lat="42.74991" lon="0.08811">
        <ele>1520</ele>
        <time>2013-06-05T05:11:23Z</time>
      </trkpt>
      <trkpt lat="42.74999" lon="0.08826">
        <ele>1519</ele>
        <time>2013-06-05T05:11:36Z</time>
      </trkpt>
      <trkpt lat="42.74998" lon="0.08827">
        <ele>1519</ele>
        <time>2013-06-05T05:11:48Z</time>
      </trkpt>
      <trkpt lat="42.75" lon="0.08825">
        <ele>1519</ele>
        <time>2013-06-05T05:12:02Z</time>
      </trkpt>
      <trkpt lat="42.75" lon="0.08826">
        <ele>1519</ele>
        <time>2013-06-05T05:12:18Z</time>
      </trkpt>
      <trkpt lat="42.75001" lon="0.08827">
        <ele>1521</ele>
        <time>2013-06-05T05:12:24Z</time>
      </trkpt>
      <trkpt lat="42.75001" lon="0.08828">
        <ele>1520</ele>
        <time>2013-06-05T05:12:25Z</time>
      </trkpt>
      <trkpt lat="42.75003" lon="0.08835">
        <ele>1521</ele>
        <time>2013-06-05T05:12:32Z</time>
      </trkpt>
      <trkpt lat="42.75003" lon="0.08837">
        <ele>1521</ele>
        <time>2013-06-05T05:12:40Z</time>
      </trkpt>
      <trkpt lat="42.75002" lon="0.0884">
        <ele>1521</ele>
        <time>2013-06-05T05:12:43Z</time>
      </trkpt>
      <trkpt lat="42.74998" lon="0.08854">
        <ele>1522</ele>
        <time>2013-06-05T05:12:52Z</time>
      </trkpt>
      <trkpt lat="42.74993" lon="0.08864">
        <ele>1523</ele>
        <time>2013-06-05T05:13:00Z</time>
      </trkpt>
      <trkpt lat="42.74995" lon="0.08869">
        <ele>1524</ele>
        <time>2013-06-05T05:13:06Z</time>
      </trkpt>
      <trkpt lat="42.74996" lon="0.08872">
        <ele>1525</ele>
        <time>2013-06-05T05:13:13Z</time>
      </trkpt>
      <trkpt lat="42.75" lon="0.08875">
        <ele>1528</ele>
        <time>2013-06-05T05:13:21Z</time>
      </trkpt>
      <trkpt lat="42.75004" lon="0.08882">
        <ele>1528</ele>
        <time>2013-06-05T05:13:28Z</time>
      </trkpt>
      <trkpt lat="42.75003" lon="0.0889">
        <ele>1528</ele>
        <time>2013-06-05T05:13:36Z</time>
      </trkpt>
      <trkpt lat="42.75003" lon="0.08894">
        <ele>1533</ele>
        <time>2013-06-05T05:13:40Z</time>
      </trkpt>
      <trkpt lat="42.75003" lon="0.08893">
        <ele>1531</ele>
        <time>2013-06-05T05:13:41Z</time>
      </trkpt>
      <trkpt lat="42.75003" lon="0.08889">
        <ele>1530</ele>
        <time>2013-06-05T05:13:48Z</time>
      </trkpt>
      <trkpt lat="42.75003" lon="0.08899">
        <ele>1532</ele>
        <time>2013-06-05T05:13:57Z</time>
      </trkpt>
      <trkpt lat="42.75008" lon="0.08901">
        <ele>1533</ele>
        <time>2013-06-05T05:14:05Z</time>
      </trkpt>
      <trkpt lat="42.75008" lon="0.08907">
        <ele>1535</ele>
        <time>2013-06-05T05:14:12Z</time>
      </trkpt>
      <trkpt lat="42.75008" lon="0.08916">
        <ele>1536</ele>
        <time>2013-06-05T05:14:21Z</time>
      </trkpt>
      <trkpt lat="42.75009" lon="0.0892">
        <ele>1536</ele>
        <time>2013-06-05T05:14:29Z</time>
      </trkpt>
      <trkpt lat="42.75008" lon="0.08928">
        <ele>1538</ele>
        <time>2013-06-05T05:14:35Z</time>
      </trkpt>
      <trkpt lat="42.7501" lon="0.08933">
        <ele>1539</ele>
        <time>2013-06-05T05:14:41Z</time>
      </trkpt>
      <trkpt lat="42.75011" lon="0.08939">
        <ele>1540</ele>
        <time>2013-06-05T05:14:50Z</time>
      </trkpt>
      <trkpt lat="42.75012" lon="0.08941">
        <ele>1541</ele>
        <time>2013-06-05T05:14:56Z</time>
      </trkpt>
      <trkpt lat="42.75015" lon="0.08947">
        <ele>1540</ele>
        <time>2013-06-05T05:15:05Z</time>
      </trkpt>
      <trkpt lat="42.75015" lon="0.08948">
        <ele>1544</ele>
        <time>2013-06-05T05:15:06Z</time>
      </trkpt>
      <trkpt lat="42.75015" lon="0.08949">
        <ele>1540</ele>
        <time>2013-06-05T05:15:07Z</time>
      </trkpt>
      <trkpt lat="42.75015" lon="0.08949">
        <ele>1549</ele>
        <time>2013-06-05T05:15:08Z</time>
      </trkpt>
      <trkpt lat="42.75015" lon="0.08949">
        <ele>1543</ele>
        <time>2013-06-05T05:15:09Z</time>
      </trkpt>
      <trkpt lat="42.75019" lon="0.08956">
        <ele>1544</ele>
        <time>2013-06-05T05:15:18Z</time>
      </trkpt>
      <trkpt lat="42.75022" lon="0.0896">
        <ele>1545</ele>
        <time>2013-06-05T05:15:26Z</time>
      </trkpt>
      <trkpt lat="42.75025" lon="0.08962">
        <ele>1546</ele>
        <time>2013-06-05T05:15:34Z</time>
      </trkpt>
      <trkpt lat="42.75031" lon="0.08962">
        <ele>1547</ele>
        <time>2013-06-05T05:15:42Z</time>
      </trkpt>
      <trkpt lat="42.75036" lon="0.08962">
        <ele>1547</ele>
        <time>2013-06-05T05:15:51Z</time>
      </trkpt>
      <trkpt lat="42.75041" lon="0.08967">
        <ele>1548</ele>
        <time>2013-06-05T05:16:01Z</time>
      </trkpt>
      <trkpt lat="42.75044" lon="0.08973">
        <ele>1550</ele>
        <time>2013-06-05T05:16:09Z</time>
      </trkpt>
      <trkpt lat="42.75048" lon="0.08974">
        <ele>1551</ele>
        <time>2013-06-05T05:16:17Z</time>
      </trkpt>
      <trkpt lat="42.75054" lon="0.08974">
        <ele>1552</ele>
        <time>2013-06-05T05:16:25Z</time>
      </trkpt>
      <trkpt lat="42.75056" lon="0.08975">
        <ele>1554</ele>
        <time>2013-06-05T05:16:32Z</time>
      </trkpt>
      <trkpt lat="42.75059" lon="0.0898">
        <ele>1555</ele>
        <time>2013-06-05T05:16:40Z</time>
      </trkpt>
      <trkpt lat="42.75058" lon="0.08984">
        <ele>1555</ele>
        <time>2013-06-05T05:16:47Z</time>
      </trkpt>
      <trkpt lat="42.75059" lon="0.08984">
        <ele>1555</ele>
        <time>2013-06-05T05:17:05Z</time>
      </trkpt>
      <trkpt lat="42.75059" lon="0.08985">
        <ele>1556</ele>
        <time>2013-06-05T05:17:17Z</time>
      </trkpt>
      <trkpt lat="42.75062" lon="0.08984">
        <ele>1556</ele>
        <time>2013-06-05T05:17:21Z</time>
      </trkpt>
      <trkpt lat="42.75065" lon="0.08989">
        <ele>1558</ele>
        <time>2013-06-05T05:17:29Z</time>
      </trkpt>
      <trkpt lat="42.7507" lon="0.08992">
        <ele>1559</ele>
        <time>2013-06-05T05:17:36Z</time>
      </trkpt>
      <trkpt lat="42.75072" lon="0.08994">
        <ele>1560</ele>
        <time>2013-06-05T05:17:44Z</time>
      </trkpt>
      <trkpt lat="42.75077" lon="0.08993">
        <ele>1562</ele>
        <time>2013-06-05T05:17:50Z</time>
      </trkpt>
      <trkpt lat="42.75081" lon="0.08991">
        <ele>1561</ele>
        <time>2013-06-05T05:17:57Z</time>
      </trkpt>
      <trkpt lat="42.75086" lon="0.08989">
        <ele>1561</ele>
        <time>2013-06-05T05:18:04Z</time>
      </trkpt>
      <trkpt lat="42.75089" lon="0.0899">
        <ele>1561</ele>
        <time>2013-06-05T05:18:11Z</time>
      </trkpt>
      <trkpt lat="42.75092" lon="0.08992">
        <ele>1562</ele>
        <time>2013-06-05T05:18:18Z</time>
      </trkpt>
      <trkpt lat="42.75094" lon="0.08992">
        <ele>1562</ele>
        <time>2013-06-05T05:18:22Z</time>
      </trkpt>
      <trkpt lat="42.75094" lon="0.08988">
        <ele>1562</ele>
        <time>2013-06-05T05:18:25Z</time>
      </trkpt>
      <trkpt lat="42.75096" lon="0.08983">
        <ele>1561</ele>
        <time>2013-06-05T05:18:29Z</time>
      </trkpt>
      <trkpt lat="42.75098" lon="0.08972">
        <ele>1560</ele>
        <time>2013-06-05T05:18:38Z</time>
      </trkpt>
      <trkpt lat="42.75099" lon="0.08974">
        <ele>1559</ele>
        <time>2013-06-05T05:18:45Z</time>
      </trkpt>
      <trkpt lat="42.75099" lon="0.08978">
        <ele>1561</ele>
        <time>2013-06-05T05:18:51Z</time>
      </trkpt>
      <trkpt lat="42.75102" lon="0.08979">
        <ele>1563</ele>
        <time>2013-06-05T05:18:57Z</time>
      </trkpt>
      <trkpt lat="42.75103" lon="0.08984">
        <ele>1564</ele>
        <time>2013-06-05T05:19:04Z</time>
      </trkpt>
      <trkpt lat="42.75105" lon="0.08991">
        <ele>1566</ele>
        <time>2013-06-05T05:19:12Z</time>
      </trkpt>
      <trkpt lat="42.75107" lon="0.08996">
        <ele>1567</ele>
        <time>2013-06-05T05:19:20Z</time>
      </trkpt>
      <trkpt lat="42.75108" lon="0.09003">
        <ele>1568</ele>
        <time>2013-06-05T05:19:28Z</time>
      </trkpt>
      <trkpt lat="42.75108" lon="0.09009">
        <ele>1569</ele>
        <time>2013-06-05T05:19:35Z</time>
      </trkpt>
      <trkpt lat="42.75108" lon="0.09012">
        <ele>1570</ele>
        <time>2013-06-05T05:19:43Z</time>
      </trkpt>
      <trkpt lat="42.75109" lon="0.09012">
        <ele>1570</ele>
        <time>2013-06-05T05:19:44Z</time>
      </trkpt>
      <trkpt lat="42.75112" lon="0.0901">
        <ele>1571</ele>
        <time>2013-06-05T05:19:47Z</time>
      </trkpt>
      <trkpt lat="42.7512" lon="0.0901">
        <ele>1572</ele>
        <time>2013-06-05T05:19:55Z</time>
      </trkpt>
      <trkpt lat="42.75123" lon="0.09012">
        <ele>1572</ele>
        <time>2013-06-05T05:20:01Z</time>
      </trkpt>
      <trkpt lat="42.75126" lon="0.09012">
        <ele>1574</ele>
        <time>2013-06-05T05:20:07Z</time>
      </trkpt>
      <trkpt lat="42.75131" lon="0.09012">
        <ele>1574</ele>
        <time>2013-06-05T05:20:13Z</time>
      </trkpt>
      <trkpt lat="42.75132" lon="0.0901">
        <ele>1574</ele>
        <time>2013-06-05T05:20:16Z</time>
      </trkpt>
      <trkpt lat="42.75134" lon="0.09003">
        <ele>1574</ele>
        <time>2013-06-05T05:20:23Z</time>
      </trkpt>
      <trkpt lat="42.75136" lon="0.08994">
        <ele>1574</ele>
        <time>2013-06-05T05:20:30Z</time>
      </trkpt>
      <trkpt lat="42.7514" lon="0.08984">
        <ele>1574</ele>
        <time>2013-06-05T05:20:38Z</time>
      </trkpt>
      <trkpt lat="42.75144" lon="0.08978">
        <ele>1574</ele>
        <time>2013-06-05T05:20:45Z</time>
      </trkpt>
      <trkpt lat="42.75149" lon="0.08973">
        <ele>1574</ele>
        <time>2013-06-05T05:20:53Z</time>
      </trkpt>
      <trkpt lat="42.75154" lon="0.08972">
        <ele>1576</ele>
        <time>2013-06-05T05:21:00Z</time>
      </trkpt>
      <trkpt lat="42.75159" lon="0.08971">
        <ele>1578</ele>
        <time>2013-06-05T05:21:09Z</time>
      </trkpt>
      <trkpt lat="42.75162" lon="0.08972">
        <ele>1579</ele>
        <time>2013-06-05T05:21:16Z</time>
      </trkpt>
      <trkpt lat="42.75165" lon="0.08972">
        <ele>1580</ele>
        <time>2013-06-05T05:21:24Z</time>
      </trkpt>
      <trkpt lat="42.75168" lon="0.08969">
        <ele>1581</ele>
        <time>2013-06-05T05:21:32Z</time>
      </trkpt>
      <trkpt lat="42.75171" lon="0.08968">
        <ele>1581</ele>
        <time>2013-06-05T05:21:39Z</time>
      </trkpt>
      <trkpt lat="42.75176" lon="0.08969">
        <ele>1582</ele>
        <time>2013-06-05T05:21:47Z</time>
      </trkpt>
      <trkpt lat="42.75179" lon="0.08971">
        <ele>1583</ele>
        <time>2013-06-05T05:21:52Z</time>
      </trkpt>
      <trkpt lat="42.75183" lon="0.08973">
        <ele>1583</ele>
        <time>2013-06-05T05:21:59Z</time>
      </trkpt>
      <trkpt lat="42.75187" lon="0.08975">
        <ele>1584</ele>
        <time>2013-06-05T05:22:06Z</time>
      </trkpt>
      <trkpt lat="42.75191" lon="0.08978">
        <ele>1585</ele>
        <time>2013-06-05T05:22:15Z</time>
      </trkpt>
      <trkpt lat="42.75194" lon="0.0898">
        <ele>1586</ele>
        <time>2013-06-05T05:22:22Z</time>
      </trkpt>
      <trkpt lat="42.75196" lon="0.08981">
        <ele>1587</ele>
        <time>2013-06-05T05:22:30Z</time>
      </trkpt>
      <trkpt lat="42.75198" lon="0.08982">
        <ele>1588</ele>
        <time>2013-06-05T05:22:36Z</time>
      </trkpt>
      <trkpt lat="42.75202" lon="0.0898">
        <ele>1589</ele>
        <time>2013-06-05T05:22:43Z</time>
      </trkpt>
      <trkpt lat="42.75206" lon="0.08976">
        <ele>1590</ele>
        <time>2013-06-05T05:22:50Z</time>
      </trkpt>
      <trkpt lat="42.75207" lon="0.08974">
        <ele>1590</ele>
        <time>2013-06-05T05:22:56Z</time>
      </trkpt>
      <trkpt lat="42.75208" lon="0.08971">
        <ele>1590</ele>
        <time>2013-06-05T05:23:03Z</time>
      </trkpt>
      <trkpt lat="42.75211" lon="0.0897">
        <ele>1591</ele>
        <time>2013-06-05T05:23:09Z</time>
      </trkpt>
      <trkpt lat="42.75213" lon="0.08966">
        <ele>1592</ele>
        <time>2013-06-05T05:23:16Z</time>
      </trkpt>
      <trkpt lat="42.75216" lon="0.08963">
        <ele>1591</ele>
        <time>2013-06-05T05:23:22Z</time>
      </trkpt>
      <trkpt lat="42.75216" lon="0.08958">
        <ele>1591</ele>
        <time>2013-06-05T05:23:28Z</time>
      </trkpt>
      <trkpt lat="42.75214" lon="0.08949">
        <ele>1590</ele>
        <time>2013-06-05T05:23:36Z</time>
      </trkpt>
      <trkpt lat="42.75215" lon="0.08948">
        <ele>1590</ele>
        <time>2013-06-05T05:23:42Z</time>
      </trkpt>
      <trkpt lat="42.75216" lon="0.0895">
        <ele>1590</ele>
        <time>2013-06-05T05:23:56Z</time>
      </trkpt>
      <trkpt lat="42.75217" lon="0.08948">
        <ele>1591</ele>
        <time>2013-06-05T05:24:05Z</time>
      </trkpt>
      <trkpt lat="42.7522" lon="0.08951">
        <ele>1592</ele>
        <time>2013-06-05T05:24:14Z</time>
      </trkpt>
      <trkpt lat="42.75222" lon="0.08951">
        <ele>1593</ele>
        <time>2013-06-05T05:24:21Z</time>
      </trkpt>
      <trkpt lat="42.75226" lon="0.08955">
        <ele>1595</ele>
        <time>2013-06-05T05:24:30Z</time>
      </trkpt>
      <trkpt lat="42.75228" lon="0.08958">
        <ele>1596</ele>
        <time>2013-06-05T05:24:38Z</time>
      </trkpt>
      <trkpt lat="42.7523" lon="0.08962">
        <ele>1598</ele>
        <time>2013-06-05T05:24:45Z</time>
      </trkpt>
      <trkpt lat="42.75233" lon="0.08964">
        <ele>1599</ele>
        <time>2013-06-05T05:24:52Z</time>
      </trkpt>
      <trkpt lat="42.75235" lon="0.08969">
        <ele>1601</ele>
        <time>2013-06-05T05:24:59Z</time>
      </trkpt>
      <trkpt lat="42.75235" lon="0.0897">
        <ele>1601</ele>
        <time>2013-06-05T05:25:06Z</time>
      </trkpt>
      <trkpt lat="42.75235" lon="0.08971">
        <ele>1604</ele>
        <time>2013-06-05T05:25:13Z</time>
      </trkpt>
      <trkpt lat="42.75236" lon="0.08973">
        <ele>1603</ele>
        <time>2013-06-05T05:25:20Z</time>
      </trkpt>
      <trkpt lat="42.75239" lon="0.08975">
        <ele>1606</ele>
        <time>2013-06-05T05:25:29Z</time>
      </trkpt>
      <trkpt lat="42.75241" lon="0.08976">
        <ele>1606</ele>
        <time>2013-06-05T05:25:36Z</time>
      </trkpt>
      <trkpt lat="42.75243" lon="0.08973">
        <ele>1608</ele>
        <time>2013-06-05T05:25:43Z</time>
      </trkpt>
      <trkpt lat="42.75248" lon="0.0897">
        <ele>1608</ele>
        <time>2013-06-05T05:25:52Z</time>
      </trkpt>
      <trkpt lat="42.75253" lon="0.08966">
        <ele>1608</ele>
        <time>2013-06-05T05:26:00Z</time>
      </trkpt>
      <trkpt lat="42.75257" lon="0.08964">
        <ele>1609</ele>
        <time>2013-06-05T05:26:06Z</time>
      </trkpt>
      <trkpt lat="42.7526" lon="0.08959">
        <ele>1609</ele>
        <time>2013-06-05T05:26:13Z</time>
      </trkpt>
      <trkpt lat="42.75262" lon="0.08957">
        <ele>1609</ele>
        <time>2013-06-05T05:26:18Z</time>
      </trkpt>
      <trkpt lat="42.75265" lon="0.08956">
        <ele>1611</ele>
        <time>2013-06-05T05:26:25Z</time>
      </trkpt>
      <trkpt lat="42.75266" lon="0.08954">
        <ele>1611</ele>
        <time>2013-06-05T05:26:27Z</time>
      </trkpt>
      <trkpt lat="42.7527" lon="0.08951">
        <ele>1611</ele>
        <time>2013-06-05T05:26:33Z</time>
      </trkpt>
      <trkpt lat="42.75272" lon="0.08949">
        <ele>1611</ele>
        <time>2013-06-05T05:26:40Z</time>
      </trkpt>
      <trkpt lat="42.75276" lon="0.08949">
        <ele>1611</ele>
        <time>2013-06-05T05:26:48Z</time>
      </trkpt>
      <trkpt lat="42.75277" lon="0.08948">
        <ele>1612</ele>
        <time>2013-06-05T05:26:53Z</time>
      </trkpt>
      <trkpt lat="42.75279" lon="0.08949">
        <ele>1612</ele>
        <time>2013-06-05T05:27:01Z</time>
      </trkpt>
      <trkpt lat="42.7528" lon="0.08949">
        <ele>1612</ele>
        <time>2013-06-05T05:27:09Z</time>
      </trkpt>
      <trkpt lat="42.75283" lon="0.08947">
        <ele>1612</ele>
        <time>2013-06-05T05:27:15Z</time>
      </trkpt>
      <trkpt lat="42.75281" lon="0.08948">
        <ele>1612</ele>
        <time>2013-06-05T05:27:24Z</time>
      </trkpt>
      <trkpt lat="42.75281" lon="0.08948">
        <ele>1612</ele>
        <time>2013-06-05T05:27:38Z</time>
      </trkpt>
      <trkpt lat="42.7528" lon="0.0895">
        <ele>1612</ele>
        <time>2013-06-05T05:27:53Z</time>
      </trkpt>
      <trkpt lat="42.75281" lon="0.08949">
        <ele>1613</ele>
        <time>2013-06-05T05:28:07Z</time>
      </trkpt>
      <trkpt lat="42.75281" lon="0.08949">
        <ele>1613</ele>
        <time>2013-06-05T05:28:15Z</time>
      </trkpt>
      <trkpt lat="42.75284" lon="0.08947">
        <ele>1612</ele>
        <time>2013-06-05T05:28:23Z</time>
      </trkpt>
      <trkpt lat="42.75285" lon="0.08948">
        <ele>1613</ele>
        <time>2013-06-05T05:28:25Z</time>
      </trkpt>
      <trkpt lat="42.75289" lon="0.08951">
        <ele>1614</ele>
        <time>2013-06-05T05:28:30Z</time>
      </trkpt>
      <trkpt lat="42.75285" lon="0.08955">
        <ele>1615</ele>
        <time>2013-06-05T05:28:37Z</time>
      </trkpt>
      <trkpt lat="42.75283" lon="0.08955">
        <ele>1615</ele>
        <time>2013-06-05T05:28:39Z</time>
      </trkpt>
      <trkpt lat="42.75282" lon="0.08957">
        <ele>1616</ele>
        <time>2013-06-05T05:28:47Z</time>
      </trkpt>
      <trkpt lat="42.75281" lon="0.0896">
        <ele>1617</ele>
        <time>2013-06-05T05:28:50Z</time>
      </trkpt>
      <trkpt lat="42.75278" lon="0.08963">
        <ele>1618</ele>
        <time>2013-06-05T05:28:57Z</time>
      </trkpt>
      <trkpt lat="42.75278" lon="0.08965">
        <ele>1619</ele>
        <time>2013-06-05T05:29:05Z</time>
      </trkpt>
      <trkpt lat="42.7528" lon="0.08969">
        <ele>1620</ele>
        <time>2013-06-05T05:29:11Z</time>
      </trkpt>
      <trkpt lat="42.7528" lon="0.08974">
        <ele>1622</ele>
        <time>2013-06-05T05:29:21Z</time>
      </trkpt>
      <trkpt lat="42.75278" lon="0.08979">
        <ele>1623</ele>
        <time>2013-06-05T05:29:29Z</time>
      </trkpt>
      <trkpt lat="42.75277" lon="0.08983">
        <ele>1624</ele>
        <time>2013-06-05T05:29:36Z</time>
      </trkpt>
      <trkpt lat="42.75276" lon="0.08987">
        <ele>1625</ele>
        <time>2013-06-05T05:29:42Z</time>
      </trkpt>
      <trkpt lat="42.75276" lon="0.08992">
        <ele>1626</ele>
        <time>2013-06-05T05:29:49Z</time>
      </trkpt>
      <trkpt lat="42.75277" lon="0.08992">
        <ele>1626</ele>
        <time>2013-06-05T05:29:53Z</time>
      </trkpt>
      <trkpt lat="42.7528" lon="0.08988">
        <ele>1628</ele>
        <time>2013-06-05T05:30:00Z</time>
      </trkpt>
      <trkpt lat="42.75281" lon="0.08991">
        <ele>1629</ele>
        <time>2013-06-05T05:30:08Z</time>
      </trkpt>
      <trkpt lat="42.75282" lon="0.08993">
        <ele>1630</ele>
        <time>2013-06-05T05:30:16Z</time>
      </trkpt>
      <trkpt lat="42.75283" lon="0.08993">
        <ele>1630</ele>
        <time>2013-06-05T05:30:25Z</time>
      </trkpt>
      <trkpt lat="42.75283" lon="0.08994">
        <ele>1631</ele>
        <time>2013-06-05T05:30:36Z</time>
      </trkpt>
      <trkpt lat="42.75283" lon="0.08997">
        <ele>1632</ele>
        <time>2013-06-05T05:30:44Z</time>
      </trkpt>
      <trkpt lat="42.75285" lon="0.08997">
        <ele>1634</ele>
        <time>2013-06-05T05:30:50Z</time>
      </trkpt>
      <trkpt lat="42.75284" lon="0.09002">
        <ele>1636</ele>
        <time>2013-06-05T05:30:57Z</time>
      </trkpt>
      <trkpt lat="42.75286" lon="0.09003">
        <ele>1637</ele>
        <time>2013-06-05T05:31:03Z</time>
      </trkpt>
      <trkpt lat="42.75288" lon="0.09005">
        <ele>1638</ele>
        <time>2013-06-05T05:31:09Z</time>
      </trkpt>
      <trkpt lat="42.75289" lon="0.09006">
        <ele>1639</ele>
        <time>2013-06-05T05:31:16Z</time>
      </trkpt>
      <trkpt lat="42.75288" lon="0.09009">
        <ele>1639</ele>
        <time>2013-06-05T05:31:22Z</time>
      </trkpt>
      <trkpt lat="42.75286" lon="0.09013">
        <ele>1640</ele>
        <time>2013-06-05T05:31:30Z</time>
      </trkpt>
      <trkpt lat="42.75287" lon="0.09016">
        <ele>1641</ele>
        <time>2013-06-05T05:31:38Z</time>
      </trkpt>
      <trkpt lat="42.75288" lon="0.09018">
        <ele>1642</ele>
        <time>2013-06-05T05:31:45Z</time>
      </trkpt>
      <trkpt lat="42.75285" lon="0.09023">
        <ele>1644</ele>
        <time>2013-06-05T05:31:53Z</time>
      </trkpt>
      <trkpt lat="42.75284" lon="0.09026">
        <ele>1645</ele>
        <time>2013-06-05T05:32:00Z</time>
      </trkpt>
      <trkpt lat="42.75283" lon="0.09028">
        <ele>1645</ele>
        <time>2013-06-05T05:32:08Z</time>
      </trkpt>
      <trkpt lat="42.75283" lon="0.0903">
        <ele>1646</ele>
        <time>2013-06-05T05:32:17Z</time>
      </trkpt>
      <trkpt lat="42.75282" lon="0.09031">
        <ele>1648</ele>
        <time>2013-06-05T05:32:20Z</time>
      </trkpt>
      <trkpt lat="42.75282" lon="0.09033">
        <ele>1649</ele>
        <time>2013-06-05T05:32:27Z</time>
      </trkpt>
      <trkpt lat="42.75285" lon="0.09034">
        <ele>1650</ele>
        <time>2013-06-05T05:32:34Z</time>
      </trkpt>
      <trkpt lat="42.75286" lon="0.09034">
        <ele>1651</ele>
        <time>2013-06-05T05:32:40Z</time>
      </trkpt>
      <trkpt lat="42.75285" lon="0.09037">
        <ele>1652</ele>
        <time>2013-06-05T05:32:47Z</time>
      </trkpt>
      <trkpt lat="42.75286" lon="0.0904">
        <ele>1653</ele>
        <time>2013-06-05T05:32:55Z</time>
      </trkpt>
      <trkpt lat="42.75287" lon="0.0904">
        <ele>1655</ele>
        <time>2013-06-05T05:33:03Z</time>
      </trkpt>
      <trkpt lat="42.75286" lon="0.09042">
        <ele>1656</ele>
        <time>2013-06-05T05:33:10Z</time>
      </trkpt>
      <trkpt lat="42.75289" lon="0.09041">
        <ele>1656</ele>
        <time>2013-06-05T05:33:17Z</time>
      </trkpt>
      <trkpt lat="42.75289" lon="0.09042">
        <ele>1657</ele>
        <time>2013-06-05T05:33:24Z</time>
      </trkpt>
      <trkpt lat="42.75288" lon="0.09044">
        <ele>1657</ele>
        <time>2013-06-05T05:33:31Z</time>
      </trkpt>
      <trkpt lat="42.75289" lon="0.09047">
        <ele>1659</ele>
        <time>2013-06-05T05:33:39Z</time>
      </trkpt>
      <trkpt lat="42.75291" lon="0.09048">
        <ele>1660</ele>
        <time>2013-06-05T05:33:47Z</time>
      </trkpt>
      <trkpt lat="42.7529" lon="0.09049">
        <ele>1661</ele>
        <time>2013-06-05T05:33:55Z</time>
      </trkpt>
      <trkpt lat="42.75291" lon="0.09051">
        <ele>1662</ele>
        <time>2013-06-05T05:34:02Z</time>
      </trkpt>
      <trkpt lat="42.75288" lon="0.09056">
        <ele>1663</ele>
        <time>2013-06-05T05:34:10Z</time>
      </trkpt>
      <trkpt lat="42.75288" lon="0.09058">
        <ele>1663</ele>
        <time>2013-06-05T05:34:16Z</time>
      </trkpt>
      <trkpt lat="42.75287" lon="0.09059">
        <ele>1665</ele>
        <time>2013-06-05T05:34:23Z</time>
      </trkpt>
      <trkpt lat="42.75289" lon="0.09059">
        <ele>1664</ele>
        <time>2013-06-05T05:34:30Z</time>
      </trkpt>
      <trkpt lat="42.75288" lon="0.09061">
        <ele>1666</ele>
        <time>2013-06-05T05:34:39Z</time>
      </trkpt>
      <trkpt lat="42.75287" lon="0.09066">
        <ele>1667</ele>
        <time>2013-06-05T05:34:47Z</time>
      </trkpt>
      <trkpt lat="42.75286" lon="0.09068">
        <ele>1667</ele>
        <time>2013-06-05T05:34:52Z</time>
      </trkpt>
      <trkpt lat="42.75284" lon="0.09069">
        <ele>1668</ele>
        <time>2013-06-05T05:34:58Z</time>
      </trkpt>
      <trkpt lat="42.75285" lon="0.09072">
        <ele>1669</ele>
        <time>2013-06-05T05:35:04Z</time>
      </trkpt>
      <trkpt lat="42.75285" lon="0.09075">
        <ele>1670</ele>
        <time>2013-06-05T05:35:12Z</time>
      </trkpt>
      <trkpt lat="42.75286" lon="0.09075">
        <ele>1671</ele>
        <time>2013-06-05T05:35:20Z</time>
      </trkpt>
      <trkpt lat="42.75286" lon="0.09075">
        <ele>1672</ele>
        <time>2013-06-05T05:35:27Z</time>
      </trkpt>
      <trkpt lat="42.75287" lon="0.09076">
        <ele>1673</ele>
        <time>2013-06-05T05:35:33Z</time>
      </trkpt>
      <trkpt lat="42.75287" lon="0.09079">
        <ele>1673</ele>
        <time>2013-06-05T05:35:39Z</time>
      </trkpt>
      <trkpt lat="42.75287" lon="0.09084">
        <ele>1675</ele>
        <time>2013-06-05T05:35:46Z</time>
      </trkpt>
      <trkpt lat="42.75287" lon="0.09087">
        <ele>1675</ele>
        <time>2013-06-05T05:35:53Z</time>
      </trkpt>
      <trkpt lat="42.75286" lon="0.09092">
        <ele>1676</ele>
        <time>2013-06-05T05:36:01Z</time>
      </trkpt>
      <trkpt lat="42.75286" lon="0.09097">
        <ele>1678</ele>
        <time>2013-06-05T05:36:09Z</time>
      </trkpt>
      <trkpt lat="42.75286" lon="0.09098">
        <ele>1678</ele>
        <time>2013-06-05T05:36:10Z</time>
      </trkpt>
      <trkpt lat="42.75286" lon="0.091">
        <ele>1678</ele>
        <time>2013-06-05T05:36:18Z</time>
      </trkpt>
      <trkpt lat="42.75286" lon="0.09101">
        <ele>1679</ele>
        <time>2013-06-05T05:36:25Z</time>
      </trkpt>
      <trkpt lat="42.75286" lon="0.09103">
        <ele>1680</ele>
        <time>2013-06-05T05:36:31Z</time>
      </trkpt>
      <trkpt lat="42.75287" lon="0.09103">
        <ele>1681</ele>
        <time>2013-06-05T05:36:39Z</time>
      </trkpt>
      <trkpt lat="42.75287" lon="0.09105">
        <ele>1681</ele>
        <time>2013-06-05T05:36:49Z</time>
      </trkpt>
      <trkpt lat="42.75287" lon="0.09109">
        <ele>1683</ele>
        <time>2013-06-05T05:36:56Z</time>
      </trkpt>
      <trkpt lat="42.75287" lon="0.09109">
        <ele>1683</ele>
        <time>2013-06-05T05:36:57Z</time>
      </trkpt>
      <trkpt lat="42.75289" lon="0.09107">
        <ele>1683</ele>
        <time>2013-06-05T05:37:03Z</time>
      </trkpt>
      <trkpt lat="42.75292" lon="0.09108">
        <ele>1685</ele>
        <time>2013-06-05T05:37:11Z</time>
      </trkpt>
      <trkpt lat="42.75291" lon="0.09107">
        <ele>1686</ele>
        <time>2013-06-05T05:37:17Z</time>
      </trkpt>
      <trkpt lat="42.75289" lon="0.09105">
        <ele>1686</ele>
        <time>2013-06-05T05:37:32Z</time>
      </trkpt>
      <trkpt lat="42.75288" lon="0.09103">
        <ele>1685</ele>
        <time>2013-06-05T05:37:47Z</time>
      </trkpt>
      <trkpt lat="42.75293" lon="0.09105">
        <ele>1686</ele>
        <time>2013-06-05T05:37:54Z</time>
      </trkpt>
      <trkpt lat="42.75296" lon="0.09104">
        <ele>1687</ele>
        <time>2013-06-05T05:38:02Z</time>
      </trkpt>
      <trkpt lat="42.75297" lon="0.09102">
        <ele>1687</ele>
        <time>2013-06-05T05:38:11Z</time>
      </trkpt>
      <trkpt lat="42.75299" lon="0.091">
        <ele>1688</ele>
        <time>2013-06-05T05:38:19Z</time>
      </trkpt>
      <trkpt lat="42.75297" lon="0.09099">
        <ele>1687</ele>
        <time>2013-06-05T05:38:34Z</time>
      </trkpt>
      <trkpt lat="42.75296" lon="0.09098">
        <ele>1688</ele>
        <time>2013-06-05T05:38:50Z</time>
      </trkpt>
      <trkpt lat="42.75298" lon="0.09097">
        <ele>1688</ele>
        <time>2013-06-05T05:39:06Z</time>
      </trkpt>
      <trkpt lat="42.75302" lon="0.09096">
        <ele>1689</ele>
        <time>2013-06-05T05:39:12Z</time>
      </trkpt>
      <trkpt lat="42.75305" lon="0.09093">
        <ele>1690</ele>
        <time>2013-06-05T05:39:18Z</time>
      </trkpt>
      <trkpt lat="42.75309" lon="0.0909">
        <ele>1691</ele>
        <time>2013-06-05T05:39:25Z</time>
      </trkpt>
      <trkpt lat="42.75314" lon="0.09087">
        <ele>1693</ele>
        <time>2013-06-05T05:39:34Z</time>
      </trkpt>
      <trkpt lat="42.75317" lon="0.09089">
        <ele>1693</ele>
        <time>2013-06-05T05:39:40Z</time>
      </trkpt>
      <trkpt lat="42.75315" lon="0.09096">
        <ele>1695</ele>
        <time>2013-06-05T05:39:49Z</time>
      </trkpt>
      <trkpt lat="42.75313" lon="0.09098">
        <ele>1695</ele>
        <time>2013-06-05T05:39:56Z</time>
      </trkpt>
      <trkpt lat="42.75313" lon="0.09099">
        <ele>1695</ele>
        <time>2013-06-05T05:40:02Z</time>
      </trkpt>
      <trkpt lat="42.75314" lon="0.09103">
        <ele>1696</ele>
        <time>2013-06-05T05:40:13Z</time>
      </trkpt>
      <trkpt lat="42.75317" lon="0.091">
        <ele>1696</ele>
        <time>2013-06-05T05:40:24Z</time>
      </trkpt>
      <trkpt lat="42.75318" lon="0.09095">
        <ele>1697</ele>
        <time>2013-06-05T05:40:30Z</time>
      </trkpt>
      <trkpt lat="42.7532" lon="0.09092">
        <ele>1698</ele>
        <time>2013-06-05T05:40:36Z</time>
      </trkpt>
      <trkpt lat="42.75324" lon="0.09092">
        <ele>1700</ele>
        <time>2013-06-05T05:40:43Z</time>
      </trkpt>
      <trkpt lat="42.75326" lon="0.09087">
        <ele>1701</ele>
        <time>2013-06-05T05:40:50Z</time>
      </trkpt>
      <trkpt lat="42.75329" lon="0.09085">
        <ele>1702</ele>
        <time>2013-06-05T05:40:56Z</time>
      </trkpt>
      <trkpt lat="42.75331" lon="0.09088">
        <ele>1703</ele>
        <time>2013-06-05T05:41:02Z</time>
      </trkpt>
      <trkpt lat="42.7533" lon="0.09093">
        <ele>1704</ele>
        <time>2013-06-05T05:41:08Z</time>
      </trkpt>
      <trkpt lat="42.7533" lon="0.09099">
        <ele>1705</ele>
        <time>2013-06-05T05:41:15Z</time>
      </trkpt>
      <trkpt lat="42.75327" lon="0.09104">
        <ele>1706</ele>
        <time>2013-06-05T05:41:22Z</time>
      </trkpt>
      <trkpt lat="42.75328" lon="0.09106">
        <ele>1707</ele>
        <time>2013-06-05T05:41:28Z</time>
      </trkpt>
      <trkpt lat="42.75331" lon="0.09103">
        <ele>1709</ele>
        <time>2013-06-05T05:41:34Z</time>
      </trkpt>
      <trkpt lat="42.75333" lon="0.091">
        <ele>1709</ele>
        <time>2013-06-05T05:41:41Z</time>
      </trkpt>
      <trkpt lat="42.75335" lon="0.09098">
        <ele>1710</ele>
        <time>2013-06-05T05:41:47Z</time>
      </trkpt>
      <trkpt lat="42.75338" lon="0.09094">
        <ele>1711</ele>
        <time>2013-06-05T05:41:54Z</time>
      </trkpt>
      <trkpt lat="42.75343" lon="0.09091">
        <ele>1713</ele>
        <time>2013-06-05T05:42:02Z</time>
      </trkpt>
      <trkpt lat="42.75347" lon="0.09093">
        <ele>1714</ele>
        <time>2013-06-05T05:42:09Z</time>
      </trkpt>
      <trkpt lat="42.7535" lon="0.09093">
        <ele>1714</ele>
        <time>2013-06-05T05:42:16Z</time>
      </trkpt>
      <trkpt lat="42.75352" lon="0.09093">
        <ele>1716</ele>
        <time>2013-06-05T05:42:23Z</time>
      </trkpt>
      <trkpt lat="42.75353" lon="0.09096">
        <ele>1717</ele>
        <time>2013-06-05T05:42:30Z</time>
      </trkpt>
      <trkpt lat="42.75354" lon="0.09095">
        <ele>1718</ele>
        <time>2013-06-05T05:42:35Z</time>
      </trkpt>
      <trkpt lat="42.75356" lon="0.09095">
        <ele>1718</ele>
        <time>2013-06-05T05:42:40Z</time>
      </trkpt>
      <trkpt lat="42.75359" lon="0.09091">
        <ele>1719</ele>
        <time>2013-06-05T05:42:47Z</time>
      </trkpt>
      <trkpt lat="42.75361" lon="0.09086">
        <ele>1721</ele>
        <time>2013-06-05T05:42:54Z</time>
      </trkpt>
      <trkpt lat="42.75365" lon="0.09085">
        <ele>1721</ele>
        <time>2013-06-05T05:43:01Z</time>
      </trkpt>
      <trkpt lat="42.75365" lon="0.09088">
        <ele>1722</ele>
        <time>2013-06-05T05:43:07Z</time>
      </trkpt>
      <trkpt lat="42.75365" lon="0.09093">
        <ele>1723</ele>
        <time>2013-06-05T05:43:14Z</time>
      </trkpt>
      <trkpt lat="42.75366" lon="0.09093">
        <ele>1725</ele>
        <time>2013-06-05T05:43:22Z</time>
      </trkpt>
      <trkpt lat="42.75368" lon="0.0909">
        <ele>1726</ele>
        <time>2013-06-05T05:43:29Z</time>
      </trkpt>
      <trkpt lat="42.7537" lon="0.09088">
        <ele>1727</ele>
        <time>2013-06-05T05:43:36Z</time>
      </trkpt>
      <trkpt lat="42.75371" lon="0.09092">
        <ele>1728</ele>
        <time>2013-06-05T05:43:42Z</time>
      </trkpt>
      <trkpt lat="42.75369" lon="0.09095">
        <ele>1729</ele>
        <time>2013-06-05T05:43:48Z</time>
      </trkpt>
      <trkpt lat="42.75372" lon="0.09097">
        <ele>1730</ele>
        <time>2013-06-05T05:43:55Z</time>
      </trkpt>
      <trkpt lat="42.75374" lon="0.09092">
        <ele>1730</ele>
        <time>2013-06-05T05:44:01Z</time>
      </trkpt>
      <trkpt lat="42.75377" lon="0.09088">
        <ele>1732</ele>
        <time>2013-06-05T05:44:09Z</time>
      </trkpt>
      <trkpt lat="42.75379" lon="0.09087">
        <ele>1732</ele>
        <time>2013-06-05T05:44:16Z</time>
      </trkpt>
      <trkpt lat="42.75382" lon="0.09086">
        <ele>1734</ele>
        <time>2013-06-05T05:44:22Z</time>
      </trkpt>
      <trkpt lat="42.75385" lon="0.09085">
        <ele>1735</ele>
        <time>2013-06-05T05:44:28Z</time>
      </trkpt>
      <trkpt lat="42.75388" lon="0.09084">
        <ele>1737</ele>
        <time>2013-06-05T05:44:36Z</time>
      </trkpt>
      <trkpt lat="42.75391" lon="0.09085">
        <ele>1738</ele>
        <time>2013-06-05T05:44:42Z</time>
      </trkpt>
      <trkpt lat="42.75394" lon="0.09082">
        <ele>1739</ele>
        <time>2013-06-05T05:44:48Z</time>
      </trkpt>
      <trkpt lat="42.75399" lon="0.0908">
        <ele>1740</ele>
        <time>2013-06-05T05:44:56Z</time>
      </trkpt>
      <trkpt lat="42.75402" lon="0.0908">
        <ele>1741</ele>
        <time>2013-06-05T05:45:02Z</time>
      </trkpt>
      <trkpt lat="42.75407" lon="0.09079">
        <ele>1742</ele>
        <time>2013-06-05T05:45:10Z</time>
      </trkpt>
      <trkpt lat="42.75411" lon="0.0908">
        <ele>1743</ele>
        <time>2013-06-05T05:45:17Z</time>
      </trkpt>
      <trkpt lat="42.75409" lon="0.09084">
        <ele>1744</ele>
        <time>2013-06-05T05:45:23Z</time>
      </trkpt>
      <trkpt lat="42.75408" lon="0.09088">
        <ele>1744</ele>
        <time>2013-06-05T05:45:29Z</time>
      </trkpt>
      <trkpt lat="42.75406" lon="0.09091">
        <ele>1745</ele>
        <time>2013-06-05T05:45:34Z</time>
      </trkpt>
      <trkpt lat="42.75403" lon="0.09093">
        <ele>1746</ele>
        <time>2013-06-05T05:45:40Z</time>
      </trkpt>
      <trkpt lat="42.75403" lon="0.09095">
        <ele>1746</ele>
        <time>2013-06-05T05:45:48Z</time>
      </trkpt>
      <trkpt lat="42.75402" lon="0.09097">
        <ele>1748</ele>
        <time>2013-06-05T05:45:51Z</time>
      </trkpt>
      <trkpt lat="42.754" lon="0.09101">
        <ele>1749</ele>
        <time>2013-06-05T05:45:57Z</time>
      </trkpt>
      <trkpt lat="42.75398" lon="0.09105">
        <ele>1750</ele>
        <time>2013-06-05T05:46:03Z</time>
      </trkpt>
      <trkpt lat="42.75398" lon="0.09108">
        <ele>1751</ele>
        <time>2013-06-05T05:46:14Z</time>
      </trkpt>
      <trkpt lat="42.75397" lon="0.0911">
        <ele>1751</ele>
        <time>2013-06-05T05:46:27Z</time>
      </trkpt>
      <trkpt lat="42.75395" lon="0.09113">
        <ele>1752</ele>
        <time>2013-06-05T05:46:31Z</time>
      </trkpt>
      <trkpt lat="42.75393" lon="0.09118">
        <ele>1753</ele>
        <time>2013-06-05T05:46:37Z</time>
      </trkpt>
      <trkpt lat="42.7539" lon="0.09124">
        <ele>1755</ele>
        <time>2013-06-05T05:46:44Z</time>
      </trkpt>
      <trkpt lat="42.75386" lon="0.09134">
        <ele>1756</ele>
        <time>2013-06-05T05:46:53Z</time>
      </trkpt>
      <trkpt lat="42.75384" lon="0.09139">
        <ele>1757</ele>
        <time>2013-06-05T05:47:01Z</time>
      </trkpt>
      <trkpt lat="42.75382" lon="0.09142">
        <ele>1758</ele>
        <time>2013-06-05T05:47:11Z</time>
      </trkpt>
      <trkpt lat="42.75383" lon="0.09142">
        <ele>1758</ele>
        <time>2013-06-05T05:47:26Z</time>
      </trkpt>
      <trkpt lat="42.75383" lon="0.09142">
        <ele>1759</ele>
        <time>2013-06-05T05:47:40Z</time>
      </trkpt>
      <trkpt lat="42.75386" lon="0.09143">
        <ele>1759</ele>
        <time>2013-06-05T05:47:49Z</time>
      </trkpt>
      <trkpt lat="42.75389" lon="0.0914">
        <ele>1761</ele>
        <time>2013-06-05T05:47:57Z</time>
      </trkpt>
      <trkpt lat="42.75392" lon="0.09139">
        <ele>1762</ele>
        <time>2013-06-05T05:48:04Z</time>
      </trkpt>
      <trkpt lat="42.75395" lon="0.09138">
        <ele>1763</ele>
        <time>2013-06-05T05:48:09Z</time>
      </trkpt>
      <trkpt lat="42.75397" lon="0.09137">
        <ele>1764</ele>
        <time>2013-06-05T05:48:16Z</time>
      </trkpt>
      <trkpt lat="42.754" lon="0.09134">
        <ele>1765</ele>
        <time>2013-06-05T05:48:22Z</time>
      </trkpt>
      <trkpt lat="42.75402" lon="0.09131">
        <ele>1765</ele>
        <time>2013-06-05T05:48:29Z</time>
      </trkpt>
      <trkpt lat="42.75405" lon="0.09131">
        <ele>1766</ele>
        <time>2013-06-05T05:48:32Z</time>
      </trkpt>
      <trkpt lat="42.75409" lon="0.09126">
        <ele>1768</ele>
        <time>2013-06-05T05:48:41Z</time>
      </trkpt>
      <trkpt lat="42.75413" lon="0.09125">
        <ele>1768</ele>
        <time>2013-06-05T05:48:48Z</time>
      </trkpt>
      <trkpt lat="42.75415" lon="0.09123">
        <ele>1768</ele>
        <time>2013-06-05T05:48:54Z</time>
      </trkpt>
      <trkpt lat="42.75414" lon="0.09121">
        <ele>1768</ele>
        <time>2013-06-05T05:49:08Z</time>
      </trkpt>
      <trkpt lat="42.75416" lon="0.09122">
        <ele>1769</ele>
        <time>2013-06-05T05:49:22Z</time>
      </trkpt>
      <trkpt lat="42.75416" lon="0.09124">
        <ele>1769</ele>
        <time>2013-06-05T05:49:27Z</time>
      </trkpt>
      <trkpt lat="42.75417" lon="0.0913">
        <ele>1769</ele>
        <time>2013-06-05T05:49:44Z</time>
      </trkpt>
      <trkpt lat="42.75414" lon="0.09134">
        <ele>1770</ele>
        <time>2013-06-05T05:49:50Z</time>
      </trkpt>
      <trkpt lat="42.75415" lon="0.09136">
        <ele>1772</ele>
        <time>2013-06-05T05:49:57Z</time>
      </trkpt>
      <trkpt lat="42.75418" lon="0.09133">
        <ele>1773</ele>
        <time>2013-06-05T05:50:04Z</time>
      </trkpt>
      <trkpt lat="42.75419" lon="0.09132">
        <ele>1774</ele>
        <time>2013-06-05T05:50:10Z</time>
      </trkpt>
      <trkpt lat="42.75422" lon="0.09128">
        <ele>1774</ele>
        <time>2013-06-05T05:50:17Z</time>
      </trkpt>
      <trkpt lat="42.75424" lon="0.09127">
        <ele>1776</ele>
        <time>2013-06-05T05:50:23Z</time>
      </trkpt>
      <trkpt lat="42.75426" lon="0.09128">
        <ele>1776</ele>
        <time>2013-06-05T05:50:30Z</time>
      </trkpt>
      <trkpt lat="42.75431" lon="0.09126">
        <ele>1777</ele>
        <time>2013-06-05T05:50:37Z</time>
      </trkpt>
      <trkpt lat="42.75435" lon="0.09127">
        <ele>1779</ele>
        <time>2013-06-05T05:50:44Z</time>
      </trkpt>
      <trkpt lat="42.75438" lon="0.09127">
        <ele>1779</ele>
        <time>2013-06-05T05:50:49Z</time>
      </trkpt>
      <trkpt lat="42.75442" lon="0.09131">
        <ele>1780</ele>
        <time>2013-06-05T05:50:56Z</time>
      </trkpt>
      <trkpt lat="42.75438" lon="0.09137">
        <ele>1782</ele>
        <time>2013-06-05T05:51:06Z</time>
      </trkpt>
      <trkpt lat="42.75435" lon="0.09138">
        <ele>1783</ele>
        <time>2013-06-05T05:51:10Z</time>
      </trkpt>
      <trkpt lat="42.7543" lon="0.09142">
        <ele>1783</ele>
        <time>2013-06-05T05:51:18Z</time>
      </trkpt>
      <trkpt lat="42.75427" lon="0.09149">
        <ele>1785</ele>
        <time>2013-06-05T05:51:27Z</time>
      </trkpt>
      <trkpt lat="42.75425" lon="0.09153">
        <ele>1786</ele>
        <time>2013-06-05T05:51:33Z</time>
      </trkpt>
      <trkpt lat="42.75424" lon="0.09161">
        <ele>1787</ele>
        <time>2013-06-05T05:51:42Z</time>
      </trkpt>
      <trkpt lat="42.75425" lon="0.09164">
        <ele>1788</ele>
        <time>2013-06-05T05:51:49Z</time>
      </trkpt>
      <trkpt lat="42.75426" lon="0.09162">
        <ele>1789</ele>
        <time>2013-06-05T05:51:54Z</time>
      </trkpt>
      <trkpt lat="42.75429" lon="0.09159">
        <ele>1790</ele>
        <time>2013-06-05T05:52:01Z</time>
      </trkpt>
      <trkpt lat="42.75433" lon="0.09157">
        <ele>1791</ele>
        <time>2013-06-05T05:52:07Z</time>
      </trkpt>
      <trkpt lat="42.75436" lon="0.09158">
        <ele>1792</ele>
        <time>2013-06-05T05:52:12Z</time>
      </trkpt>
      <trkpt lat="42.7544" lon="0.09156">
        <ele>1793</ele>
        <time>2013-06-05T05:52:18Z</time>
      </trkpt>
      <trkpt lat="42.75443" lon="0.09156">
        <ele>1793</ele>
        <time>2013-06-05T05:52:24Z</time>
      </trkpt>
      <trkpt lat="42.75446" lon="0.09158">
        <ele>1794</ele>
        <time>2013-06-05T05:52:31Z</time>
      </trkpt>
      <trkpt lat="42.75444" lon="0.09164">
        <ele>1795</ele>
        <time>2013-06-05T05:52:37Z</time>
      </trkpt>
      <trkpt lat="42.75442" lon="0.09166">
        <ele>1797</ele>
        <time>2013-06-05T05:52:43Z</time>
      </trkpt>
      <trkpt lat="42.75439" lon="0.0917">
        <ele>1797</ele>
        <time>2013-06-05T05:52:50Z</time>
      </trkpt>
      <trkpt lat="42.75439" lon="0.09173">
        <ele>1798</ele>
        <time>2013-06-05T05:52:56Z</time>
      </trkpt>
      <trkpt lat="42.75443" lon="0.09172">
        <ele>1799</ele>
        <time>2013-06-05T05:53:02Z</time>
      </trkpt>
      <trkpt lat="42.75447" lon="0.09171">
        <ele>1801</ele>
        <time>2013-06-05T05:53:10Z</time>
      </trkpt>
      <trkpt lat="42.75449" lon="0.09171">
        <ele>1802</ele>
        <time>2013-06-05T05:53:17Z</time>
      </trkpt>
      <trkpt lat="42.75451" lon="0.09171">
        <ele>1803</ele>
        <time>2013-06-05T05:53:24Z</time>
      </trkpt>
      <trkpt lat="42.75453" lon="0.09173">
        <ele>1804</ele>
        <time>2013-06-05T05:53:31Z</time>
      </trkpt>
      <trkpt lat="42.75453" lon="0.09176">
        <ele>1805</ele>
        <time>2013-06-05T05:53:36Z</time>
      </trkpt>
      <trkpt lat="42.75451" lon="0.09181">
        <ele>1806</ele>
        <time>2013-06-05T05:53:43Z</time>
      </trkpt>
      <trkpt lat="42.75449" lon="0.09183">
        <ele>1807</ele>
        <time>2013-06-05T05:53:53Z</time>
      </trkpt>
      <trkpt lat="42.75446" lon="0.09188">
        <ele>1808</ele>
        <time>2013-06-05T05:53:59Z</time>
      </trkpt>
      <trkpt lat="42.75442" lon="0.09191">
        <ele>1809</ele>
        <time>2013-06-05T05:54:06Z</time>
      </trkpt>
      <trkpt lat="42.7544" lon="0.09194">
        <ele>1810</ele>
        <time>2013-06-05T05:54:13Z</time>
      </trkpt>
      <trkpt lat="42.75444" lon="0.09196">
        <ele>1811</ele>
        <time>2013-06-05T05:54:21Z</time>
      </trkpt>
      <trkpt lat="42.75447" lon="0.09195">
        <ele>1812</ele>
        <time>2013-06-05T05:54:28Z</time>
      </trkpt>
      <trkpt lat="42.7545" lon="0.09194">
        <ele>1813</ele>
        <time>2013-06-05T05:54:35Z</time>
      </trkpt>
      <trkpt lat="42.75455" lon="0.09193">
        <ele>1814</ele>
        <time>2013-06-05T05:54:43Z</time>
      </trkpt>
      <trkpt lat="42.75459" lon="0.09192">
        <ele>1815</ele>
        <time>2013-06-05T05:54:50Z</time>
      </trkpt>
      <trkpt lat="42.75464" lon="0.09194">
        <ele>1816</ele>
        <time>2013-06-05T05:54:57Z</time>
      </trkpt>
      <trkpt lat="42.75468" lon="0.09197">
        <ele>1817</ele>
        <time>2013-06-05T05:55:03Z</time>
      </trkpt>
      <trkpt lat="42.75471" lon="0.09199">
        <ele>1818</ele>
        <time>2013-06-05T05:55:11Z</time>
      </trkpt>
      <trkpt lat="42.75475" lon="0.09199">
        <ele>1819</ele>
        <time>2013-06-05T05:55:19Z</time>
      </trkpt>
      <trkpt lat="42.75481" lon="0.09204">
        <ele>1820</ele>
        <time>2013-06-05T05:55:26Z</time>
      </trkpt>
      <trkpt lat="42.75486" lon="0.09207">
        <ele>1820</ele>
        <time>2013-06-05T05:55:33Z</time>
      </trkpt>
      <trkpt lat="42.7549" lon="0.0921">
        <ele>1822</ele>
        <time>2013-06-05T05:55:40Z</time>
      </trkpt>
      <trkpt lat="42.75492" lon="0.09214">
        <ele>1822</ele>
        <time>2013-06-05T05:55:49Z</time>
      </trkpt>
      <trkpt lat="42.75493" lon="0.09218">
        <ele>1823</ele>
        <time>2013-06-05T05:55:55Z</time>
      </trkpt>
      <trkpt lat="42.75495" lon="0.09225">
        <ele>1825</ele>
        <time>2013-06-05T05:56:03Z</time>
      </trkpt>
      <trkpt lat="42.75496" lon="0.09226">
        <ele>1825</ele>
        <time>2013-06-05T05:56:04Z</time>
      </trkpt>
      <trkpt lat="42.755" lon="0.09232">
        <ele>1827</ele>
        <time>2013-06-05T05:56:12Z</time>
      </trkpt>
      <trkpt lat="42.75502" lon="0.09235">
        <ele>1827</ele>
        <time>2013-06-05T05:56:17Z</time>
      </trkpt>
      <trkpt lat="42.75506" lon="0.0924">
        <ele>1828</ele>
        <time>2013-06-05T05:56:24Z</time>
      </trkpt>
      <trkpt lat="42.75508" lon="0.09245">
        <ele>1829</ele>
        <time>2013-06-05T05:56:30Z</time>
      </trkpt>
      <trkpt lat="42.75508" lon="0.09245">
        <ele>1829</ele>
        <time>2013-06-05T05:56:31Z</time>
      </trkpt>
      <trkpt lat="42.7551" lon="0.09252">
        <ele>1830</ele>
        <time>2013-06-05T05:56:38Z</time>
      </trkpt>
      <trkpt lat="42.75512" lon="0.09252">
        <ele>1830</ele>
        <time>2013-06-05T05:56:40Z</time>
      </trkpt>
      <trkpt lat="42.75515" lon="0.09256">
        <ele>1831</ele>
        <time>2013-06-05T05:56:47Z</time>
      </trkpt>
      <trkpt lat="42.75519" lon="0.0926">
        <ele>1831</ele>
        <time>2013-06-05T05:56:54Z</time>
      </trkpt>
      <trkpt lat="42.7552" lon="0.09263">
        <ele>1833</ele>
        <time>2013-06-05T05:57:00Z</time>
      </trkpt>
      <trkpt lat="42.75525" lon="0.09267">
        <ele>1833</ele>
        <time>2013-06-05T05:57:07Z</time>
      </trkpt>
      <trkpt lat="42.75528" lon="0.09273">
        <ele>1835</ele>
        <time>2013-06-05T05:57:15Z</time>
      </trkpt>
      <trkpt lat="42.75531" lon="0.09279">
        <ele>1837</ele>
        <time>2013-06-05T05:57:24Z</time>
      </trkpt>
      <trkpt lat="42.75535" lon="0.09283">
        <ele>1837</ele>
        <time>2013-06-05T05:57:30Z</time>
      </trkpt>
      <trkpt lat="42.75541" lon="0.09287">
        <ele>1838</ele>
        <time>2013-06-05T05:57:37Z</time>
      </trkpt>
      <trkpt lat="42.75545" lon="0.09291">
        <ele>1838</ele>
        <time>2013-06-05T05:57:44Z</time>
      </trkpt>
      <trkpt lat="42.75551" lon="0.09296">
        <ele>1839</ele>
        <time>2013-06-05T05:57:52Z</time>
      </trkpt>
      <trkpt lat="42.75556" lon="0.09303">
        <ele>1841</ele>
        <time>2013-06-05T05:58:01Z</time>
      </trkpt>
      <trkpt lat="42.75557" lon="0.09306">
        <ele>1841</ele>
        <time>2013-06-05T05:58:04Z</time>
      </trkpt>
      <trkpt lat="42.7556" lon="0.09311">
        <ele>1841</ele>
        <time>2013-06-05T05:58:12Z</time>
      </trkpt>
      <trkpt lat="42.75561" lon="0.09314">
        <ele>1842</ele>
        <time>2013-06-05T05:58:20Z</time>
      </trkpt>
      <trkpt lat="42.75564" lon="0.09315">
        <ele>1842</ele>
        <time>2013-06-05T05:58:27Z</time>
      </trkpt>
      <trkpt lat="42.75565" lon="0.09317">
        <ele>1842</ele>
        <time>2013-06-05T05:58:36Z</time>
      </trkpt>
      <trkpt lat="42.75567" lon="0.09319">
        <ele>1843</ele>
        <time>2013-06-05T05:58:43Z</time>
      </trkpt>
      <trkpt lat="42.75573" lon="0.09321">
        <ele>1844</ele>
        <time>2013-06-05T05:58:50Z</time>
      </trkpt>
      <trkpt lat="42.7558" lon="0.09325">
        <ele>1845</ele>
        <time>2013-06-05T05:58:58Z</time>
      </trkpt>
      <trkpt lat="42.75584" lon="0.0933">
        <ele>1846</ele>
        <time>2013-06-05T05:59:05Z</time>
      </trkpt>
      <trkpt lat="42.75589" lon="0.0933">
        <ele>1847</ele>
        <time>2013-06-05T05:59:14Z</time>
      </trkpt>
      <trkpt lat="42.75594" lon="0.09333">
        <ele>1848</ele>
        <time>2013-06-05T05:59:21Z</time>
      </trkpt>
      <trkpt lat="42.75598" lon="0.09335">
        <ele>1849</ele>
        <time>2013-06-05T05:59:28Z</time>
      </trkpt>
      <trkpt lat="42.75602" lon="0.09341">
        <ele>1850</ele>
        <time>2013-06-05T05:59:34Z</time>
      </trkpt>
      <trkpt lat="42.75607" lon="0.09345">
        <ele>1851</ele>
        <time>2013-06-05T05:59:42Z</time>
      </trkpt>
      <trkpt lat="42.75611" lon="0.09349">
        <ele>1853</ele>
        <time>2013-06-05T05:59:49Z</time>
      </trkpt>
      <trkpt lat="42.75612" lon="0.09352">
        <ele>1853</ele>
        <time>2013-06-05T05:59:56Z</time>
      </trkpt>
      <trkpt lat="42.75616" lon="0.09355">
        <ele>1855</ele>
        <time>2013-06-05T06:00:03Z</time>
      </trkpt>
      <trkpt lat="42.75622" lon="0.09359">
        <ele>1856</ele>
        <time>2013-06-05T06:00:11Z</time>
      </trkpt>
      <trkpt lat="42.75626" lon="0.09362">
        <ele>1857</ele>
        <time>2013-06-05T06:00:18Z</time>
      </trkpt>
      <trkpt lat="42.75632" lon="0.09365">
        <ele>1859</ele>
        <time>2013-06-05T06:00:26Z</time>
      </trkpt>
      <trkpt lat="42.75636" lon="0.09369">
        <ele>1860</ele>
        <time>2013-06-05T06:00:32Z</time>
      </trkpt>
      <trkpt lat="42.7564" lon="0.09372">
        <ele>1861</ele>
        <time>2013-06-05T06:00:39Z</time>
      </trkpt>
      <trkpt lat="42.75641" lon="0.09375">
        <ele>1862</ele>
        <time>2013-06-05T06:00:45Z</time>
      </trkpt>
      <trkpt lat="42.75641" lon="0.09381">
        <ele>1863</ele>
        <time>2013-06-05T06:00:51Z</time>
      </trkpt>
      <trkpt lat="42.75643" lon="0.09386">
        <ele>1864</ele>
        <time>2013-06-05T06:00:59Z</time>
      </trkpt>
      <trkpt lat="42.75644" lon="0.09389">
        <ele>1866</ele>
        <time>2013-06-05T06:01:04Z</time>
      </trkpt>
      <trkpt lat="42.75645" lon="0.09393">
        <ele>1867</ele>
        <time>2013-06-05T06:01:09Z</time>
      </trkpt>
      <trkpt lat="42.75646" lon="0.09401">
        <ele>1868</ele>
        <time>2013-06-05T06:01:17Z</time>
      </trkpt>
      <trkpt lat="42.75647" lon="0.09405">
        <ele>1869</ele>
        <time>2013-06-05T06:01:23Z</time>
      </trkpt>
      <trkpt lat="42.75648" lon="0.09409">
        <ele>1870</ele>
        <time>2013-06-05T06:01:30Z</time>
      </trkpt>
      <trkpt lat="42.7565" lon="0.0941">
        <ele>1871</ele>
        <time>2013-06-05T06:01:35Z</time>
      </trkpt>
      <trkpt lat="42.75655" lon="0.09411">
        <ele>1871</ele>
        <time>2013-06-05T06:01:42Z</time>
      </trkpt>
      <trkpt lat="42.7566" lon="0.09416">
        <ele>1872</ele>
        <time>2013-06-05T06:01:49Z</time>
      </trkpt>
      <trkpt lat="42.75663" lon="0.09421">
        <ele>1873</ele>
        <time>2013-06-05T06:02:00Z</time>
      </trkpt>
      <trkpt lat="42.75664" lon="0.09424">
        <ele>1873</ele>
        <time>2013-06-05T06:02:07Z</time>
      </trkpt>
      <trkpt lat="42.75665" lon="0.09428">
        <ele>1873</ele>
        <time>2013-06-05T06:02:14Z</time>
      </trkpt>
      <trkpt lat="42.75668" lon="0.09429">
        <ele>1875</ele>
        <time>2013-06-05T06:02:20Z</time>
      </trkpt>
      <trkpt lat="42.75672" lon="0.09429">
        <ele>1876</ele>
        <time>2013-06-05T06:02:26Z</time>
      </trkpt>
      <trkpt lat="42.75674" lon="0.09432">
        <ele>1877</ele>
        <time>2013-06-05T06:02:33Z</time>
      </trkpt>
      <trkpt lat="42.75675" lon="0.09433">
        <ele>1877</ele>
        <time>2013-06-05T06:02:36Z</time>
      </trkpt>
      <trkpt lat="42.75674" lon="0.09442">
        <ele>1878</ele>
        <time>2013-06-05T06:02:45Z</time>
      </trkpt>
      <trkpt lat="42.75673" lon="0.09446">
        <ele>1878</ele>
        <time>2013-06-05T06:02:50Z</time>
      </trkpt>
      <trkpt lat="42.75669" lon="0.0945">
        <ele>1880</ele>
        <time>2013-06-05T06:02:56Z</time>
      </trkpt>
      <trkpt lat="42.75668" lon="0.09454">
        <ele>1880</ele>
        <time>2013-06-05T06:03:03Z</time>
      </trkpt>
      <trkpt lat="42.75669" lon="0.09455">
        <ele>1881</ele>
        <time>2013-06-05T06:03:10Z</time>
      </trkpt>
      <trkpt lat="42.7567" lon="0.09456">
        <ele>1882</ele>
        <time>2013-06-05T06:03:14Z</time>
      </trkpt>
      <trkpt lat="42.75674" lon="0.09462">
        <ele>1883</ele>
        <time>2013-06-05T06:03:21Z</time>
      </trkpt>
      <trkpt lat="42.75675" lon="0.09466">
        <ele>1883</ele>
        <time>2013-06-05T06:03:28Z</time>
      </trkpt>
      <trkpt lat="42.7568" lon="0.0947">
        <ele>1884</ele>
        <time>2013-06-05T06:03:34Z</time>
      </trkpt>
      <trkpt lat="42.7569" lon="0.09476">
        <ele>1884</ele>
        <time>2013-06-05T06:03:43Z</time>
      </trkpt>
      <trkpt lat="42.75693" lon="0.09477">
        <ele>1884</ele>
        <time>2013-06-05T06:03:45Z</time>
      </trkpt>
      <trkpt lat="42.75698" lon="0.09482">
        <ele>1884</ele>
        <time>2013-06-05T06:03:52Z</time>
      </trkpt>
      <trkpt lat="42.75702" lon="0.09487">
        <ele>1885</ele>
        <time>2013-06-05T06:03:58Z</time>
      </trkpt>
      <trkpt lat="42.75706" lon="0.09494">
        <ele>1885</ele>
        <time>2013-06-05T06:04:04Z</time>
      </trkpt>
      <trkpt lat="42.75709" lon="0.09496">
        <ele>1885</ele>
        <time>2013-06-05T06:04:07Z</time>
      </trkpt>
      <trkpt lat="42.75715" lon="0.09498">
        <ele>1886</ele>
        <time>2013-06-05T06:04:15Z</time>
      </trkpt>
      <trkpt lat="42.75721" lon="0.09503">
        <ele>1886</ele>
        <time>2013-06-05T06:04:23Z</time>
      </trkpt>
      <trkpt lat="42.75719" lon="0.09506">
        <ele>1887</ele>
        <time>2013-06-05T06:04:29Z</time>
      </trkpt>
      <trkpt lat="42.75723" lon="0.09509">
        <ele>1887</ele>
        <time>2013-06-05T06:04:36Z</time>
      </trkpt>
      <trkpt lat="42.75725" lon="0.0951">
        <ele>1887</ele>
        <time>2013-06-05T06:04:39Z</time>
      </trkpt>
      <trkpt lat="42.75729" lon="0.09511">
        <ele>1887</ele>
        <time>2013-06-05T06:04:43Z</time>
      </trkpt>
      <trkpt lat="42.75732" lon="0.09517">
        <ele>1888</ele>
        <time>2013-06-05T06:04:50Z</time>
      </trkpt>
      <trkpt lat="42.75733" lon="0.09522">
        <ele>1888</ele>
        <time>2013-06-05T06:04:57Z</time>
      </trkpt>
      <trkpt lat="42.75734" lon="0.09524">
        <ele>1889</ele>
        <time>2013-06-05T06:04:59Z</time>
      </trkpt>
      <trkpt lat="42.75733" lon="0.09529">
        <ele>1890</ele>
        <time>2013-06-05T06:05:07Z</time>
      </trkpt>
      <trkpt lat="42.75733" lon="0.09538">
        <ele>1890</ele>
        <time>2013-06-05T06:05:15Z</time>
      </trkpt>
      <trkpt lat="42.75734" lon="0.09543">
        <ele>1890</ele>
        <time>2013-06-05T06:05:25Z</time>
      </trkpt>
      <trkpt lat="42.75734" lon="0.09544">
        <ele>1890</ele>
        <time>2013-06-05T06:05:34Z</time>
      </trkpt>
      <trkpt lat="42.75734" lon="0.09549">
        <ele>1890</ele>
        <time>2013-06-05T06:05:42Z</time>
      </trkpt>
      <trkpt lat="42.75734" lon="0.09551">
        <ele>1890</ele>
        <time>2013-06-05T06:05:48Z</time>
      </trkpt>
      <trkpt lat="42.75736" lon="0.09558">
        <ele>1889</ele>
        <time>2013-06-05T06:05:57Z</time>
      </trkpt>
      <trkpt lat="42.75736" lon="0.09563">
        <ele>1890</ele>
        <time>2013-06-05T06:06:04Z</time>
      </trkpt>
      <trkpt lat="42.75736" lon="0.09565">
        <ele>1890</ele>
        <time>2013-06-05T06:06:10Z</time>
      </trkpt>
      <trkpt lat="42.7574" lon="0.09567">
        <ele>1889</ele>
        <time>2013-06-05T06:06:18Z</time>
      </trkpt>
      <trkpt lat="42.75741" lon="0.0957">
        <ele>1890</ele>
        <time>2013-06-05T06:06:26Z</time>
      </trkpt>
      <trkpt lat="42.75743" lon="0.09574">
        <ele>1889</ele>
        <time>2013-06-05T06:06:36Z</time>
      </trkpt>
      <trkpt lat="42.75745" lon="0.09575">
        <ele>1889</ele>
        <time>2013-06-05T06:06:44Z</time>
      </trkpt>
      <trkpt lat="42.75749" lon="0.0958">
        <ele>1889</ele>
        <time>2013-06-05T06:06:51Z</time>
      </trkpt>
      <trkpt lat="42.75752" lon="0.0958">
        <ele>1889</ele>
        <time>2013-06-05T06:06:53Z</time>
      </trkpt>
      <trkpt lat="42.75756" lon="0.0958">
        <ele>1889</ele>
        <time>2013-06-05T06:06:57Z</time>
      </trkpt>
      <trkpt lat="42.75764" lon="0.09588">
        <ele>1889</ele>
        <time>2013-06-05T06:07:05Z</time>
      </trkpt>
      <trkpt lat="42.7577" lon="0.09597">
        <ele>1889</ele>
        <time>2013-06-05T06:07:13Z</time>
      </trkpt>
      <trkpt lat="42.75773" lon="0.09602">
        <ele>1890</ele>
        <time>2013-06-05T06:07:17Z</time>
      </trkpt>
      <trkpt lat="42.75779" lon="0.0961">
        <ele>1891</ele>
        <time>2013-06-05T06:07:26Z</time>
      </trkpt>
      <trkpt lat="42.75784" lon="0.09617">
        <ele>1891</ele>
        <time>2013-06-05T06:07:33Z</time>
      </trkpt>
      <trkpt lat="42.7579" lon="0.09622">
        <ele>1891</ele>
        <time>2013-06-05T06:07:40Z</time>
      </trkpt>
      <trkpt lat="42.7579" lon="0.09622">
        <ele>1890</ele>
        <time>2013-06-05T06:07:41Z</time>
      </trkpt>
      <trkpt lat="42.75794" lon="0.09626">
        <ele>1891</ele>
        <time>2013-06-05T06:07:46Z</time>
      </trkpt>
      <trkpt lat="42.75798" lon="0.09634">
        <ele>1891</ele>
        <time>2013-06-05T06:07:54Z</time>
      </trkpt>
      <trkpt lat="42.75802" lon="0.09642">
        <ele>1891</ele>
        <time>2013-06-05T06:08:03Z</time>
      </trkpt>
      <trkpt lat="42.75805" lon="0.09646">
        <ele>1892</ele>
        <time>2013-06-05T06:08:08Z</time>
      </trkpt>
      <trkpt lat="42.75807" lon="0.09649">
        <ele>1891</ele>
        <time>2013-06-05T06:08:14Z</time>
      </trkpt>
      <trkpt lat="42.75813" lon="0.09654">
        <ele>1892</ele>
        <time>2013-06-05T06:08:22Z</time>
      </trkpt>
      <trkpt lat="42.75817" lon="0.09657">
        <ele>1892</ele>
        <time>2013-06-05T06:08:26Z</time>
      </trkpt>
      <trkpt lat="42.75826" lon="0.0967">
        <ele>1893</ele>
        <time>2013-06-05T06:08:36Z</time>
      </trkpt>
      <trkpt lat="42.75833" lon="0.09675">
        <ele>1892</ele>
        <time>2013-06-05T06:08:44Z</time>
      </trkpt>
      <trkpt lat="42.75834" lon="0.0968">
        <ele>1892</ele>
        <time>2013-06-05T06:08:51Z</time>
      </trkpt>
      <trkpt lat="42.75837" lon="0.09688">
        <ele>1892</ele>
        <time>2013-06-05T06:08:59Z</time>
      </trkpt>
      <trkpt lat="42.75839" lon="0.0969">
        <ele>1893</ele>
        <time>2013-06-05T06:09:01Z</time>
      </trkpt>
      <trkpt lat="42.75845" lon="0.09693">
        <ele>1893</ele>
        <time>2013-06-05T06:09:09Z</time>
      </trkpt>
      <trkpt lat="42.75851" lon="0.09701">
        <ele>1893</ele>
        <time>2013-06-05T06:09:17Z</time>
      </trkpt>
      <trkpt lat="42.75857" lon="0.09711">
        <ele>1893</ele>
        <time>2013-06-05T06:09:26Z</time>
      </trkpt>
      <trkpt lat="42.75858" lon="0.09713">
        <ele>1894</ele>
        <time>2013-06-05T06:09:27Z</time>
      </trkpt>
      <trkpt lat="42.75862" lon="0.09724">
        <ele>1894</ele>
        <time>2013-06-05T06:09:36Z</time>
      </trkpt>
      <trkpt lat="42.75869" lon="0.09733">
        <ele>1895</ele>
        <time>2013-06-05T06:09:44Z</time>
      </trkpt>
      <trkpt lat="42.75874" lon="0.09745">
        <ele>1894</ele>
        <time>2013-06-05T06:09:52Z</time>
      </trkpt>
      <trkpt lat="42.75875" lon="0.09747">
        <ele>1897</ele>
        <time>2013-06-05T06:09:53Z</time>
      </trkpt>
      <trkpt lat="42.75878" lon="0.09754">
        <ele>1896</ele>
        <time>2013-06-05T06:09:58Z</time>
      </trkpt>
      <trkpt lat="42.75878" lon="0.09756">
        <ele>1896</ele>
        <time>2013-06-05T06:10:00Z</time>
      </trkpt>
      <trkpt lat="42.75881" lon="0.09758">
        <ele>1897</ele>
        <time>2013-06-05T06:10:02Z</time>
      </trkpt>
      <trkpt lat="42.75885" lon="0.09765">
        <ele>1898</ele>
        <time>2013-06-05T06:10:10Z</time>
      </trkpt>
      <trkpt lat="42.75886" lon="0.09768">
        <ele>1898</ele>
        <time>2013-06-05T06:10:17Z</time>
      </trkpt>
      <trkpt lat="42.75886" lon="0.09763">
        <ele>1898</ele>
        <time>2013-06-05T06:10:20Z</time>
      </trkpt>
      <trkpt lat="42.75886" lon="0.09758">
        <ele>1898</ele>
        <time>2013-06-05T06:10:26Z</time>
      </trkpt>
      <trkpt lat="42.75885" lon="0.09757">
        <ele>1898</ele>
        <time>2013-06-05T06:10:37Z</time>
      </trkpt>
      <trkpt lat="42.75885" lon="0.09758">
        <ele>1898</ele>
        <time>2013-06-05T06:10:40Z</time>
      </trkpt>
      <trkpt lat="42.75889" lon="0.09771">
        <ele>1898</ele>
        <time>2013-06-05T06:10:46Z</time>
      </trkpt>
      <trkpt lat="42.75891" lon="0.09775">
        <ele>1898</ele>
        <time>2013-06-05T06:10:51Z</time>
      </trkpt>
      <trkpt lat="42.75893" lon="0.09786">
        <ele>1899</ele>
        <time>2013-06-05T06:10:59Z</time>
      </trkpt>
      <trkpt lat="42.75893" lon="0.09794">
        <ele>1899</ele>
        <time>2013-06-05T06:11:06Z</time>
      </trkpt>
      <trkpt lat="42.75892" lon="0.09791">
        <ele>1898</ele>
        <time>2013-06-05T06:11:14Z</time>
      </trkpt>
      <trkpt lat="42.75896" lon="0.09797">
        <ele>1899</ele>
        <time>2013-06-05T06:11:21Z</time>
      </trkpt>
      <trkpt lat="42.759" lon="0.09804">
        <ele>1899</ele>
        <time>2013-06-05T06:11:28Z</time>
      </trkpt>
      <trkpt lat="42.75903" lon="0.09809">
        <ele>1899</ele>
        <time>2013-06-05T06:11:34Z</time>
      </trkpt>
      <trkpt lat="42.75902" lon="0.09807">
        <ele>1899</ele>
        <time>2013-06-05T06:11:41Z</time>
      </trkpt>
      <trkpt lat="42.75902" lon="0.09807">
        <ele>1899</ele>
        <time>2013-06-05T06:11:45Z</time>
      </trkpt>
      <trkpt lat="42.75892" lon="0.09797">
        <ele>1898</ele>
        <time>2013-06-05T06:11:55Z</time>
      </trkpt>
      <trkpt lat="42.7589" lon="0.09795">
        <ele>1898</ele>
        <time>2013-06-05T06:11:59Z</time>
      </trkpt>
      <trkpt lat="42.75888" lon="0.09791">
        <ele>1898</ele>
        <time>2013-06-05T06:12:01Z</time>
      </trkpt>
      <trkpt lat="42.75888" lon="0.09791">
        <ele>1898</ele>
        <time>2013-06-05T06:12:07Z</time>
      </trkpt>
      <trkpt lat="42.75896" lon="0.09795">
        <ele>1898</ele>
        <time>2013-06-05T06:12:16Z</time>
      </trkpt>
      <trkpt lat="42.75901" lon="0.09799">
        <ele>1899</ele>
        <time>2013-06-05T06:12:20Z</time>
      </trkpt>
      <trkpt lat="42.75906" lon="0.09804">
        <ele>1899</ele>
        <time>2013-06-05T06:12:28Z</time>
      </trkpt>
      <trkpt lat="42.75911" lon="0.09805">
        <ele>1899</ele>
        <time>2013-06-05T06:12:33Z</time>
      </trkpt>
      <trkpt lat="42.75923" lon="0.09808">
        <ele>1900</ele>
        <time>2013-06-05T06:12:43Z</time>
      </trkpt>
      <trkpt lat="42.75925" lon="0.09808">
        <ele>1900</ele>
        <time>2013-06-05T06:12:45Z</time>
      </trkpt>
      <trkpt lat="42.75928" lon="0.09805">
        <ele>1900</ele>
        <time>2013-06-05T06:12:49Z</time>
      </trkpt>
      <trkpt lat="42.75935" lon="0.09804">
        <ele>1901</ele>
        <time>2013-06-05T06:12:57Z</time>
      </trkpt>
      <trkpt lat="42.75937" lon="0.098">
        <ele>1902</ele>
        <time>2013-06-05T06:13:04Z</time>
      </trkpt>
      <trkpt lat="42.75941" lon="0.098">
        <ele>1902</ele>
        <time>2013-06-05T06:13:10Z</time>
      </trkpt>
      <trkpt lat="42.75947" lon="0.09799">
        <ele>1903</ele>
        <time>2013-06-05T06:13:18Z</time>
      </trkpt>
      <trkpt lat="42.75952" lon="0.09801">
        <ele>1904</ele>
        <time>2013-06-05T06:13:25Z</time>
      </trkpt>
      <trkpt lat="42.75959" lon="0.09812">
        <ele>1902</ele>
        <time>2013-06-05T06:13:34Z</time>
      </trkpt>
      <trkpt lat="42.75962" lon="0.09819">
        <ele>1903</ele>
        <time>2013-06-05T06:13:40Z</time>
      </trkpt>
      <trkpt lat="42.75965" lon="0.09823">
        <ele>1903</ele>
        <time>2013-06-05T06:13:46Z</time>
      </trkpt>
      <trkpt lat="42.75965" lon="0.09828">
        <ele>1904</ele>
        <time>2013-06-05T06:13:54Z</time>
      </trkpt>
      <trkpt lat="42.75963" lon="0.09831">
        <ele>1904</ele>
        <time>2013-06-05T06:14:02Z</time>
      </trkpt>
      <trkpt lat="42.75965" lon="0.09829">
        <ele>1904</ele>
        <time>2013-06-05T06:14:09Z</time>
      </trkpt>
      <trkpt lat="42.75967" lon="0.09834">
        <ele>1904</ele>
        <time>2013-06-05T06:14:20Z</time>
      </trkpt>
      <trkpt lat="42.75969" lon="0.09839">
        <ele>1904</ele>
        <time>2013-06-05T06:14:28Z</time>
      </trkpt>
      <trkpt lat="42.75971" lon="0.09845">
        <ele>1905</ele>
        <time>2013-06-05T06:14:37Z</time>
      </trkpt>
      <trkpt lat="42.75975" lon="0.09847">
        <ele>1906</ele>
        <time>2013-06-05T06:14:46Z</time>
      </trkpt>
      <trkpt lat="42.75978" lon="0.09848">
        <ele>1907</ele>
        <time>2013-06-05T06:14:53Z</time>
      </trkpt>
      <trkpt lat="42.75978" lon="0.0985">
        <ele>1907</ele>
        <time>2013-06-05T06:14:59Z</time>
      </trkpt>
      <trkpt lat="42.7598" lon="0.09858">
        <ele>1908</ele>
        <time>2013-06-05T06:15:09Z</time>
      </trkpt>
      <trkpt lat="42.75981" lon="0.09863">
        <ele>1908</ele>
        <time>2013-06-05T06:15:18Z</time>
      </trkpt>
      <trkpt lat="42.75981" lon="0.09867">
        <ele>1907</ele>
        <time>2013-06-05T06:15:27Z</time>
      </trkpt>
      <trkpt lat="42.75982" lon="0.09864">
        <ele>1912</ele>
        <time>2013-06-05T06:15:38Z</time>
      </trkpt>
      <trkpt lat="42.75982" lon="0.09864">
        <ele>1909</ele>
        <time>2013-06-05T06:15:39Z</time>
      </trkpt>
      <trkpt lat="42.75983" lon="0.09862">
        <ele>1908</ele>
        <time>2013-06-05T06:15:47Z</time>
      </trkpt>
      <trkpt lat="42.7598" lon="0.09864">
        <ele>1909</ele>
        <time>2013-06-05T06:15:58Z</time>
      </trkpt>
      <trkpt lat="42.75982" lon="0.09865">
        <ele>1909</ele>
        <time>2013-06-05T06:16:09Z</time>
      </trkpt>
      <trkpt lat="42.75984" lon="0.09862">
        <ele>1910</ele>
        <time>2013-06-05T06:16:17Z</time>
      </trkpt>
      <trkpt lat="42.75985" lon="0.09859">
        <ele>1910</ele>
        <time>2013-06-05T06:16:25Z</time>
      </trkpt>
      <trkpt lat="42.75983" lon="0.09857">
        <ele>1908</ele>
        <time>2013-06-05T06:16:39Z</time>
      </trkpt>
      <trkpt lat="42.75983" lon="0.09855">
        <ele>1902</ele>
        <time>2013-06-05T06:16:43Z</time>
      </trkpt>
      <trkpt lat="42.75983" lon="0.09855">
        <ele>1916</ele>
        <time>2013-06-05T06:16:44Z</time>
      </trkpt>
      <trkpt lat="42.75983" lon="0.09855">
        <ele>1910</ele>
        <time>2013-06-05T06:16:45Z</time>
      </trkpt>
      <trkpt lat="42.75981" lon="0.09852">
        <ele>1910</ele>
        <time>2013-06-05T06:17:01Z</time>
      </trkpt>
      <trkpt lat="42.75983" lon="0.09853">
        <ele>1910</ele>
        <time>2013-06-05T06:17:16Z</time>
      </trkpt>
      <trkpt lat="42.75984" lon="0.09857">
        <ele>1909</ele>
        <time>2013-06-05T06:17:23Z</time>
      </trkpt>
      <trkpt lat="42.75985" lon="0.09861">
        <ele>1910</ele>
        <time>2013-06-05T06:17:36Z</time>
      </trkpt>
      <trkpt lat="42.75985" lon="0.09862">
        <ele>1910</ele>
        <time>2013-06-05T06:17:48Z</time>
      </trkpt>
      <trkpt lat="42.75984" lon="0.09859">
        <ele>1910</ele>
        <time>2013-06-05T06:18:01Z</time>
      </trkpt>
      <trkpt lat="42.75985" lon="0.09857">
        <ele>1909</ele>
        <time>2013-06-05T06:18:14Z</time>
      </trkpt>
      <trkpt lat="42.75985" lon="0.09856">
        <ele>1909</ele>
        <time>2013-06-05T06:18:28Z</time>
      </trkpt>
      <trkpt lat="42.75982" lon="0.09856">
        <ele>1909</ele>
        <time>2013-06-05T06:18:43Z</time>
      </trkpt>
      <trkpt lat="42.7598" lon="0.09856">
        <ele>1910</ele>
        <time>2013-06-05T06:18:55Z</time>
      </trkpt>
      <trkpt lat="42.7598" lon="0.09859">
        <ele>1909</ele>
        <time>2013-06-05T06:19:17Z</time>
      </trkpt>
      <trkpt lat="42.75982" lon="0.09859">
        <ele>1910</ele>
        <time>2013-06-05T06:19:35Z</time>
      </trkpt>
      <trkpt lat="42.75984" lon="0.09861">
        <ele>1910</ele>
        <time>2013-06-05T06:19:50Z</time>
      </trkpt>
      <trkpt lat="42.75986" lon="0.09859">
        <ele>1910</ele>
        <time>2013-06-05T06:20:10Z</time>
      </trkpt>
      <trkpt lat="42.75987" lon="0.09861">
        <ele>1910</ele>
        <time>2013-06-05T06:20:30Z</time>
      </trkpt>
      <trkpt lat="42.75988" lon="0.09861">
        <ele>1910</ele>
        <time>2013-06-05T06:20:48Z</time>
      </trkpt>
      <trkpt lat="42.75989" lon="0.0986">
        <ele>1910</ele>
        <time>2013-06-05T06:21:15Z</time>
      </trkpt>
      <trkpt lat="42.75986" lon="0.09862">
        <ele>1911</ele>
        <time>2013-06-05T06:21:40Z</time>
      </trkpt>
      <trkpt lat="42.75987" lon="0.0986">
        <ele>1911</ele>
        <time>2013-06-05T06:22:00Z</time>
      </trkpt>
      <trkpt lat="42.75987" lon="0.0986">
        <ele>1910</ele>
        <time>2013-06-05T06:22:19Z</time>
      </trkpt>
      <trkpt lat="42.75986" lon="0.09857">
        <ele>1910</ele>
        <time>2013-06-05T06:22:45Z</time>
      </trkpt>
      <trkpt lat="42.75985" lon="0.09861">
        <ele>1910</ele>
        <time>2013-06-05T06:23:12Z</time>
      </trkpt>
      <trkpt lat="42.75982" lon="0.09862">
        <ele>1911</ele>
        <time>2013-06-05T06:23:39Z</time>
      </trkpt>
      <trkpt lat="42.75981" lon="0.09859">
        <ele>1911</ele>
        <time>2013-06-05T06:24:03Z</time>
      </trkpt>
      <trkpt lat="42.75982" lon="0.09857">
        <ele>1912</ele>
        <time>2013-06-05T06:24:11Z</time>
      </trkpt>
      <trkpt lat="42.75983" lon="0.09856">
        <ele>1911</ele>
        <time>2013-06-05T06:24:23Z</time>
      </trkpt>
      <trkpt lat="42.75984" lon="0.09856">
        <ele>1911</ele>
        <time>2013-06-05T06:24:40Z</time>
      </trkpt>
      <trkpt lat="42.75986" lon="0.09857">
        <ele>1911</ele>
        <time>2013-06-05T06:24:51Z</time>
      </trkpt>
      <trkpt lat="42.75989" lon="0.09861">
        <ele>1911</ele>
        <time>2013-06-05T06:25:06Z</time>
      </trkpt>
      <trkpt lat="42.75987" lon="0.09859">
        <ele>1912</ele>
        <time>2013-06-05T06:25:15Z</time>
      </trkpt>
      <trkpt lat="42.75988" lon="0.0986">
        <ele>1912</ele>
        <time>2013-06-05T06:25:29Z</time>
      </trkpt>
      <trkpt lat="42.75989" lon="0.09862">
        <ele>1911</ele>
        <time>2013-06-05T06:25:46Z</time>
      </trkpt>
      <trkpt lat="42.75988" lon="0.0986">
        <ele>1911</ele>
        <time>2013-06-05T06:26:01Z</time>
      </trkpt>
      <trkpt lat="42.75987" lon="0.09857">
        <ele>1911</ele>
        <time>2013-06-05T06:26:14Z</time>
      </trkpt>
      <trkpt lat="42.75989" lon="0.09861">
        <ele>1911</ele>
        <time>2013-06-05T06:26:31Z</time>
      </trkpt>
      <trkpt lat="42.75988" lon="0.09863">
        <ele>1912</ele>
        <time>2013-06-05T06:26:51Z</time>
      </trkpt>
      <trkpt lat="42.75989" lon="0.09863">
        <ele>1912</ele>
        <time>2013-06-05T06:27:08Z</time>
      </trkpt>
      <trkpt lat="42.75989" lon="0.09863">
        <ele>1912</ele>
        <time>2013-06-05T06:27:20Z</time>
      </trkpt>
      <trkpt lat="42.75989" lon="0.09861">
        <ele>1912</ele>
        <time>2013-06-05T06:27:31Z</time>
      </trkpt>
      <trkpt lat="42.75987" lon="0.09861">
        <ele>1912</ele>
        <time>2013-06-05T06:27:38Z</time>
      </trkpt>
      <trkpt lat="42.75985" lon="0.09862">
        <ele>1911</ele>
        <time>2013-06-05T06:28:00Z</time>
      </trkpt>
      <trkpt lat="42.75985" lon="0.09863">
        <ele>1911</ele>
        <time>2013-06-05T06:28:15Z</time>
      </trkpt>
      <trkpt lat="42.75986" lon="0.09863">
        <ele>1910</ele>
        <time>2013-06-05T06:28:35Z</time>
      </trkpt>
      <trkpt lat="42.75985" lon="0.0986">
        <ele>1911</ele>
        <time>2013-06-05T06:28:48Z</time>
      </trkpt>
      <trkpt lat="42.75985" lon="0.0986">
        <ele>1911</ele>
        <time>2013-06-05T06:29:11Z</time>
      </trkpt>
      <trkpt lat="42.75984" lon="0.09861">
        <ele>1911</ele>
        <time>2013-06-05T06:29:24Z</time>
      </trkpt>
      <trkpt lat="42.75983" lon="0.09862">
        <ele>1911</ele>
        <time>2013-06-05T06:29:42Z</time>
      </trkpt>
      <trkpt lat="42.75985" lon="0.0986">
        <ele>1911</ele>
        <time>2013-06-05T06:30:07Z</time>
      </trkpt>
      <trkpt lat="42.75983" lon="0.0986">
        <ele>1911</ele>
        <time>2013-06-05T06:30:27Z</time>
      </trkpt>
      <trkpt lat="42.75985" lon="0.09861">
        <ele>1911</ele>
        <time>2013-06-05T06:30:51Z</time>
      </trkpt>
      <trkpt lat="42.75986" lon="0.0986">
        <ele>1911</ele>
        <time>2013-06-05T06:31:04Z</time>
      </trkpt>
      <trkpt lat="42.75986" lon="0.0986">
        <ele>1912</ele>
        <time>2013-06-05T06:31:20Z</time>
      </trkpt>
      <trkpt lat="42.75987" lon="0.0986">
        <ele>1911</ele>
        <time>2013-06-05T06:31:40Z</time>
      </trkpt>
      <trkpt lat="42.75987" lon="0.0986">
        <ele>1911</ele>
        <time>2013-06-05T06:31:56Z</time>
      </trkpt>
      <trkpt lat="42.75987" lon="0.09859">
        <ele>1911</ele>
        <time>2013-06-05T06:32:20Z</time>
      </trkpt>
      <trkpt lat="42.75988" lon="0.09859">
        <ele>1911</ele>
        <time>2013-06-05T06:32:50Z</time>
      </trkpt>
      <trkpt lat="42.75987" lon="0.09861">
        <ele>1911</ele>
        <time>2013-06-05T06:33:10Z</time>
      </trkpt>
      <trkpt lat="42.75985" lon="0.09863">
        <ele>1911</ele>
        <time>2013-06-05T06:33:34Z</time>
      </trkpt>
      <trkpt lat="42.75986" lon="0.09862">
        <ele>1911</ele>
        <time>2013-06-05T06:33:49Z</time>
      </trkpt>
      <trkpt lat="42.75987" lon="0.09859">
        <ele>1911</ele>
        <time>2013-06-05T06:34:11Z</time>
      </trkpt>
      <trkpt lat="42.75987" lon="0.09861">
        <ele>1911</ele>
        <time>2013-06-05T06:34:32Z</time>
      </trkpt>
      <trkpt lat="42.75987" lon="0.09862">
        <ele>1911</ele>
        <time>2013-06-05T06:34:51Z</time>
      </trkpt>
      <trkpt lat="42.75986" lon="0.09863">
        <ele>1911</ele>
        <time>2013-06-05T06:35:05Z</time>
      </trkpt>
      <trkpt lat="42.75987" lon="0.09863">
        <ele>1911</ele>
        <time>2013-06-05T06:35:27Z</time>
      </trkpt>
      <trkpt lat="42.75985" lon="0.09862">
        <ele>1911</ele>
        <time>2013-06-05T06:35:49Z</time>
      </trkpt>
      <trkpt lat="42.75984" lon="0.09863">
        <ele>1911</ele>
        <time>2013-06-05T06:36:07Z</time>
      </trkpt>
      <trkpt lat="42.75986" lon="0.09858">
        <ele>1911</ele>
        <time>2013-06-05T06:36:26Z</time>
      </trkpt>
      <trkpt lat="42.75986" lon="0.09859">
        <ele>1911</ele>
        <time>2013-06-05T06:36:46Z</time>
      </trkpt>
      <trkpt lat="42.75986" lon="0.0986">
        <ele>1912</ele>
        <time>2013-06-05T06:37:03Z</time>
      </trkpt>
      <trkpt lat="42.75986" lon="0.0986">
        <ele>1911</ele>
        <time>2013-06-05T06:37:21Z</time>
      </trkpt>
      <trkpt lat="42.75985" lon="0.09858">
        <ele>1911</ele>
        <time>2013-06-05T06:37:37Z</time>
      </trkpt>
      <trkpt lat="42.75986" lon="0.09859">
        <ele>1911</ele>
        <time>2013-06-05T06:37:52Z</time>
      </trkpt>
      <trkpt lat="42.75987" lon="0.0986">
        <ele>1911</ele>
        <time>2013-06-05T06:38:16Z</time>
      </trkpt>
      <trkpt lat="42.75986" lon="0.0986">
        <ele>1912</ele>
        <time>2013-06-05T06:38:31Z</time>
      </trkpt>
      <trkpt lat="42.75986" lon="0.0986">
        <ele>1912</ele>
        <time>2013-06-05T06:38:52Z</time>
      </trkpt>
      <trkpt lat="42.75986" lon="0.09861">
        <ele>1912</ele>
        <time>2013-06-05T06:39:05Z</time>
      </trkpt>
      <trkpt lat="42.75988" lon="0.0986">
        <ele>1911</ele>
        <time>2013-06-05T06:39:21Z</time>
      </trkpt>
      <trkpt lat="42.75986" lon="0.09862">
        <ele>1911</ele>
        <time>2013-06-05T06:39:44Z</time>
      </trkpt>
      <trkpt lat="42.75986" lon="0.0986">
        <ele>1911</ele>
        <time>2013-06-05T06:39:57Z</time>
      </trkpt>
      <trkpt lat="42.75987" lon="0.09862">
        <ele>1911</ele>
        <time>2013-06-05T06:40:09Z</time>
      </trkpt>
      <trkpt lat="42.75987" lon="0.09863">
        <ele>1912</ele>
        <time>2013-06-05T06:40:23Z</time>
      </trkpt>
      <trkpt lat="42.75986" lon="0.0986">
        <ele>1911</ele>
        <time>2013-06-05T06:40:38Z</time>
      </trkpt>
      <trkpt lat="42.75987" lon="0.09861">
        <ele>1912</ele>
        <time>2013-06-05T06:40:55Z</time>
      </trkpt>
      <trkpt lat="42.75988" lon="0.09862">
        <ele>1912</ele>
        <time>2013-06-05T06:41:02Z</time>
      </trkpt>
      <trkpt lat="42.75988" lon="0.09862">
        <ele>1912</ele>
        <time>2013-06-05T06:41:08Z</time>
      </trkpt>
      <trkpt lat="42.75989" lon="0.09863">
        <ele>1912</ele>
        <time>2013-06-05T06:41:22Z</time>
      </trkpt>
      <trkpt lat="42.75992" lon="0.09863">
        <ele>1911</ele>
        <time>2013-06-05T06:41:30Z</time>
      </trkpt>
      <trkpt lat="42.75991" lon="0.09862">
        <ele>1912</ele>
        <time>2013-06-05T06:41:42Z</time>
      </trkpt>
      <trkpt lat="42.7599" lon="0.09861">
        <ele>1911</ele>
        <time>2013-06-05T06:41:50Z</time>
      </trkpt>
      <trkpt lat="42.7599" lon="0.09861">
        <ele>1913</ele>
        <time>2013-06-05T06:41:52Z</time>
      </trkpt>
      <trkpt lat="42.75989" lon="0.09862">
        <ele>1913</ele>
        <time>2013-06-05T06:42:07Z</time>
      </trkpt>
      <trkpt lat="42.75991" lon="0.09861">
        <ele>1913</ele>
        <time>2013-06-05T06:42:18Z</time>
      </trkpt>
      <trkpt lat="42.75991" lon="0.09861">
        <ele>1911</ele>
        <time>2013-06-05T06:42:27Z</time>
      </trkpt>
      <trkpt lat="42.7599" lon="0.09861">
        <ele>1915</ele>
        <time>2013-06-05T06:42:29Z</time>
      </trkpt>
      <trkpt lat="42.7599" lon="0.09861">
        <ele>1911</ele>
        <time>2013-06-05T06:42:30Z</time>
      </trkpt>
      <trkpt lat="42.7599" lon="0.09861">
        <ele>1916</ele>
        <time>2013-06-05T06:42:32Z</time>
      </trkpt>
      <trkpt lat="42.75989" lon="0.09864">
        <ele>1912</ele>
        <time>2013-06-05T06:42:36Z</time>
      </trkpt>
      <trkpt lat="42.75988" lon="0.09864">
        <ele>1914</ele>
        <time>2013-06-05T06:42:39Z</time>
      </trkpt>
      <trkpt lat="42.75988" lon="0.09862">
        <ele>1913</ele>
        <time>2013-06-05T06:42:46Z</time>
      </trkpt>
      <trkpt lat="42.7599" lon="0.09865">
        <ele>1913</ele>
        <time>2013-06-05T06:42:52Z</time>
      </trkpt>
      <trkpt lat="42.75993" lon="0.09871">
        <ele>1915</ele>
        <time>2013-06-05T06:43:01Z</time>
      </trkpt>
      <trkpt lat="42.75993" lon="0.09885">
        <ele>1916</ele>
        <time>2013-06-05T06:43:13Z</time>
      </trkpt>
      <trkpt lat="42.75994" lon="0.09888">
        <ele>1916</ele>
        <time>2013-06-05T06:43:16Z</time>
      </trkpt>
      <trkpt lat="42.75993" lon="0.09896">
        <ele>1917</ele>
        <time>2013-06-05T06:43:22Z</time>
      </trkpt>
      <trkpt lat="42.75991" lon="0.09902">
        <ele>1917</ele>
        <time>2013-06-05T06:43:28Z</time>
      </trkpt>
      <trkpt lat="42.75987" lon="0.09907">
        <ele>1917</ele>
        <time>2013-06-05T06:43:34Z</time>
      </trkpt>
      <trkpt lat="42.75984" lon="0.09914">
        <ele>1918</ele>
        <time>2013-06-05T06:43:41Z</time>
      </trkpt>
      <trkpt lat="42.75982" lon="0.09918">
        <ele>1919</ele>
        <time>2013-06-05T06:43:47Z</time>
      </trkpt>
      <trkpt lat="42.75982" lon="0.09918">
        <ele>1919</ele>
        <time>2013-06-05T06:43:57Z</time>
      </trkpt>
      <trkpt lat="42.75979" lon="0.09922">
        <ele>1920</ele>
        <time>2013-06-05T06:44:02Z</time>
      </trkpt>
      <trkpt lat="42.75978" lon="0.09928">
        <ele>1921</ele>
        <time>2013-06-05T06:44:08Z</time>
      </trkpt>
      <trkpt lat="42.75975" lon="0.09933">
        <ele>1922</ele>
        <time>2013-06-05T06:44:16Z</time>
      </trkpt>
      <trkpt lat="42.75974" lon="0.09938">
        <ele>1923</ele>
        <time>2013-06-05T06:44:23Z</time>
      </trkpt>
      <trkpt lat="42.75972" lon="0.09944">
        <ele>1925</ele>
        <time>2013-06-05T06:44:31Z</time>
      </trkpt>
      <trkpt lat="42.75971" lon="0.09949">
        <ele>1926</ele>
        <time>2013-06-05T06:44:37Z</time>
      </trkpt>
      <trkpt lat="42.75969" lon="0.09952">
        <ele>1927</ele>
        <time>2013-06-05T06:44:45Z</time>
      </trkpt>
      <trkpt lat="42.75967" lon="0.09955">
        <ele>1928</ele>
        <time>2013-06-05T06:44:52Z</time>
      </trkpt>
      <trkpt lat="42.75966" lon="0.09954">
        <ele>1928</ele>
        <time>2013-06-05T06:44:58Z</time>
      </trkpt>
      <trkpt lat="42.75965" lon="0.09953">
        <ele>1929</ele>
        <time>2013-06-05T06:44:59Z</time>
      </trkpt>
      <trkpt lat="42.75961" lon="0.09948">
        <ele>1930</ele>
        <time>2013-06-05T06:45:07Z</time>
      </trkpt>
      <trkpt lat="42.75958" lon="0.09946">
        <ele>1931</ele>
        <time>2013-06-05T06:45:12Z</time>
      </trkpt>
      <trkpt lat="42.75952" lon="0.09946">
        <ele>1933</ele>
        <time>2013-06-05T06:45:20Z</time>
      </trkpt>
      <trkpt lat="42.75949" lon="0.09956">
        <ele>1937</ele>
        <time>2013-06-05T06:45:28Z</time>
      </trkpt>
      <trkpt lat="42.75945" lon="0.09966">
        <ele>1935</ele>
        <time>2013-06-05T06:45:36Z</time>
      </trkpt>
      <trkpt lat="42.75945" lon="0.09971">
        <ele>1936</ele>
        <time>2013-06-05T06:45:44Z</time>
      </trkpt>
      <trkpt lat="42.75944" lon="0.09977">
        <ele>1937</ele>
        <time>2013-06-05T06:45:54Z</time>
      </trkpt>
      <trkpt lat="42.75941" lon="0.09986">
        <ele>1939</ele>
        <time>2013-06-05T06:46:02Z</time>
      </trkpt>
      <trkpt lat="42.75936" lon="0.10001">
        <ele>1941</ele>
        <time>2013-06-05T06:46:13Z</time>
      </trkpt>
      <trkpt lat="42.7593" lon="0.10016">
        <ele>1943</ele>
        <time>2013-06-05T06:46:24Z</time>
      </trkpt>
      <trkpt lat="42.75927" lon="0.10023">
        <ele>1945</ele>
        <time>2013-06-05T06:46:34Z</time>
      </trkpt>
      <trkpt lat="42.7593" lon="0.10021">
        <ele>1948</ele>
        <time>2013-06-05T06:46:48Z</time>
      </trkpt>
      <trkpt lat="42.75926" lon="0.10019">
        <ele>1949</ele>
        <time>2013-06-05T06:46:58Z</time>
      </trkpt>
      <trkpt lat="42.75925" lon="0.10015">
        <ele>1950</ele>
        <time>2013-06-05T06:47:07Z</time>
      </trkpt>
      <trkpt lat="42.75927" lon="0.10015">
        <ele>1951</ele>
        <time>2013-06-05T06:47:19Z</time>
      </trkpt>
      <trkpt lat="42.75923" lon="0.10016">
        <ele>1951</ele>
        <time>2013-06-05T06:47:29Z</time>
      </trkpt>
      <trkpt lat="42.75917" lon="0.10021">
        <ele>1954</ele>
        <time>2013-06-05T06:47:39Z</time>
      </trkpt>
      <trkpt lat="42.75918" lon="0.10026">
        <ele>1954</ele>
        <time>2013-06-05T06:47:43Z</time>
      </trkpt>
      <trkpt lat="42.75916" lon="0.10041">
        <ele>1957</ele>
        <time>2013-06-05T06:47:55Z</time>
      </trkpt>
      <trkpt lat="42.75914" lon="0.10056">
        <ele>1958</ele>
        <time>2013-06-05T06:48:06Z</time>
      </trkpt>
      <trkpt lat="42.75909" lon="0.10066">
        <ele>1960</ele>
        <time>2013-06-05T06:48:18Z</time>
      </trkpt>
      <trkpt lat="42.7591" lon="0.10062">
        <ele>1961</ele>
        <time>2013-06-05T06:48:27Z</time>
      </trkpt>
      <trkpt lat="42.75908" lon="0.10057">
        <ele>1961</ele>
        <time>2013-06-05T06:48:39Z</time>
      </trkpt>
      <trkpt lat="42.75904" lon="0.10056">
        <ele>1962</ele>
        <time>2013-06-05T06:48:47Z</time>
      </trkpt>
      <trkpt lat="42.75903" lon="0.1006">
        <ele>1962</ele>
        <time>2013-06-05T06:48:53Z</time>
      </trkpt>
      <trkpt lat="42.75896" lon="0.10069">
        <ele>1961</ele>
        <time>2013-06-05T06:49:03Z</time>
      </trkpt>
      <trkpt lat="42.75899" lon="0.10074">
        <ele>1961</ele>
        <time>2013-06-05T06:49:10Z</time>
      </trkpt>
      <trkpt lat="42.75906" lon="0.10075">
        <ele>1961</ele>
        <time>2013-06-05T06:49:17Z</time>
      </trkpt>
      <trkpt lat="42.75906" lon="0.10082">
        <ele>1961</ele>
        <time>2013-06-05T06:49:24Z</time>
      </trkpt>
      <trkpt lat="42.7591" lon="0.10076">
        <ele>1961</ele>
        <time>2013-06-05T06:49:36Z</time>
      </trkpt>
      <trkpt lat="42.75913" lon="0.10075">
        <ele>1961</ele>
        <time>2013-06-05T06:49:49Z</time>
      </trkpt>
      <trkpt lat="42.75912" lon="0.10079">
        <ele>1961</ele>
        <time>2013-06-05T06:49:59Z</time>
      </trkpt>
      <trkpt lat="42.75909" lon="0.10091">
        <ele>1961</ele>
        <time>2013-06-05T06:50:07Z</time>
      </trkpt>
      <trkpt lat="42.75909" lon="0.10099">
        <ele>1961</ele>
        <time>2013-06-05T06:50:14Z</time>
      </trkpt>
      <trkpt lat="42.75907" lon="0.10105">
        <ele>1961</ele>
        <time>2013-06-05T06:50:20Z</time>
      </trkpt>
      <trkpt lat="42.75908" lon="0.10113">
        <ele>1964</ele>
        <time>2013-06-05T06:50:26Z</time>
      </trkpt>
      <trkpt lat="42.75906" lon="0.10117">
        <ele>1963</ele>
        <time>2013-06-05T06:50:34Z</time>
      </trkpt>
      <trkpt lat="42.75906" lon="0.10113">
        <ele>1962</ele>
        <time>2013-06-05T06:50:46Z</time>
      </trkpt>
      <trkpt lat="42.75909" lon="0.10109">
        <ele>1962</ele>
        <time>2013-06-05T06:50:58Z</time>
      </trkpt>
      <trkpt lat="42.75911" lon="0.10109">
        <ele>1962</ele>
        <time>2013-06-05T06:51:09Z</time>
      </trkpt>
      <trkpt lat="42.7591" lon="0.10112">
        <ele>1962</ele>
        <time>2013-06-05T06:51:20Z</time>
      </trkpt>
      <trkpt lat="42.75911" lon="0.10112">
        <ele>1962</ele>
        <time>2013-06-05T06:51:31Z</time>
      </trkpt>
      <trkpt lat="42.75914" lon="0.10111">
        <ele>1962</ele>
        <time>2013-06-05T06:51:38Z</time>
      </trkpt>
      <trkpt lat="42.75913" lon="0.10115">
        <ele>1963</ele>
        <time>2013-06-05T06:51:45Z</time>
      </trkpt>
      <trkpt lat="42.75912" lon="0.10117">
        <ele>1963</ele>
        <time>2013-06-05T06:51:55Z</time>
      </trkpt>
      <trkpt lat="42.75907" lon="0.10118">
        <ele>1963</ele>
        <time>2013-06-05T06:52:16Z</time>
      </trkpt>
      <trkpt lat="42.75907" lon="0.1012">
        <ele>1963</ele>
        <time>2013-06-05T06:52:37Z</time>
      </trkpt>
      <trkpt lat="42.75907" lon="0.10116">
        <ele>1962</ele>
        <time>2013-06-05T06:52:59Z</time>
      </trkpt>
      <trkpt lat="42.75908" lon="0.10116">
        <ele>1964</ele>
        <time>2013-06-05T06:53:00Z</time>
      </trkpt>
      <trkpt lat="42.75913" lon="0.10111">
        <ele>1964</ele>
        <time>2013-06-05T06:53:06Z</time>
      </trkpt>
      <trkpt lat="42.75921" lon="0.10114">
        <ele>1964</ele>
        <time>2013-06-05T06:53:12Z</time>
      </trkpt>
      <trkpt lat="42.75927" lon="0.10121">
        <ele>1965</ele>
        <time>2013-06-05T06:53:20Z</time>
      </trkpt>
      <trkpt lat="42.75934" lon="0.10127">
        <ele>1966</ele>
        <time>2013-06-05T06:53:29Z</time>
      </trkpt>
      <trkpt lat="42.7594" lon="0.1014">
        <ele>1966</ele>
        <time>2013-06-05T06:53:38Z</time>
      </trkpt>
      <trkpt lat="42.75942" lon="0.10148">
        <ele>1966</ele>
        <time>2013-06-05T06:53:47Z</time>
      </trkpt>
      <trkpt lat="42.75945" lon="0.10154">
        <ele>1966</ele>
        <time>2013-06-05T06:53:55Z</time>
      </trkpt>
      <trkpt lat="42.75949" lon="0.10157">
        <ele>1965</ele>
        <time>2013-06-05T06:54:05Z</time>
      </trkpt>
      <trkpt lat="42.75951" lon="0.10155">
        <ele>1964</ele>
        <time>2013-06-05T06:54:13Z</time>
      </trkpt>
      <trkpt lat="42.75958" lon="0.10157">
        <ele>1965</ele>
        <time>2013-06-05T06:54:20Z</time>
      </trkpt>
      <trkpt lat="42.75963" lon="0.10157">
        <ele>1965</ele>
        <time>2013-06-05T06:54:26Z</time>
      </trkpt>
      <trkpt lat="42.75972" lon="0.10156">
        <ele>1966</ele>
        <time>2013-06-05T06:54:35Z</time>
      </trkpt>
      <trkpt lat="42.75978" lon="0.10153">
        <ele>1968</ele>
        <time>2013-06-05T06:54:43Z</time>
      </trkpt>
      <trkpt lat="42.75983" lon="0.1015">
        <ele>1968</ele>
        <time>2013-06-05T06:54:47Z</time>
      </trkpt>
      <trkpt lat="42.75989" lon="0.10151">
        <ele>1968</ele>
        <time>2013-06-05T06:54:53Z</time>
      </trkpt>
      <trkpt lat="42.75991" lon="0.1015">
        <ele>1969</ele>
        <time>2013-06-05T06:54:55Z</time>
      </trkpt>
      <trkpt lat="42.75992" lon="0.10149">
        <ele>1969</ele>
        <time>2013-06-05T06:54:57Z</time>
      </trkpt>
      <trkpt lat="42.76" lon="0.10149">
        <ele>1970</ele>
        <time>2013-06-05T06:55:04Z</time>
      </trkpt>
      <trkpt lat="42.76004" lon="0.10149">
        <ele>1970</ele>
        <time>2013-06-05T06:55:07Z</time>
      </trkpt>
      <trkpt lat="42.76005" lon="0.10148">
        <ele>1970</ele>
        <time>2013-06-05T06:55:09Z</time>
      </trkpt>
      <trkpt lat="42.76013" lon="0.10146">
        <ele>1972</ele>
        <time>2013-06-05T06:55:18Z</time>
      </trkpt>
      <trkpt lat="42.76018" lon="0.10148">
        <ele>1973</ele>
        <time>2013-06-05T06:55:24Z</time>
      </trkpt>
      <trkpt lat="42.76025" lon="0.10149">
        <ele>1974</ele>
        <time>2013-06-05T06:55:31Z</time>
      </trkpt>
      <trkpt lat="42.7603" lon="0.1015">
        <ele>1974</ele>
        <time>2013-06-05T06:55:38Z</time>
      </trkpt>
      <trkpt lat="42.76035" lon="0.10151">
        <ele>1976</ele>
        <time>2013-06-05T06:55:46Z</time>
      </trkpt>
      <trkpt lat="42.76037" lon="0.10147">
        <ele>1977</ele>
        <time>2013-06-05T06:55:53Z</time>
      </trkpt>
      <trkpt lat="42.7604" lon="0.10147">
        <ele>1978</ele>
        <time>2013-06-05T06:56:01Z</time>
      </trkpt>
      <trkpt lat="42.76043" lon="0.1015">
        <ele>1979</ele>
        <time>2013-06-05T06:56:07Z</time>
      </trkpt>
      <trkpt lat="42.76042" lon="0.10152">
        <ele>1979</ele>
        <time>2013-06-05T06:56:16Z</time>
      </trkpt>
      <trkpt lat="42.76043" lon="0.10156">
        <ele>1979</ele>
        <time>2013-06-05T06:56:22Z</time>
      </trkpt>
      <trkpt lat="42.76043" lon="0.10158">
        <ele>1978</ele>
        <time>2013-06-05T06:56:25Z</time>
      </trkpt>
      <trkpt lat="42.76043" lon="0.10159">
        <ele>1980</ele>
        <time>2013-06-05T06:56:27Z</time>
      </trkpt>
      <trkpt lat="42.76039" lon="0.1016">
        <ele>1981</ele>
        <time>2013-06-05T06:56:35Z</time>
      </trkpt>
      <trkpt lat="42.76038" lon="0.10163">
        <ele>1982</ele>
        <time>2013-06-05T06:56:41Z</time>
      </trkpt>
      <trkpt lat="42.76036" lon="0.10165">
        <ele>1983</ele>
        <time>2013-06-05T06:56:48Z</time>
      </trkpt>
      <trkpt lat="42.76035" lon="0.10168">
        <ele>1984</ele>
        <time>2013-06-05T06:56:55Z</time>
      </trkpt>
      <trkpt lat="42.76033" lon="0.10166">
        <ele>1985</ele>
        <time>2013-06-05T06:57:08Z</time>
      </trkpt>
      <trkpt lat="42.76034" lon="0.10166">
        <ele>1987</ele>
        <time>2013-06-05T06:57:14Z</time>
      </trkpt>
      <trkpt lat="42.76032" lon="0.10167">
        <ele>1987</ele>
        <time>2013-06-05T06:57:21Z</time>
      </trkpt>
      <trkpt lat="42.76032" lon="0.10168">
        <ele>1988</ele>
        <time>2013-06-05T06:57:28Z</time>
      </trkpt>
      <trkpt lat="42.76033" lon="0.10169">
        <ele>1989</ele>
        <time>2013-06-05T06:57:35Z</time>
      </trkpt>
      <trkpt lat="42.76032" lon="0.10174">
        <ele>1989</ele>
        <time>2013-06-05T06:57:40Z</time>
      </trkpt>
      <trkpt lat="42.76029" lon="0.10182">
        <ele>1989</ele>
        <time>2013-06-05T06:57:47Z</time>
      </trkpt>
      <trkpt lat="42.76029" lon="0.10185">
        <ele>1990</ele>
        <time>2013-06-05T06:57:54Z</time>
      </trkpt>
      <trkpt lat="42.76028" lon="0.10187">
        <ele>1991</ele>
        <time>2013-06-05T06:58:03Z</time>
      </trkpt>
      <trkpt lat="42.76027" lon="0.10193">
        <ele>1992</ele>
        <time>2013-06-05T06:58:12Z</time>
      </trkpt>
      <trkpt lat="42.76027" lon="0.102">
        <ele>1993</ele>
        <time>2013-06-05T06:58:19Z</time>
      </trkpt>
      <trkpt lat="42.76027" lon="0.10206">
        <ele>1994</ele>
        <time>2013-06-05T06:58:27Z</time>
      </trkpt>
      <trkpt lat="42.76028" lon="0.10209">
        <ele>1996</ele>
        <time>2013-06-05T06:58:36Z</time>
      </trkpt>
      <trkpt lat="42.76029" lon="0.10215">
        <ele>1997</ele>
        <time>2013-06-05T06:58:43Z</time>
      </trkpt>
      <trkpt lat="42.7603" lon="0.10217">
        <ele>1998</ele>
        <time>2013-06-05T06:58:51Z</time>
      </trkpt>
      <trkpt lat="42.76032" lon="0.10219">
        <ele>2000</ele>
        <time>2013-06-05T06:58:59Z</time>
      </trkpt>
      <trkpt lat="42.7603" lon="0.10222">
        <ele>1999</ele>
        <time>2013-06-05T06:59:08Z</time>
      </trkpt>
      <trkpt lat="42.76031" lon="0.10225">
        <ele>2000</ele>
        <time>2013-06-05T06:59:16Z</time>
      </trkpt>
      <trkpt lat="42.76029" lon="0.10235">
        <ele>2001</ele>
        <time>2013-06-05T06:59:25Z</time>
      </trkpt>
      <trkpt lat="42.76026" lon="0.10239">
        <ele>2004</ele>
        <time>2013-06-05T06:59:32Z</time>
      </trkpt>
      <trkpt lat="42.76026" lon="0.10241">
        <ele>2004</ele>
        <time>2013-06-05T06:59:34Z</time>
      </trkpt>
      <trkpt lat="42.76024" lon="0.10247">
        <ele>2005</ele>
        <time>2013-06-05T06:59:42Z</time>
      </trkpt>
      <trkpt lat="42.76021" lon="0.10248">
        <ele>2006</ele>
        <time>2013-06-05T06:59:49Z</time>
      </trkpt>
      <trkpt lat="42.76023" lon="0.10244">
        <ele>2007</ele>
        <time>2013-06-05T06:59:56Z</time>
      </trkpt>
      <trkpt lat="42.76023" lon="0.10242">
        <ele>2008</ele>
        <time>2013-06-05T07:00:04Z</time>
      </trkpt>
      <trkpt lat="42.76024" lon="0.10234">
        <ele>2010</ele>
        <time>2013-06-05T07:00:13Z</time>
      </trkpt>
      <trkpt lat="42.76022" lon="0.10236">
        <ele>2012</ele>
        <time>2013-06-05T07:00:20Z</time>
      </trkpt>
      <trkpt lat="42.7602" lon="0.10232">
        <ele>2013</ele>
        <time>2013-06-05T07:00:29Z</time>
      </trkpt>
      <trkpt lat="42.76018" lon="0.10231">
        <ele>2015</ele>
        <time>2013-06-05T07:00:35Z</time>
      </trkpt>
      <trkpt lat="42.76016" lon="0.1023">
        <ele>2016</ele>
        <time>2013-06-05T07:00:42Z</time>
      </trkpt>
      <trkpt lat="42.76016" lon="0.10227">
        <ele>2015</ele>
        <time>2013-06-05T07:00:49Z</time>
      </trkpt>
      <trkpt lat="42.76015" lon="0.1023">
        <ele>2016</ele>
        <time>2013-06-05T07:00:58Z</time>
      </trkpt>
      <trkpt lat="42.76011" lon="0.10229">
        <ele>2016</ele>
        <time>2013-06-05T07:01:06Z</time>
      </trkpt>
      <trkpt lat="42.76008" lon="0.10231">
        <ele>2017</ele>
        <time>2013-06-05T07:01:15Z</time>
      </trkpt>
      <trkpt lat="42.76005" lon="0.10231">
        <ele>2018</ele>
        <time>2013-06-05T07:01:22Z</time>
      </trkpt>
      <trkpt lat="42.76002" lon="0.1023">
        <ele>2020</ele>
        <time>2013-06-05T07:01:26Z</time>
      </trkpt>
      <trkpt lat="42.76" lon="0.1023">
        <ele>2020</ele>
        <time>2013-06-05T07:01:34Z</time>
      </trkpt>
      <trkpt lat="42.75998" lon="0.1023">
        <ele>2020</ele>
        <time>2013-06-05T07:01:41Z</time>
      </trkpt>
      <trkpt lat="42.75996" lon="0.1023">
        <ele>2020</ele>
        <time>2013-06-05T07:01:55Z</time>
      </trkpt>
      <trkpt lat="42.75996" lon="0.10232">
        <ele>2020</ele>
        <time>2013-06-05T07:02:10Z</time>
      </trkpt>
      <trkpt lat="42.75993" lon="0.10235">
        <ele>2021</ele>
        <time>2013-06-05T07:02:18Z</time>
      </trkpt>
      <trkpt lat="42.75994" lon="0.10235">
        <ele>2020</ele>
        <time>2013-06-05T07:02:28Z</time>
      </trkpt>
      <trkpt lat="42.75996" lon="0.10237">
        <ele>2022</ele>
        <time>2013-06-05T07:02:36Z</time>
      </trkpt>
      <trkpt lat="42.75994" lon="0.10237">
        <ele>2022</ele>
        <time>2013-06-05T07:02:51Z</time>
      </trkpt>
      <trkpt lat="42.75991" lon="0.10236">
        <ele>2023</ele>
        <time>2013-06-05T07:03:01Z</time>
      </trkpt>
      <trkpt lat="42.75988" lon="0.10239">
        <ele>2024</ele>
        <time>2013-06-05T07:03:09Z</time>
      </trkpt>
      <trkpt lat="42.75989" lon="0.10243">
        <ele>2024</ele>
        <time>2013-06-05T07:03:20Z</time>
      </trkpt>
      <trkpt lat="42.75984" lon="0.10245">
        <ele>2025</ele>
        <time>2013-06-05T07:03:27Z</time>
      </trkpt>
      <trkpt lat="42.75984" lon="0.10245">
        <ele>2024</ele>
        <time>2013-06-05T07:03:36Z</time>
      </trkpt>
      <trkpt lat="42.75984" lon="0.10243">
        <ele>2024</ele>
        <time>2013-06-05T07:03:47Z</time>
      </trkpt>
      <trkpt lat="42.75983" lon="0.10241">
        <ele>2024</ele>
        <time>2013-06-05T07:03:56Z</time>
      </trkpt>
      <trkpt lat="42.75985" lon="0.10242">
        <ele>2024</ele>
        <time>2013-06-05T07:04:04Z</time>
      </trkpt>
      <trkpt lat="42.75985" lon="0.10242">
        <ele>2025</ele>
        <time>2013-06-05T07:04:11Z</time>
      </trkpt>
      <trkpt lat="42.75986" lon="0.10239">
        <ele>2024</ele>
        <time>2013-06-05T07:04:17Z</time>
      </trkpt>
      <trkpt lat="42.75986" lon="0.10238">
        <ele>2022</ele>
        <time>2013-06-05T07:04:26Z</time>
      </trkpt>
      <trkpt lat="42.75984" lon="0.10236">
        <ele>2023</ele>
        <time>2013-06-05T07:04:33Z</time>
      </trkpt>
      <trkpt lat="42.75984" lon="0.10236">
        <ele>2024</ele>
        <time>2013-06-05T07:04:38Z</time>
      </trkpt>
      <trkpt lat="42.75984" lon="0.10235">
        <ele>2024</ele>
        <time>2013-06-05T07:04:44Z</time>
      </trkpt>
      <trkpt lat="42.75985" lon="0.10235">
        <ele>2024</ele>
        <time>2013-06-05T07:04:50Z</time>
      </trkpt>
      <trkpt lat="42.75985" lon="0.10236">
        <ele>2023</ele>
        <time>2013-06-05T07:04:59Z</time>
      </trkpt>
      <trkpt lat="42.75985" lon="0.10235">
        <ele>2024</ele>
        <time>2013-06-05T07:05:06Z</time>
      </trkpt>
      <trkpt lat="42.75986" lon="0.10238">
        <ele>2025</ele>
        <time>2013-06-05T07:05:15Z</time>
      </trkpt>
      <trkpt lat="42.75984" lon="0.10239">
        <ele>2024</ele>
        <time>2013-06-05T07:05:22Z</time>
      </trkpt>
      <trkpt lat="42.75984" lon="0.1024">
        <ele>2024</ele>
        <time>2013-06-05T07:05:28Z</time>
      </trkpt>
      <trkpt lat="42.75983" lon="0.10237">
        <ele>2025</ele>
        <time>2013-06-05T07:05:39Z</time>
      </trkpt>
      <trkpt lat="42.75984" lon="0.10236">
        <ele>2025</ele>
        <time>2013-06-05T07:05:46Z</time>
      </trkpt>
      <trkpt lat="42.75984" lon="0.10238">
        <ele>2024</ele>
        <time>2013-06-05T07:05:57Z</time>
      </trkpt>
      <trkpt lat="42.75986" lon="0.10237">
        <ele>2024</ele>
        <time>2013-06-05T07:06:09Z</time>
      </trkpt>
      <trkpt lat="42.75985" lon="0.10237">
        <ele>2025</ele>
        <time>2013-06-05T07:06:17Z</time>
      </trkpt>
      <trkpt lat="42.75986" lon="0.10238">
        <ele>2024</ele>
        <time>2013-06-05T07:06:24Z</time>
      </trkpt>
      <trkpt lat="42.75987" lon="0.1024">
        <ele>2025</ele>
        <time>2013-06-05T07:06:36Z</time>
      </trkpt>
      <trkpt lat="42.7599" lon="0.1024">
        <ele>2025</ele>
        <time>2013-06-05T07:06:47Z</time>
      </trkpt>
      <trkpt lat="42.75988" lon="0.10238">
        <ele>2025</ele>
        <time>2013-06-05T07:06:57Z</time>
      </trkpt>
      <trkpt lat="42.75983" lon="0.10243">
        <ele>2025</ele>
        <time>2013-06-05T07:07:06Z</time>
      </trkpt>
      <trkpt lat="42.75984" lon="0.10244">
        <ele>2025</ele>
        <time>2013-06-05T07:07:09Z</time>
      </trkpt>
      <trkpt lat="42.75981" lon="0.10246">
        <ele>2025</ele>
        <time>2013-06-05T07:07:17Z</time>
      </trkpt>
      <trkpt lat="42.75981" lon="0.10244">
        <ele>2025</ele>
        <time>2013-06-05T07:07:32Z</time>
      </trkpt>
      <trkpt lat="42.75979" lon="0.10251">
        <ele>2025</ele>
        <time>2013-06-05T07:07:39Z</time>
      </trkpt>
      <trkpt lat="42.75974" lon="0.10256">
        <ele>2027</ele>
        <time>2013-06-05T07:07:46Z</time>
      </trkpt>
      <trkpt lat="42.75971" lon="0.10261">
        <ele>2028</ele>
        <time>2013-06-05T07:07:54Z</time>
      </trkpt>
      <trkpt lat="42.75966" lon="0.10263">
        <ele>2029</ele>
        <time>2013-06-05T07:08:01Z</time>
      </trkpt>
      <trkpt lat="42.75962" lon="0.10264">
        <ele>2029</ele>
        <time>2013-06-05T07:08:08Z</time>
      </trkpt>
      <trkpt lat="42.75961" lon="0.10266">
        <ele>2030</ele>
        <time>2013-06-05T07:08:10Z</time>
      </trkpt>
      <trkpt lat="42.75959" lon="0.10268">
        <ele>2031</ele>
        <time>2013-06-05T07:08:14Z</time>
      </trkpt>
      <trkpt lat="42.75955" lon="0.10272">
        <ele>2033</ele>
        <time>2013-06-05T07:08:21Z</time>
      </trkpt>
      <trkpt lat="42.7595" lon="0.10276">
        <ele>2034</ele>
        <time>2013-06-05T07:08:28Z</time>
      </trkpt>
      <trkpt lat="42.75946" lon="0.1028">
        <ele>2035</ele>
        <time>2013-06-05T07:08:36Z</time>
      </trkpt>
      <trkpt lat="42.75943" lon="0.10285">
        <ele>2037</ele>
        <time>2013-06-05T07:08:44Z</time>
      </trkpt>
      <trkpt lat="42.75938" lon="0.10291">
        <ele>2039</ele>
        <time>2013-06-05T07:08:53Z</time>
      </trkpt>
      <trkpt lat="42.75935" lon="0.10295">
        <ele>2039</ele>
        <time>2013-06-05T07:09:02Z</time>
      </trkpt>
      <trkpt lat="42.75932" lon="0.10299">
        <ele>2040</ele>
        <time>2013-06-05T07:09:12Z</time>
      </trkpt>
      <trkpt lat="42.75928" lon="0.10305">
        <ele>2041</ele>
        <time>2013-06-05T07:09:19Z</time>
      </trkpt>
      <trkpt lat="42.75927" lon="0.10309">
        <ele>2042</ele>
        <time>2013-06-05T07:09:25Z</time>
      </trkpt>
      <trkpt lat="42.75926" lon="0.10311">
        <ele>2042</ele>
        <time>2013-06-05T07:09:33Z</time>
      </trkpt>
      <trkpt lat="42.75927" lon="0.10316">
        <ele>2042</ele>
        <time>2013-06-05T07:09:42Z</time>
      </trkpt>
      <trkpt lat="42.75926" lon="0.10324">
        <ele>2043</ele>
        <time>2013-06-05T07:09:48Z</time>
      </trkpt>
      <trkpt lat="42.75924" lon="0.10335">
        <ele>2043</ele>
        <time>2013-06-05T07:09:56Z</time>
      </trkpt>
      <trkpt lat="42.75924" lon="0.1034">
        <ele>2045</ele>
        <time>2013-06-05T07:10:02Z</time>
      </trkpt>
      <trkpt lat="42.7592" lon="0.1035">
        <ele>2046</ele>
        <time>2013-06-05T07:10:11Z</time>
      </trkpt>
      <trkpt lat="42.75919" lon="0.1035">
        <ele>2046</ele>
        <time>2013-06-05T07:10:12Z</time>
      </trkpt>
      <trkpt lat="42.75914" lon="0.10359">
        <ele>2047</ele>
        <time>2013-06-05T07:10:20Z</time>
      </trkpt>
      <trkpt lat="42.75914" lon="0.10361">
        <ele>2048</ele>
        <time>2013-06-05T07:10:27Z</time>
      </trkpt>
      <trkpt lat="42.75911" lon="0.10366">
        <ele>2049</ele>
        <time>2013-06-05T07:10:34Z</time>
      </trkpt>
      <trkpt lat="42.7591" lon="0.10367">
        <ele>2049</ele>
        <time>2013-06-05T07:10:40Z</time>
      </trkpt>
      <trkpt lat="42.75908" lon="0.10372">
        <ele>2051</ele>
        <time>2013-06-05T07:10:47Z</time>
      </trkpt>
      <trkpt lat="42.75905" lon="0.10381">
        <ele>2052</ele>
        <time>2013-06-05T07:10:56Z</time>
      </trkpt>
      <trkpt lat="42.75904" lon="0.10387">
        <ele>2053</ele>
        <time>2013-06-05T07:11:03Z</time>
      </trkpt>
      <trkpt lat="42.75903" lon="0.10394">
        <ele>2054</ele>
        <time>2013-06-05T07:11:10Z</time>
      </trkpt>
      <trkpt lat="42.759" lon="0.10401">
        <ele>2054</ele>
        <time>2013-06-05T07:11:18Z</time>
      </trkpt>
      <trkpt lat="42.759" lon="0.10401">
        <ele>2055</ele>
        <time>2013-06-05T07:11:19Z</time>
      </trkpt>
      <trkpt lat="42.75898" lon="0.10409">
        <ele>2055</ele>
        <time>2013-06-05T07:11:26Z</time>
      </trkpt>
      <trkpt lat="42.759" lon="0.10418">
        <ele>2057</ele>
        <time>2013-06-05T07:11:34Z</time>
      </trkpt>
      <trkpt lat="42.75898" lon="0.10424">
        <ele>2058</ele>
        <time>2013-06-05T07:11:41Z</time>
      </trkpt>
      <trkpt lat="42.75899" lon="0.10428">
        <ele>2059</ele>
        <time>2013-06-05T07:11:49Z</time>
      </trkpt>
      <trkpt lat="42.75896" lon="0.10432">
        <ele>2059</ele>
        <time>2013-06-05T07:11:55Z</time>
      </trkpt>
      <trkpt lat="42.75894" lon="0.10438">
        <ele>2060</ele>
        <time>2013-06-05T07:12:01Z</time>
      </trkpt>
      <trkpt lat="42.75894" lon="0.10446">
        <ele>2062</ele>
        <time>2013-06-05T07:12:09Z</time>
      </trkpt>
      <trkpt lat="42.75894" lon="0.10447">
        <ele>2063</ele>
        <time>2013-06-05T07:12:17Z</time>
      </trkpt>
      <trkpt lat="42.75892" lon="0.10454">
        <ele>2064</ele>
        <time>2013-06-05T07:12:26Z</time>
      </trkpt>
      <trkpt lat="42.7589" lon="0.10462">
        <ele>2065</ele>
        <time>2013-06-05T07:12:33Z</time>
      </trkpt>
      <trkpt lat="42.75888" lon="0.10468">
        <ele>2066</ele>
        <time>2013-06-05T07:12:41Z</time>
      </trkpt>
      <trkpt lat="42.75886" lon="0.10473">
        <ele>2067</ele>
        <time>2013-06-05T07:12:48Z</time>
      </trkpt>
      <trkpt lat="42.75885" lon="0.10473">
        <ele>2068</ele>
        <time>2013-06-05T07:12:55Z</time>
      </trkpt>
      <trkpt lat="42.7588" lon="0.10478">
        <ele>2069</ele>
        <time>2013-06-05T07:13:01Z</time>
      </trkpt>
      <trkpt lat="42.75879" lon="0.10481">
        <ele>2069</ele>
        <time>2013-06-05T07:13:07Z</time>
      </trkpt>
      <trkpt lat="42.75877" lon="0.10485">
        <ele>2070</ele>
        <time>2013-06-05T07:13:16Z</time>
      </trkpt>
      <trkpt lat="42.75873" lon="0.10494">
        <ele>2072</ele>
        <time>2013-06-05T07:13:23Z</time>
      </trkpt>
      <trkpt lat="42.75874" lon="0.10497">
        <ele>2072</ele>
        <time>2013-06-05T07:13:29Z</time>
      </trkpt>
      <trkpt lat="42.75876" lon="0.10502">
        <ele>2073</ele>
        <time>2013-06-05T07:13:37Z</time>
      </trkpt>
      <trkpt lat="42.7588" lon="0.10506">
        <ele>2074</ele>
        <time>2013-06-05T07:13:44Z</time>
      </trkpt>
      <trkpt lat="42.7588" lon="0.1051">
        <ele>2074</ele>
        <time>2013-06-05T07:13:48Z</time>
      </trkpt>
      <trkpt lat="42.75878" lon="0.10518">
        <ele>2076</ele>
        <time>2013-06-05T07:13:58Z</time>
      </trkpt>
      <trkpt lat="42.75875" lon="0.10517">
        <ele>2077</ele>
        <time>2013-06-05T07:14:05Z</time>
      </trkpt>
      <trkpt lat="42.75872" lon="0.10514">
        <ele>2078</ele>
        <time>2013-06-05T07:14:12Z</time>
      </trkpt>
      <trkpt lat="42.75868" lon="0.1051">
        <ele>2078</ele>
        <time>2013-06-05T07:14:19Z</time>
      </trkpt>
      <trkpt lat="42.75867" lon="0.10507">
        <ele>2079</ele>
        <time>2013-06-05T07:14:24Z</time>
      </trkpt>
      <trkpt lat="42.75864" lon="0.105">
        <ele>2081</ele>
        <time>2013-06-05T07:14:31Z</time>
      </trkpt>
      <trkpt lat="42.75865" lon="0.105">
        <ele>2082</ele>
        <time>2013-06-05T07:14:38Z</time>
      </trkpt>
      <trkpt lat="42.75866" lon="0.10505">
        <ele>2083</ele>
        <time>2013-06-05T07:14:44Z</time>
      </trkpt>
      <trkpt lat="42.75865" lon="0.10513">
        <ele>2084</ele>
        <time>2013-06-05T07:14:53Z</time>
      </trkpt>
      <trkpt lat="42.75866" lon="0.10518">
        <ele>2084</ele>
        <time>2013-06-05T07:14:59Z</time>
      </trkpt>
      <trkpt lat="42.75868" lon="0.10519">
        <ele>2084</ele>
        <time>2013-06-05T07:15:01Z</time>
      </trkpt>
      <trkpt lat="42.75869" lon="0.10525">
        <ele>2085</ele>
        <time>2013-06-05T07:15:08Z</time>
      </trkpt>
      <trkpt lat="42.75872" lon="0.10533">
        <ele>2086</ele>
        <time>2013-06-05T07:15:16Z</time>
      </trkpt>
      <trkpt lat="42.75873" lon="0.10535">
        <ele>2088</ele>
        <time>2013-06-05T07:15:23Z</time>
      </trkpt>
      <trkpt lat="42.75874" lon="0.10539">
        <ele>2088</ele>
        <time>2013-06-05T07:15:28Z</time>
      </trkpt>
      <trkpt lat="42.75879" lon="0.10544">
        <ele>2089</ele>
        <time>2013-06-05T07:15:36Z</time>
      </trkpt>
      <trkpt lat="42.75877" lon="0.10552">
        <ele>2089</ele>
        <time>2013-06-05T07:15:44Z</time>
      </trkpt>
      <trkpt lat="42.75875" lon="0.10559">
        <ele>2090</ele>
        <time>2013-06-05T07:15:51Z</time>
      </trkpt>
      <trkpt lat="42.75876" lon="0.10566">
        <ele>2091</ele>
        <time>2013-06-05T07:16:00Z</time>
      </trkpt>
      <trkpt lat="42.75877" lon="0.10575">
        <ele>2091</ele>
        <time>2013-06-05T07:16:07Z</time>
      </trkpt>
      <trkpt lat="42.75877" lon="0.10579">
        <ele>2093</ele>
        <time>2013-06-05T07:16:13Z</time>
      </trkpt>
      <trkpt lat="42.75875" lon="0.10588">
        <ele>2094</ele>
        <time>2013-06-05T07:16:22Z</time>
      </trkpt>
      <trkpt lat="42.75876" lon="0.10594">
        <ele>2095</ele>
        <time>2013-06-05T07:16:30Z</time>
      </trkpt>
      <trkpt lat="42.75876" lon="0.106">
        <ele>2096</ele>
        <time>2013-06-05T07:16:38Z</time>
      </trkpt>
      <trkpt lat="42.75875" lon="0.10605">
        <ele>2097</ele>
        <time>2013-06-05T07:16:44Z</time>
      </trkpt>
      <trkpt lat="42.75874" lon="0.10614">
        <ele>2098</ele>
        <time>2013-06-05T07:16:54Z</time>
      </trkpt>
      <trkpt lat="42.75872" lon="0.10619">
        <ele>2098</ele>
        <time>2013-06-05T07:17:01Z</time>
      </trkpt>
      <trkpt lat="42.7587" lon="0.10626">
        <ele>2100</ele>
        <time>2013-06-05T07:17:09Z</time>
      </trkpt>
      <trkpt lat="42.75869" lon="0.10631">
        <ele>2101</ele>
        <time>2013-06-05T07:17:17Z</time>
      </trkpt>
      <trkpt lat="42.75868" lon="0.10636">
        <ele>2102</ele>
        <time>2013-06-05T07:17:24Z</time>
      </trkpt>
      <trkpt lat="42.75865" lon="0.10641">
        <ele>2103</ele>
        <time>2013-06-05T07:17:32Z</time>
      </trkpt>
      <trkpt lat="42.75867" lon="0.10645">
        <ele>2104</ele>
        <time>2013-06-05T07:17:39Z</time>
      </trkpt>
      <trkpt lat="42.75867" lon="0.10651">
        <ele>2106</ele>
        <time>2013-06-05T07:17:48Z</time>
      </trkpt>
      <trkpt lat="42.75864" lon="0.10655">
        <ele>2106</ele>
        <time>2013-06-05T07:17:56Z</time>
      </trkpt>
      <trkpt lat="42.75864" lon="0.1066">
        <ele>2108</ele>
        <time>2013-06-05T07:18:03Z</time>
      </trkpt>
      <trkpt lat="42.75862" lon="0.10665">
        <ele>2109</ele>
        <time>2013-06-05T07:18:10Z</time>
      </trkpt>
      <trkpt lat="42.75859" lon="0.1067">
        <ele>2110</ele>
        <time>2013-06-05T07:18:17Z</time>
      </trkpt>
      <trkpt lat="42.75857" lon="0.10673">
        <ele>2111</ele>
        <time>2013-06-05T07:18:24Z</time>
      </trkpt>
      <trkpt lat="42.75855" lon="0.10676">
        <ele>2113</ele>
        <time>2013-06-05T07:18:31Z</time>
      </trkpt>
      <trkpt lat="42.75853" lon="0.10679">
        <ele>2114</ele>
        <time>2013-06-05T07:18:38Z</time>
      </trkpt>
      <trkpt lat="42.75851" lon="0.10678">
        <ele>2114</ele>
        <time>2013-06-05T07:18:48Z</time>
      </trkpt>
      <trkpt lat="42.75847" lon="0.1067">
        <ele>2114</ele>
        <time>2013-06-05T07:18:57Z</time>
      </trkpt>
      <trkpt lat="42.75847" lon="0.10666">
        <ele>2114</ele>
        <time>2013-06-05T07:18:59Z</time>
      </trkpt>
      <trkpt lat="42.75847" lon="0.10657">
        <ele>2115</ele>
        <time>2013-06-05T07:19:07Z</time>
      </trkpt>
      <trkpt lat="42.75846" lon="0.10651">
        <ele>2116</ele>
        <time>2013-06-05T07:19:15Z</time>
      </trkpt>
      <trkpt lat="42.75844" lon="0.10648">
        <ele>2117</ele>
        <time>2013-06-05T07:19:20Z</time>
      </trkpt>
      <trkpt lat="42.75842" lon="0.10645">
        <ele>2119</ele>
        <time>2013-06-05T07:19:27Z</time>
      </trkpt>
      <trkpt lat="42.75842" lon="0.10641">
        <ele>2118</ele>
        <time>2013-06-05T07:19:33Z</time>
      </trkpt>
      <trkpt lat="42.75842" lon="0.1064">
        <ele>2119</ele>
        <time>2013-06-05T07:19:41Z</time>
      </trkpt>
      <trkpt lat="42.7584" lon="0.10638">
        <ele>2119</ele>
        <time>2013-06-05T07:19:55Z</time>
      </trkpt>
      <trkpt lat="42.7584" lon="0.10637">
        <ele>2119</ele>
        <time>2013-06-05T07:20:03Z</time>
      </trkpt>
      <trkpt lat="42.75838" lon="0.10631">
        <ele>2120</ele>
        <time>2013-06-05T07:20:11Z</time>
      </trkpt>
      <trkpt lat="42.75838" lon="0.10629">
        <ele>2121</ele>
        <time>2013-06-05T07:20:20Z</time>
      </trkpt>
      <trkpt lat="42.75837" lon="0.10635">
        <ele>2121</ele>
        <time>2013-06-05T07:20:28Z</time>
      </trkpt>
      <trkpt lat="42.75833" lon="0.10642">
        <ele>2123</ele>
        <time>2013-06-05T07:20:35Z</time>
      </trkpt>
      <trkpt lat="42.75832" lon="0.10647">
        <ele>2124</ele>
        <time>2013-06-05T07:20:42Z</time>
      </trkpt>
      <trkpt lat="42.75829" lon="0.10653">
        <ele>2125</ele>
        <time>2013-06-05T07:20:52Z</time>
      </trkpt>
      <trkpt lat="42.75829" lon="0.10653">
        <ele>2126</ele>
        <time>2013-06-05T07:21:01Z</time>
      </trkpt>
      <trkpt lat="42.75828" lon="0.10655">
        <ele>2126</ele>
        <time>2013-06-05T07:21:06Z</time>
      </trkpt>
      <trkpt lat="42.75826" lon="0.10657">
        <ele>2127</ele>
        <time>2013-06-05T07:21:12Z</time>
      </trkpt>
      <trkpt lat="42.75827" lon="0.1066">
        <ele>2128</ele>
        <time>2013-06-05T07:21:19Z</time>
      </trkpt>
      <trkpt lat="42.75827" lon="0.10658">
        <ele>2128</ele>
        <time>2013-06-05T07:21:27Z</time>
      </trkpt>
      <trkpt lat="42.75827" lon="0.10661">
        <ele>2129</ele>
        <time>2013-06-05T07:21:37Z</time>
      </trkpt>
      <trkpt lat="42.75824" lon="0.1067">
        <ele>2129</ele>
        <time>2013-06-05T07:21:44Z</time>
      </trkpt>
      <trkpt lat="42.75821" lon="0.10676">
        <ele>2130</ele>
        <time>2013-06-05T07:21:52Z</time>
      </trkpt>
      <trkpt lat="42.75818" lon="0.10684">
        <ele>2131</ele>
        <time>2013-06-05T07:22:00Z</time>
      </trkpt>
      <trkpt lat="42.75817" lon="0.10693">
        <ele>2133</ele>
        <time>2013-06-05T07:22:08Z</time>
      </trkpt>
      <trkpt lat="42.75816" lon="0.10695">
        <ele>2133</ele>
        <time>2013-06-05T07:22:11Z</time>
      </trkpt>
      <trkpt lat="42.75812" lon="0.10703">
        <ele>2134</ele>
        <time>2013-06-05T07:22:19Z</time>
      </trkpt>
      <trkpt lat="42.75812" lon="0.10707">
        <ele>2135</ele>
        <time>2013-06-05T07:22:26Z</time>
      </trkpt>
      <trkpt lat="42.75809" lon="0.10712">
        <ele>2138</ele>
        <time>2013-06-05T07:22:34Z</time>
      </trkpt>
      <trkpt lat="42.75808" lon="0.1072">
        <ele>2139</ele>
        <time>2013-06-05T07:22:42Z</time>
      </trkpt>
      <trkpt lat="42.75808" lon="0.10727">
        <ele>2140</ele>
        <time>2013-06-05T07:22:50Z</time>
      </trkpt>
      <trkpt lat="42.75808" lon="0.10733">
        <ele>2141</ele>
        <time>2013-06-05T07:22:59Z</time>
      </trkpt>
      <trkpt lat="42.75808" lon="0.10735">
        <ele>2141</ele>
        <time>2013-06-05T07:23:01Z</time>
      </trkpt>
      <trkpt lat="42.75803" lon="0.10747">
        <ele>2143</ele>
        <time>2013-06-05T07:23:11Z</time>
      </trkpt>
      <trkpt lat="42.75801" lon="0.10754">
        <ele>2145</ele>
        <time>2013-06-05T07:23:20Z</time>
      </trkpt>
      <trkpt lat="42.75798" lon="0.10762">
        <ele>2147</ele>
        <time>2013-06-05T07:23:28Z</time>
      </trkpt>
      <trkpt lat="42.75798" lon="0.10766">
        <ele>2148</ele>
        <time>2013-06-05T07:23:37Z</time>
      </trkpt>
      <trkpt lat="42.75795" lon="0.10762">
        <ele>2148</ele>
        <time>2013-06-05T07:23:48Z</time>
      </trkpt>
      <trkpt lat="42.75791" lon="0.10761">
        <ele>2148</ele>
        <time>2013-06-05T07:24:00Z</time>
      </trkpt>
      <trkpt lat="42.75793" lon="0.10749">
        <ele>2148</ele>
        <time>2013-06-05T07:24:06Z</time>
      </trkpt>
      <trkpt lat="42.75794" lon="0.10745">
        <ele>2149</ele>
        <time>2013-06-05T07:24:09Z</time>
      </trkpt>
      <trkpt lat="42.7579" lon="0.10736">
        <ele>2149</ele>
        <time>2013-06-05T07:24:17Z</time>
      </trkpt>
      <trkpt lat="42.75788" lon="0.10728">
        <ele>2150</ele>
        <time>2013-06-05T07:24:24Z</time>
      </trkpt>
      <trkpt lat="42.75787" lon="0.10721">
        <ele>2151</ele>
        <time>2013-06-05T07:24:31Z</time>
      </trkpt>
      <trkpt lat="42.75786" lon="0.10715">
        <ele>2152</ele>
        <time>2013-06-05T07:24:39Z</time>
      </trkpt>
      <trkpt lat="42.75784" lon="0.10706">
        <ele>2153</ele>
        <time>2013-06-05T07:24:48Z</time>
      </trkpt>
      <trkpt lat="42.75781" lon="0.10699">
        <ele>2153</ele>
        <time>2013-06-05T07:24:55Z</time>
      </trkpt>
      <trkpt lat="42.7578" lon="0.10694">
        <ele>2155</ele>
        <time>2013-06-05T07:25:02Z</time>
      </trkpt>
      <trkpt lat="42.75778" lon="0.10688">
        <ele>2155</ele>
        <time>2013-06-05T07:25:09Z</time>
      </trkpt>
      <trkpt lat="42.75777" lon="0.10685">
        <ele>2156</ele>
        <time>2013-06-05T07:25:14Z</time>
      </trkpt>
      <trkpt lat="42.75778" lon="0.10686">
        <ele>2156</ele>
        <time>2013-06-05T07:25:22Z</time>
      </trkpt>
      <trkpt lat="42.75777" lon="0.10687">
        <ele>2156</ele>
        <time>2013-06-05T07:25:23Z</time>
      </trkpt>
      <trkpt lat="42.75775" lon="0.10698">
        <ele>2157</ele>
        <time>2013-06-05T07:25:32Z</time>
      </trkpt>
      <trkpt lat="42.75774" lon="0.10704">
        <ele>2159</ele>
        <time>2013-06-05T07:25:39Z</time>
      </trkpt>
      <trkpt lat="42.75773" lon="0.1071">
        <ele>2160</ele>
        <time>2013-06-05T07:25:44Z</time>
      </trkpt>
      <trkpt lat="42.75771" lon="0.10715">
        <ele>2161</ele>
        <time>2013-06-05T07:25:51Z</time>
      </trkpt>
      <trkpt lat="42.7577" lon="0.10719">
        <ele>2161</ele>
        <time>2013-06-05T07:25:57Z</time>
      </trkpt>
      <trkpt lat="42.75769" lon="0.10728">
        <ele>2163</ele>
        <time>2013-06-05T07:26:06Z</time>
      </trkpt>
      <trkpt lat="42.7577" lon="0.10728">
        <ele>2163</ele>
        <time>2013-06-05T07:26:15Z</time>
      </trkpt>
      <trkpt lat="42.75769" lon="0.10723">
        <ele>2164</ele>
        <time>2013-06-05T07:26:22Z</time>
      </trkpt>
      <trkpt lat="42.75768" lon="0.10717">
        <ele>2165</ele>
        <time>2013-06-05T07:26:30Z</time>
      </trkpt>
      <trkpt lat="42.75766" lon="0.10712">
        <ele>2165</ele>
        <time>2013-06-05T07:26:35Z</time>
      </trkpt>
      <trkpt lat="42.75765" lon="0.10704">
        <ele>2166</ele>
        <time>2013-06-05T07:26:42Z</time>
      </trkpt>
      <trkpt lat="42.75763" lon="0.107">
        <ele>2167</ele>
        <time>2013-06-05T07:26:48Z</time>
      </trkpt>
      <trkpt lat="42.75763" lon="0.10695">
        <ele>2168</ele>
        <time>2013-06-05T07:26:55Z</time>
      </trkpt>
      <trkpt lat="42.75762" lon="0.107">
        <ele>2168</ele>
        <time>2013-06-05T07:27:04Z</time>
      </trkpt>
      <trkpt lat="42.75762" lon="0.10705">
        <ele>2169</ele>
        <time>2013-06-05T07:27:08Z</time>
      </trkpt>
      <trkpt lat="42.75762" lon="0.10712">
        <ele>2170</ele>
        <time>2013-06-05T07:27:16Z</time>
      </trkpt>
      <trkpt lat="42.75759" lon="0.1072">
        <ele>2171</ele>
        <time>2013-06-05T07:27:24Z</time>
      </trkpt>
      <trkpt lat="42.75758" lon="0.10726">
        <ele>2172</ele>
        <time>2013-06-05T07:27:31Z</time>
      </trkpt>
      <trkpt lat="42.75759" lon="0.10732">
        <ele>2174</ele>
        <time>2013-06-05T07:27:39Z</time>
      </trkpt>
      <trkpt lat="42.75758" lon="0.10738">
        <ele>2175</ele>
        <time>2013-06-05T07:27:48Z</time>
      </trkpt>
      <trkpt lat="42.75756" lon="0.10744">
        <ele>2176</ele>
        <time>2013-06-05T07:27:55Z</time>
      </trkpt>
      <trkpt lat="42.75754" lon="0.1075">
        <ele>2177</ele>
        <time>2013-06-05T07:28:03Z</time>
      </trkpt>
      <trkpt lat="42.75753" lon="0.10757">
        <ele>2178</ele>
        <time>2013-06-05T07:28:10Z</time>
      </trkpt>
      <trkpt lat="42.75753" lon="0.10762">
        <ele>2179</ele>
        <time>2013-06-05T07:28:19Z</time>
      </trkpt>
      <trkpt lat="42.75751" lon="0.10768">
        <ele>2180</ele>
        <time>2013-06-05T07:28:26Z</time>
      </trkpt>
      <trkpt lat="42.75751" lon="0.10776">
        <ele>2182</ele>
        <time>2013-06-05T07:28:35Z</time>
      </trkpt>
      <trkpt lat="42.7575" lon="0.10777">
        <ele>2183</ele>
        <time>2013-06-05T07:28:37Z</time>
      </trkpt>
      <trkpt lat="42.7575" lon="0.10785">
        <ele>2184</ele>
        <time>2013-06-05T07:28:46Z</time>
      </trkpt>
      <trkpt lat="42.7575" lon="0.1079">
        <ele>2185</ele>
        <time>2013-06-05T07:28:55Z</time>
      </trkpt>
      <trkpt lat="42.75749" lon="0.10793">
        <ele>2186</ele>
        <time>2013-06-05T07:29:03Z</time>
      </trkpt>
      <trkpt lat="42.75747" lon="0.10788">
        <ele>2186</ele>
        <time>2013-06-05T07:29:12Z</time>
      </trkpt>
      <trkpt lat="42.75746" lon="0.10783">
        <ele>2186</ele>
        <time>2013-06-05T07:29:22Z</time>
      </trkpt>
      <trkpt lat="42.75745" lon="0.10776">
        <ele>2186</ele>
        <time>2013-06-05T07:29:30Z</time>
      </trkpt>
      <trkpt lat="42.75743" lon="0.10773">
        <ele>2187</ele>
        <time>2013-06-05T07:29:34Z</time>
      </trkpt>
      <trkpt lat="42.75742" lon="0.10767">
        <ele>2188</ele>
        <time>2013-06-05T07:29:41Z</time>
      </trkpt>
      <trkpt lat="42.75742" lon="0.10764">
        <ele>2189</ele>
        <time>2013-06-05T07:29:48Z</time>
      </trkpt>
      <trkpt lat="42.7574" lon="0.10758">
        <ele>2191</ele>
        <time>2013-06-05T07:29:56Z</time>
      </trkpt>
      <trkpt lat="42.75739" lon="0.10753">
        <ele>2191</ele>
        <time>2013-06-05T07:30:02Z</time>
      </trkpt>
      <trkpt lat="42.7574" lon="0.10753">
        <ele>2191</ele>
        <time>2013-06-05T07:30:08Z</time>
      </trkpt>
      <trkpt lat="42.7574" lon="0.10757">
        <ele>2191</ele>
        <time>2013-06-05T07:30:18Z</time>
      </trkpt>
      <trkpt lat="42.75739" lon="0.10763">
        <ele>2193</ele>
        <time>2013-06-05T07:30:27Z</time>
      </trkpt>
      <trkpt lat="42.75736" lon="0.10771">
        <ele>2193</ele>
        <time>2013-06-05T07:30:34Z</time>
      </trkpt>
      <trkpt lat="42.75735" lon="0.10778">
        <ele>2195</ele>
        <time>2013-06-05T07:30:42Z</time>
      </trkpt>
      <trkpt lat="42.75732" lon="0.10785">
        <ele>2197</ele>
        <time>2013-06-05T07:30:51Z</time>
      </trkpt>
      <trkpt lat="42.75732" lon="0.10791">
        <ele>2197</ele>
        <time>2013-06-05T07:30:57Z</time>
      </trkpt>
      <trkpt lat="42.7573" lon="0.10797">
        <ele>2199</ele>
        <time>2013-06-05T07:31:04Z</time>
      </trkpt>
      <trkpt lat="42.75729" lon="0.10803">
        <ele>2200</ele>
        <time>2013-06-05T07:31:13Z</time>
      </trkpt>
      <trkpt lat="42.75729" lon="0.10808">
        <ele>2201</ele>
        <time>2013-06-05T07:31:19Z</time>
      </trkpt>
      <trkpt lat="42.75732" lon="0.10805">
        <ele>2202</ele>
        <time>2013-06-05T07:31:32Z</time>
      </trkpt>
      <trkpt lat="42.75733" lon="0.10807">
        <ele>2202</ele>
        <time>2013-06-05T07:31:38Z</time>
      </trkpt>
      <trkpt lat="42.75731" lon="0.10815">
        <ele>2203</ele>
        <time>2013-06-05T07:31:47Z</time>
      </trkpt>
      <trkpt lat="42.75729" lon="0.10815">
        <ele>2203</ele>
        <time>2013-06-05T07:31:57Z</time>
      </trkpt>
      <trkpt lat="42.75726" lon="0.10811">
        <ele>2204</ele>
        <time>2013-06-05T07:32:05Z</time>
      </trkpt>
      <trkpt lat="42.75722" lon="0.10805">
        <ele>2205</ele>
        <time>2013-06-05T07:32:13Z</time>
      </trkpt>
      <trkpt lat="42.75721" lon="0.10804">
        <ele>2205</ele>
        <time>2013-06-05T07:32:14Z</time>
      </trkpt>
      <trkpt lat="42.75717" lon="0.10798">
        <ele>2206</ele>
        <time>2013-06-05T07:32:22Z</time>
      </trkpt>
      <trkpt lat="42.75715" lon="0.10791">
        <ele>2208</ele>
        <time>2013-06-05T07:32:31Z</time>
      </trkpt>
      <trkpt lat="42.75713" lon="0.10783">
        <ele>2208</ele>
        <time>2013-06-05T07:32:40Z</time>
      </trkpt>
      <trkpt lat="42.75712" lon="0.10787">
        <ele>2209</ele>
        <time>2013-06-05T07:32:49Z</time>
      </trkpt>
      <trkpt lat="42.75712" lon="0.10795">
        <ele>2210</ele>
        <time>2013-06-05T07:32:58Z</time>
      </trkpt>
      <trkpt lat="42.75711" lon="0.10803">
        <ele>2211</ele>
        <time>2013-06-05T07:33:05Z</time>
      </trkpt>
      <trkpt lat="42.75711" lon="0.10812">
        <ele>2212</ele>
        <time>2013-06-05T07:33:12Z</time>
      </trkpt>
      <trkpt lat="42.75709" lon="0.10817">
        <ele>2213</ele>
        <time>2013-06-05T07:33:19Z</time>
      </trkpt>
      <trkpt lat="42.7571" lon="0.10825">
        <ele>2215</ele>
        <time>2013-06-05T07:33:28Z</time>
      </trkpt>
      <trkpt lat="42.7571" lon="0.10831">
        <ele>2216</ele>
        <time>2013-06-05T07:33:34Z</time>
      </trkpt>
      <trkpt lat="42.75709" lon="0.10838">
        <ele>2217</ele>
        <time>2013-06-05T07:33:41Z</time>
      </trkpt>
      <trkpt lat="42.75707" lon="0.10843">
        <ele>2218</ele>
        <time>2013-06-05T07:33:48Z</time>
      </trkpt>
      <trkpt lat="42.75707" lon="0.10843">
        <ele>2218</ele>
        <time>2013-06-05T07:33:58Z</time>
      </trkpt>
      <trkpt lat="42.75706" lon="0.10839">
        <ele>2219</ele>
        <time>2013-06-05T07:34:12Z</time>
      </trkpt>
      <trkpt lat="42.75707" lon="0.10845">
        <ele>2219</ele>
        <time>2013-06-05T07:34:19Z</time>
      </trkpt>
      <trkpt lat="42.75706" lon="0.10849">
        <ele>2220</ele>
        <time>2013-06-05T07:34:27Z</time>
      </trkpt>
      <trkpt lat="42.75705" lon="0.10849">
        <ele>2220</ele>
        <time>2013-06-05T07:34:36Z</time>
      </trkpt>
      <trkpt lat="42.75704" lon="0.10853">
        <ele>2220</ele>
        <time>2013-06-05T07:34:45Z</time>
      </trkpt>
      <trkpt lat="42.75703" lon="0.10857">
        <ele>2221</ele>
        <time>2013-06-05T07:34:53Z</time>
      </trkpt>
      <trkpt lat="42.75702" lon="0.1086">
        <ele>2222</ele>
        <time>2013-06-05T07:34:59Z</time>
      </trkpt>
      <trkpt lat="42.75701" lon="0.10866">
        <ele>2223</ele>
        <time>2013-06-05T07:35:08Z</time>
      </trkpt>
      <trkpt lat="42.757" lon="0.1087">
        <ele>2223</ele>
        <time>2013-06-05T07:35:15Z</time>
      </trkpt>
      <trkpt lat="42.75696" lon="0.10875">
        <ele>2224</ele>
        <time>2013-06-05T07:35:23Z</time>
      </trkpt>
      <trkpt lat="42.75695" lon="0.10882">
        <ele>2225</ele>
        <time>2013-06-05T07:35:30Z</time>
      </trkpt>
      <trkpt lat="42.75694" lon="0.10887">
        <ele>2226</ele>
        <time>2013-06-05T07:35:37Z</time>
      </trkpt>
      <trkpt lat="42.75692" lon="0.10894">
        <ele>2227</ele>
        <time>2013-06-05T07:35:45Z</time>
      </trkpt>
      <trkpt lat="42.75691" lon="0.10901">
        <ele>2228</ele>
        <time>2013-06-05T07:35:53Z</time>
      </trkpt>
      <trkpt lat="42.75691" lon="0.10908">
        <ele>2229</ele>
        <time>2013-06-05T07:36:02Z</time>
      </trkpt>
      <trkpt lat="42.75692" lon="0.10913">
        <ele>2230</ele>
        <time>2013-06-05T07:36:09Z</time>
      </trkpt>
      <trkpt lat="42.7569" lon="0.1092">
        <ele>2231</ele>
        <time>2013-06-05T07:36:19Z</time>
      </trkpt>
      <trkpt lat="42.75687" lon="0.10929">
        <ele>2233</ele>
        <time>2013-06-05T07:36:27Z</time>
      </trkpt>
      <trkpt lat="42.75686" lon="0.10933">
        <ele>2234</ele>
        <time>2013-06-05T07:36:34Z</time>
      </trkpt>
      <trkpt lat="42.75684" lon="0.10938">
        <ele>2234</ele>
        <time>2013-06-05T07:36:42Z</time>
      </trkpt>
      <trkpt lat="42.7568" lon="0.10944">
        <ele>2235</ele>
        <time>2013-06-05T07:36:49Z</time>
      </trkpt>
      <trkpt lat="42.75679" lon="0.10949">
        <ele>2237</ele>
        <time>2013-06-05T07:36:57Z</time>
      </trkpt>
      <trkpt lat="42.75681" lon="0.1095">
        <ele>2238</ele>
        <time>2013-06-05T07:37:03Z</time>
      </trkpt>
      <trkpt lat="42.75681" lon="0.10956">
        <ele>2238</ele>
        <time>2013-06-05T07:37:11Z</time>
      </trkpt>
      <trkpt lat="42.75679" lon="0.10955">
        <ele>2239</ele>
        <time>2013-06-05T07:37:17Z</time>
      </trkpt>
      <trkpt lat="42.75675" lon="0.10957">
        <ele>2240</ele>
        <time>2013-06-05T07:37:24Z</time>
      </trkpt>
      <trkpt lat="42.75672" lon="0.10957">
        <ele>2241</ele>
        <time>2013-06-05T07:37:32Z</time>
      </trkpt>
      <trkpt lat="42.75672" lon="0.10959">
        <ele>2242</ele>
        <time>2013-06-05T07:37:39Z</time>
      </trkpt>
      <trkpt lat="42.75671" lon="0.10966">
        <ele>2244</ele>
        <time>2013-06-05T07:37:47Z</time>
      </trkpt>
      <trkpt lat="42.7567" lon="0.10972">
        <ele>2244</ele>
        <time>2013-06-05T07:37:53Z</time>
      </trkpt>
      <trkpt lat="42.75667" lon="0.10977">
        <ele>2246</ele>
        <time>2013-06-05T07:38:00Z</time>
      </trkpt>
      <trkpt lat="42.75665" lon="0.10981">
        <ele>2248</ele>
        <time>2013-06-05T07:38:08Z</time>
      </trkpt>
      <trkpt lat="42.75665" lon="0.10981">
        <ele>2248</ele>
        <time>2013-06-05T07:38:09Z</time>
      </trkpt>
      <trkpt lat="42.75661" lon="0.10981">
        <ele>2249</ele>
        <time>2013-06-05T07:38:16Z</time>
      </trkpt>
      <trkpt lat="42.75657" lon="0.10986">
        <ele>2251</ele>
        <time>2013-06-05T07:38:23Z</time>
      </trkpt>
      <trkpt lat="42.75656" lon="0.10987">
        <ele>2250</ele>
        <time>2013-06-05T07:38:24Z</time>
      </trkpt>
      <trkpt lat="42.75654" lon="0.10994">
        <ele>2252</ele>
        <time>2013-06-05T07:38:31Z</time>
      </trkpt>
      <trkpt lat="42.75652" lon="0.11002">
        <ele>2253</ele>
        <time>2013-06-05T07:38:39Z</time>
      </trkpt>
      <trkpt lat="42.75651" lon="0.11003">
        <ele>2252</ele>
        <time>2013-06-05T07:38:40Z</time>
      </trkpt>
      <trkpt lat="42.75651" lon="0.11006">
        <ele>2253</ele>
        <time>2013-06-05T07:38:47Z</time>
      </trkpt>
      <trkpt lat="42.75652" lon="0.11007">
        <ele>2253</ele>
        <time>2013-06-05T07:38:59Z</time>
      </trkpt>
      <trkpt lat="42.75652" lon="0.11012">
        <ele>2253</ele>
        <time>2013-06-05T07:39:09Z</time>
      </trkpt>
      <trkpt lat="42.75653" lon="0.11013">
        <ele>2253</ele>
        <time>2013-06-05T07:39:17Z</time>
      </trkpt>
      <trkpt lat="42.75651" lon="0.1101">
        <ele>2254</ele>
        <time>2013-06-05T07:39:26Z</time>
      </trkpt>
      <trkpt lat="42.75652" lon="0.1101">
        <ele>2254</ele>
        <time>2013-06-05T07:39:38Z</time>
      </trkpt>
      <trkpt lat="42.75654" lon="0.11008">
        <ele>2254</ele>
        <time>2013-06-05T07:39:48Z</time>
      </trkpt>
      <trkpt lat="42.75653" lon="0.11009">
        <ele>2254</ele>
        <time>2013-06-05T07:39:56Z</time>
      </trkpt>
      <trkpt lat="42.75653" lon="0.11008">
        <ele>2254</ele>
        <time>2013-06-05T07:40:00Z</time>
      </trkpt>
      <trkpt lat="42.75652" lon="0.11008">
        <ele>2254</ele>
        <time>2013-06-05T07:40:07Z</time>
      </trkpt>
      <trkpt lat="42.75651" lon="0.11007">
        <ele>2254</ele>
        <time>2013-06-05T07:40:21Z</time>
      </trkpt>
      <trkpt lat="42.75651" lon="0.11007">
        <ele>2254</ele>
        <time>2013-06-05T07:40:35Z</time>
      </trkpt>
      <trkpt lat="42.75648" lon="0.11006">
        <ele>2254</ele>
        <time>2013-06-05T07:40:49Z</time>
      </trkpt>
      <trkpt lat="42.75651" lon="0.11008">
        <ele>2254</ele>
        <time>2013-06-05T07:41:02Z</time>
      </trkpt>
      <trkpt lat="42.75652" lon="0.1101">
        <ele>2254</ele>
        <time>2013-06-05T07:41:14Z</time>
      </trkpt>
      <trkpt lat="42.75653" lon="0.11012">
        <ele>2254</ele>
        <time>2013-06-05T07:41:27Z</time>
      </trkpt>
      <trkpt lat="42.75651" lon="0.11012">
        <ele>2254</ele>
        <time>2013-06-05T07:41:37Z</time>
      </trkpt>
      <trkpt lat="42.75651" lon="0.11014">
        <ele>2254</ele>
        <time>2013-06-05T07:41:39Z</time>
      </trkpt>
      <trkpt lat="42.75649" lon="0.11016">
        <ele>2255</ele>
        <time>2013-06-05T07:41:42Z</time>
      </trkpt>
      <trkpt lat="42.75646" lon="0.11018">
        <ele>2255</ele>
        <time>2013-06-05T07:41:45Z</time>
      </trkpt>
      <trkpt lat="42.75644" lon="0.11023">
        <ele>2255</ele>
        <time>2013-06-05T07:41:50Z</time>
      </trkpt>
      <trkpt lat="42.75642" lon="0.11028">
        <ele>2256</ele>
        <time>2013-06-05T07:41:59Z</time>
      </trkpt>
      <trkpt lat="42.75642" lon="0.11029">
        <ele>2256</ele>
        <time>2013-06-05T07:42:04Z</time>
      </trkpt>
      <trkpt lat="42.75642" lon="0.11031">
        <ele>2256</ele>
        <time>2013-06-05T07:42:06Z</time>
      </trkpt>
      <trkpt lat="42.75639" lon="0.11035">
        <ele>2257</ele>
        <time>2013-06-05T07:42:11Z</time>
      </trkpt>
      <trkpt lat="42.75637" lon="0.11043">
        <ele>2258</ele>
        <time>2013-06-05T07:42:19Z</time>
      </trkpt>
      <trkpt lat="42.75636" lon="0.11046">
        <ele>2258</ele>
        <time>2013-06-05T07:42:22Z</time>
      </trkpt>
      <trkpt lat="42.75633" lon="0.11054">
        <ele>2260</ele>
        <time>2013-06-05T07:42:30Z</time>
      </trkpt>
      <trkpt lat="42.75632" lon="0.11061">
        <ele>2261</ele>
        <time>2013-06-05T07:42:37Z</time>
      </trkpt>
      <trkpt lat="42.75632" lon="0.11065">
        <ele>2261</ele>
        <time>2013-06-05T07:42:41Z</time>
      </trkpt>
      <trkpt lat="42.7563" lon="0.11073">
        <ele>2262</ele>
        <time>2013-06-05T07:42:49Z</time>
      </trkpt>
      <trkpt lat="42.75629" lon="0.11081">
        <ele>2263</ele>
        <time>2013-06-05T07:42:56Z</time>
      </trkpt>
      <trkpt lat="42.75627" lon="0.11089">
        <ele>2264</ele>
        <time>2013-06-05T07:43:03Z</time>
      </trkpt>
      <trkpt lat="42.75626" lon="0.11096">
        <ele>2265</ele>
        <time>2013-06-05T07:43:09Z</time>
      </trkpt>
      <trkpt lat="42.75622" lon="0.11103">
        <ele>2265</ele>
        <time>2013-06-05T07:43:17Z</time>
      </trkpt>
      <trkpt lat="42.7562" lon="0.11111">
        <ele>2266</ele>
        <time>2013-06-05T07:43:24Z</time>
      </trkpt>
      <trkpt lat="42.75618" lon="0.11119">
        <ele>2267</ele>
        <time>2013-06-05T07:43:31Z</time>
      </trkpt>
      <trkpt lat="42.75616" lon="0.11128">
        <ele>2268</ele>
        <time>2013-06-05T07:43:39Z</time>
      </trkpt>
      <trkpt lat="42.75615" lon="0.11137">
        <ele>2268</ele>
        <time>2013-06-05T07:43:46Z</time>
      </trkpt>
      <trkpt lat="42.75614" lon="0.11144">
        <ele>2269</ele>
        <time>2013-06-05T07:43:53Z</time>
      </trkpt>
      <trkpt lat="42.75614" lon="0.11152">
        <ele>2270</ele>
        <time>2013-06-05T07:44:01Z</time>
      </trkpt>
      <trkpt lat="42.75614" lon="0.11159">
        <ele>2271</ele>
        <time>2013-06-05T07:44:10Z</time>
      </trkpt>
      <trkpt lat="42.75613" lon="0.11163">
        <ele>2272</ele>
        <time>2013-06-05T07:44:16Z</time>
      </trkpt>
      <trkpt lat="42.75612" lon="0.1117">
        <ele>2273</ele>
        <time>2013-06-05T07:44:23Z</time>
      </trkpt>
      <trkpt lat="42.75609" lon="0.11177">
        <ele>2274</ele>
        <time>2013-06-05T07:44:31Z</time>
      </trkpt>
      <trkpt lat="42.75607" lon="0.1118">
        <ele>2275</ele>
        <time>2013-06-05T07:44:37Z</time>
      </trkpt>
      <trkpt lat="42.75607" lon="0.11182">
        <ele>2274</ele>
        <time>2013-06-05T07:44:41Z</time>
      </trkpt>
      <trkpt lat="42.75604" lon="0.11186">
        <ele>2276</ele>
        <time>2013-06-05T07:44:47Z</time>
      </trkpt>
      <trkpt lat="42.75605" lon="0.11191">
        <ele>2276</ele>
        <time>2013-06-05T07:44:57Z</time>
      </trkpt>
      <trkpt lat="42.75605" lon="0.11192">
        <ele>2277</ele>
        <time>2013-06-05T07:45:05Z</time>
      </trkpt>
      <trkpt lat="42.75604" lon="0.112">
        <ele>2277</ele>
        <time>2013-06-05T07:45:14Z</time>
      </trkpt>
      <trkpt lat="42.75605" lon="0.11208">
        <ele>2277</ele>
        <time>2013-06-05T07:45:22Z</time>
      </trkpt>
      <trkpt lat="42.75604" lon="0.1121">
        <ele>2277</ele>
        <time>2013-06-05T07:45:24Z</time>
      </trkpt>
      <trkpt lat="42.75601" lon="0.11209">
        <ele>2277</ele>
        <time>2013-06-05T07:45:32Z</time>
      </trkpt>
      <trkpt lat="42.75603" lon="0.11209">
        <ele>2277</ele>
        <time>2013-06-05T07:45:43Z</time>
      </trkpt>
      <trkpt lat="42.75605" lon="0.11213">
        <ele>2277</ele>
        <time>2013-06-05T07:45:54Z</time>
      </trkpt>
      <trkpt lat="42.75604" lon="0.11216">
        <ele>2277</ele>
        <time>2013-06-05T07:45:56Z</time>
      </trkpt>
      <trkpt lat="42.75606" lon="0.11231">
        <ele>2276</ele>
        <time>2013-06-05T07:46:04Z</time>
      </trkpt>
      <trkpt lat="42.75606" lon="0.11232">
        <ele>2277</ele>
        <time>2013-06-05T07:46:05Z</time>
      </trkpt>
      <trkpt lat="42.75606" lon="0.11243">
        <ele>2275</ele>
        <time>2013-06-05T07:46:13Z</time>
      </trkpt>
      <trkpt lat="42.75606" lon="0.11244">
        <ele>2275</ele>
        <time>2013-06-05T07:46:14Z</time>
      </trkpt>
      <trkpt lat="42.75604" lon="0.11253">
        <ele>2276</ele>
        <time>2013-06-05T07:46:23Z</time>
      </trkpt>
      <trkpt lat="42.75603" lon="0.11253">
        <ele>2276</ele>
        <time>2013-06-05T07:46:24Z</time>
      </trkpt>
      <trkpt lat="42.75597" lon="0.11263">
        <ele>2277</ele>
        <time>2013-06-05T07:46:33Z</time>
      </trkpt>
      <trkpt lat="42.75596" lon="0.11271">
        <ele>2277</ele>
        <time>2013-06-05T07:46:40Z</time>
      </trkpt>
      <trkpt lat="42.75597" lon="0.11278">
        <ele>2277</ele>
        <time>2013-06-05T07:46:47Z</time>
      </trkpt>
      <trkpt lat="42.75594" lon="0.11289">
        <ele>2277</ele>
        <time>2013-06-05T07:46:55Z</time>
      </trkpt>
      <trkpt lat="42.75593" lon="0.11292">
        <ele>2277</ele>
        <time>2013-06-05T07:46:57Z</time>
      </trkpt>
      <trkpt lat="42.75593" lon="0.11301">
        <ele>2277</ele>
        <time>2013-06-05T07:47:03Z</time>
      </trkpt>
      <trkpt lat="42.75593" lon="0.11313">
        <ele>2278</ele>
        <time>2013-06-05T07:47:12Z</time>
      </trkpt>
      <trkpt lat="42.75592" lon="0.11318">
        <ele>2278</ele>
        <time>2013-06-05T07:47:19Z</time>
      </trkpt>
      <trkpt lat="42.75591" lon="0.11319">
        <ele>2278</ele>
        <time>2013-06-05T07:47:25Z</time>
      </trkpt>
      <trkpt lat="42.75588" lon="0.11319">
        <ele>2278</ele>
        <time>2013-06-05T07:47:39Z</time>
      </trkpt>
      <trkpt lat="42.75588" lon="0.11324">
        <ele>2278</ele>
        <time>2013-06-05T07:47:42Z</time>
      </trkpt>
      <trkpt lat="42.75587" lon="0.11334">
        <ele>2279</ele>
        <time>2013-06-05T07:47:50Z</time>
      </trkpt>
      <trkpt lat="42.75586" lon="0.11346">
        <ele>2279</ele>
        <time>2013-06-05T07:47:59Z</time>
      </trkpt>
      <trkpt lat="42.75586" lon="0.11347">
        <ele>2279</ele>
        <time>2013-06-05T07:48:00Z</time>
      </trkpt>
      <trkpt lat="42.75586" lon="0.11351">
        <ele>2279</ele>
        <time>2013-06-05T07:48:03Z</time>
      </trkpt>
      <trkpt lat="42.75585" lon="0.11359">
        <ele>2279</ele>
        <time>2013-06-05T07:48:09Z</time>
      </trkpt>
      <trkpt lat="42.75586" lon="0.11369">
        <ele>2279</ele>
        <time>2013-06-05T07:48:16Z</time>
      </trkpt>
      <trkpt lat="42.75587" lon="0.11372">
        <ele>2280</ele>
        <time>2013-06-05T07:48:19Z</time>
      </trkpt>
      <trkpt lat="42.75586" lon="0.11382">
        <ele>2279</ele>
        <time>2013-06-05T07:48:27Z</time>
      </trkpt>
      <trkpt lat="42.75585" lon="0.11384">
        <ele>2280</ele>
        <time>2013-06-05T07:48:29Z</time>
      </trkpt>
      <trkpt lat="42.75584" lon="0.11394">
        <ele>2280</ele>
        <time>2013-06-05T07:48:36Z</time>
      </trkpt>
      <trkpt lat="42.75584" lon="0.11396">
        <ele>2280</ele>
        <time>2013-06-05T07:48:38Z</time>
      </trkpt>
      <trkpt lat="42.75583" lon="0.11401">
        <ele>2280</ele>
        <time>2013-06-05T07:48:42Z</time>
      </trkpt>
      <trkpt lat="42.75582" lon="0.11408">
        <ele>2281</ele>
        <time>2013-06-05T07:48:47Z</time>
      </trkpt>
      <trkpt lat="42.75582" lon="0.11415">
        <ele>2281</ele>
        <time>2013-06-05T07:48:53Z</time>
      </trkpt>
      <trkpt lat="42.75581" lon="0.11424">
        <ele>2282</ele>
        <time>2013-06-05T07:49:01Z</time>
      </trkpt>
      <trkpt lat="42.75579" lon="0.11432">
        <ele>2283</ele>
        <time>2013-06-05T07:49:08Z</time>
      </trkpt>
      <trkpt lat="42.75579" lon="0.11438">
        <ele>2284</ele>
        <time>2013-06-05T07:49:14Z</time>
      </trkpt>
      <trkpt lat="42.75579" lon="0.11443">
        <ele>2285</ele>
        <time>2013-06-05T07:49:20Z</time>
      </trkpt>
      <trkpt lat="42.75577" lon="0.11453">
        <ele>2287</ele>
        <time>2013-06-05T07:49:30Z</time>
      </trkpt>
      <trkpt lat="42.75578" lon="0.11461">
        <ele>2288</ele>
        <time>2013-06-05T07:49:38Z</time>
      </trkpt>
      <trkpt lat="42.75576" lon="0.11467">
        <ele>2289</ele>
        <time>2013-06-05T07:49:45Z</time>
      </trkpt>
      <trkpt lat="42.75573" lon="0.11471">
        <ele>2290</ele>
        <time>2013-06-05T07:49:52Z</time>
      </trkpt>
      <trkpt lat="42.75569" lon="0.11473">
        <ele>2292</ele>
        <time>2013-06-05T07:49:59Z</time>
      </trkpt>
      <trkpt lat="42.75568" lon="0.11479">
        <ele>2292</ele>
        <time>2013-06-05T07:50:06Z</time>
      </trkpt>
      <trkpt lat="42.75567" lon="0.11483">
        <ele>2293</ele>
        <time>2013-06-05T07:50:12Z</time>
      </trkpt>
      <trkpt lat="42.75564" lon="0.11489">
        <ele>2295</ele>
        <time>2013-06-05T07:50:22Z</time>
      </trkpt>
      <trkpt lat="42.75563" lon="0.11491">
        <ele>2295</ele>
        <time>2013-06-05T07:50:24Z</time>
      </trkpt>
      <trkpt lat="42.7556" lon="0.11498">
        <ele>2296</ele>
        <time>2013-06-05T07:50:33Z</time>
      </trkpt>
      <trkpt lat="42.7556" lon="0.115">
        <ele>2296</ele>
        <time>2013-06-05T07:50:40Z</time>
      </trkpt>
      <trkpt lat="42.75559" lon="0.115">
        <ele>2296</ele>
        <time>2013-06-05T07:50:51Z</time>
      </trkpt>
      <trkpt lat="42.7556" lon="0.11507">
        <ele>2297</ele>
        <time>2013-06-05T07:50:58Z</time>
      </trkpt>
      <trkpt lat="42.75557" lon="0.11512">
        <ele>2297</ele>
        <time>2013-06-05T07:51:04Z</time>
      </trkpt>
      <trkpt lat="42.75555" lon="0.11518">
        <ele>2298</ele>
        <time>2013-06-05T07:51:11Z</time>
      </trkpt>
      <trkpt lat="42.75553" lon="0.11523">
        <ele>2298</ele>
        <time>2013-06-05T07:51:18Z</time>
      </trkpt>
      <trkpt lat="42.75552" lon="0.11521">
        <ele>2298</ele>
        <time>2013-06-05T07:51:25Z</time>
      </trkpt>
      <trkpt lat="42.75551" lon="0.11521">
        <ele>2298</ele>
        <time>2013-06-05T07:51:34Z</time>
      </trkpt>
      <trkpt lat="42.7555" lon="0.11527">
        <ele>2298</ele>
        <time>2013-06-05T07:51:39Z</time>
      </trkpt>
      <trkpt lat="42.75549" lon="0.11533">
        <ele>2299</ele>
        <time>2013-06-05T07:51:46Z</time>
      </trkpt>
      <trkpt lat="42.75545" lon="0.11538">
        <ele>2301</ele>
        <time>2013-06-05T07:51:53Z</time>
      </trkpt>
      <trkpt lat="42.75543" lon="0.11543">
        <ele>2302</ele>
        <time>2013-06-05T07:52:00Z</time>
      </trkpt>
      <trkpt lat="42.75539" lon="0.11546">
        <ele>2303</ele>
        <time>2013-06-05T07:52:07Z</time>
      </trkpt>
      <trkpt lat="42.75535" lon="0.11549">
        <ele>2304</ele>
        <time>2013-06-05T07:52:14Z</time>
      </trkpt>
      <trkpt lat="42.75531" lon="0.1155">
        <ele>2306</ele>
        <time>2013-06-05T07:52:20Z</time>
      </trkpt>
      <trkpt lat="42.75525" lon="0.11555">
        <ele>2307</ele>
        <time>2013-06-05T07:52:29Z</time>
      </trkpt>
      <trkpt lat="42.75521" lon="0.11559">
        <ele>2308</ele>
        <time>2013-06-05T07:52:36Z</time>
      </trkpt>
      <trkpt lat="42.75518" lon="0.11563">
        <ele>2309</ele>
        <time>2013-06-05T07:52:43Z</time>
      </trkpt>
      <trkpt lat="42.75514" lon="0.11568">
        <ele>2310</ele>
        <time>2013-06-05T07:52:50Z</time>
      </trkpt>
      <trkpt lat="42.75509" lon="0.11575">
        <ele>2313</ele>
        <time>2013-06-05T07:52:59Z</time>
      </trkpt>
      <trkpt lat="42.75505" lon="0.11581">
        <ele>2314</ele>
        <time>2013-06-05T07:53:09Z</time>
      </trkpt>
      <trkpt lat="42.75501" lon="0.11587">
        <ele>2315</ele>
        <time>2013-06-05T07:53:19Z</time>
      </trkpt>
      <trkpt lat="42.75496" lon="0.11593">
        <ele>2316</ele>
        <time>2013-06-05T07:53:30Z</time>
      </trkpt>
      <trkpt lat="42.75489" lon="0.11597">
        <ele>2316</ele>
        <time>2013-06-05T07:53:38Z</time>
      </trkpt>
      <trkpt lat="42.75483" lon="0.11603">
        <ele>2317</ele>
        <time>2013-06-05T07:53:48Z</time>
      </trkpt>
      <trkpt lat="42.75481" lon="0.11606">
        <ele>2319</ele>
        <time>2013-06-05T07:53:55Z</time>
      </trkpt>
      <trkpt lat="42.7548" lon="0.11608">
        <ele>2319</ele>
        <time>2013-06-05T07:54:03Z</time>
      </trkpt>
      <trkpt lat="42.75476" lon="0.11615">
        <ele>2320</ele>
        <time>2013-06-05T07:54:11Z</time>
      </trkpt>
      <trkpt lat="42.75474" lon="0.11619">
        <ele>2321</ele>
        <time>2013-06-05T07:54:17Z</time>
      </trkpt>
      <trkpt lat="42.7547" lon="0.11626">
        <ele>2322</ele>
        <time>2013-06-05T07:54:26Z</time>
      </trkpt>
      <trkpt lat="42.75466" lon="0.11632">
        <ele>2323</ele>
        <time>2013-06-05T07:54:36Z</time>
      </trkpt>
      <trkpt lat="42.75462" lon="0.11636">
        <ele>2324</ele>
        <time>2013-06-05T07:54:43Z</time>
      </trkpt>
      <trkpt lat="42.7546" lon="0.11638">
        <ele>2325</ele>
        <time>2013-06-05T07:54:45Z</time>
      </trkpt>
      <trkpt lat="42.75459" lon="0.11639">
        <ele>2324</ele>
        <time>2013-06-05T07:54:47Z</time>
      </trkpt>
      <trkpt lat="42.75456" lon="0.11645">
        <ele>2325</ele>
        <time>2013-06-05T07:54:54Z</time>
      </trkpt>
      <trkpt lat="42.75453" lon="0.11649">
        <ele>2326</ele>
        <time>2013-06-05T07:55:02Z</time>
      </trkpt>
      <trkpt lat="42.7545" lon="0.11655">
        <ele>2327</ele>
        <time>2013-06-05T07:55:09Z</time>
      </trkpt>
      <trkpt lat="42.75447" lon="0.11662">
        <ele>2328</ele>
        <time>2013-06-05T07:55:18Z</time>
      </trkpt>
      <trkpt lat="42.75444" lon="0.11667">
        <ele>2329</ele>
        <time>2013-06-05T07:55:26Z</time>
      </trkpt>
      <trkpt lat="42.75442" lon="0.1167">
        <ele>2330</ele>
        <time>2013-06-05T07:55:32Z</time>
      </trkpt>
      <trkpt lat="42.7544" lon="0.11675">
        <ele>2331</ele>
        <time>2013-06-05T07:55:40Z</time>
      </trkpt>
      <trkpt lat="42.75436" lon="0.11678">
        <ele>2332</ele>
        <time>2013-06-05T07:55:47Z</time>
      </trkpt>
      <trkpt lat="42.75431" lon="0.11678">
        <ele>2334</ele>
        <time>2013-06-05T07:55:55Z</time>
      </trkpt>
      <trkpt lat="42.75428" lon="0.11683">
        <ele>2335</ele>
        <time>2013-06-05T07:56:03Z</time>
      </trkpt>
      <trkpt lat="42.75423" lon="0.11684">
        <ele>2336</ele>
        <time>2013-06-05T07:56:14Z</time>
      </trkpt>
      <trkpt lat="42.75416" lon="0.11684">
        <ele>2336</ele>
        <time>2013-06-05T07:56:22Z</time>
      </trkpt>
      <trkpt lat="42.75415" lon="0.11689">
        <ele>2337</ele>
        <time>2013-06-05T07:56:30Z</time>
      </trkpt>
      <trkpt lat="42.75411" lon="0.1169">
        <ele>2339</ele>
        <time>2013-06-05T07:56:38Z</time>
      </trkpt>
      <trkpt lat="42.75407" lon="0.11694">
        <ele>2339</ele>
        <time>2013-06-05T07:56:45Z</time>
      </trkpt>
      <trkpt lat="42.75403" lon="0.11698">
        <ele>2340</ele>
        <time>2013-06-05T07:56:52Z</time>
      </trkpt>
      <trkpt lat="42.75399" lon="0.11701">
        <ele>2341</ele>
        <time>2013-06-05T07:56:58Z</time>
      </trkpt>
      <trkpt lat="42.75393" lon="0.11703">
        <ele>2342</ele>
        <time>2013-06-05T07:57:06Z</time>
      </trkpt>
      <trkpt lat="42.75393" lon="0.11706">
        <ele>2343</ele>
        <time>2013-06-05T07:57:12Z</time>
      </trkpt>
      <trkpt lat="42.75388" lon="0.11708">
        <ele>2344</ele>
        <time>2013-06-05T07:57:19Z</time>
      </trkpt>
      <trkpt lat="42.75383" lon="0.11714">
        <ele>2345</ele>
        <time>2013-06-05T07:57:28Z</time>
      </trkpt>
      <trkpt lat="42.75383" lon="0.11714">
        <ele>2346</ele>
        <time>2013-06-05T07:57:36Z</time>
      </trkpt>
      <trkpt lat="42.75377" lon="0.11719">
        <ele>2347</ele>
        <time>2013-06-05T07:57:46Z</time>
      </trkpt>
      <trkpt lat="42.75372" lon="0.11722">
        <ele>2348</ele>
        <time>2013-06-05T07:57:55Z</time>
      </trkpt>
      <trkpt lat="42.75372" lon="0.11726">
        <ele>2349</ele>
        <time>2013-06-05T07:58:04Z</time>
      </trkpt>
      <trkpt lat="42.75368" lon="0.11727">
        <ele>2350</ele>
        <time>2013-06-05T07:58:11Z</time>
      </trkpt>
      <trkpt lat="42.75359" lon="0.11728">
        <ele>2351</ele>
        <time>2013-06-05T07:58:18Z</time>
      </trkpt>
      <trkpt lat="42.75352" lon="0.11733">
        <ele>2352</ele>
        <time>2013-06-05T07:58:26Z</time>
      </trkpt>
      <trkpt lat="42.75352" lon="0.11734">
        <ele>2352</ele>
        <time>2013-06-05T07:58:27Z</time>
      </trkpt>
      <trkpt lat="42.7535" lon="0.11734">
        <ele>2352</ele>
        <time>2013-06-05T07:58:30Z</time>
      </trkpt>
      <trkpt lat="42.75345" lon="0.11742">
        <ele>2353</ele>
        <time>2013-06-05T07:58:40Z</time>
      </trkpt>
      <trkpt lat="42.75343" lon="0.11744">
        <ele>2353</ele>
        <time>2013-06-05T07:58:46Z</time>
      </trkpt>
      <trkpt lat="42.75339" lon="0.11737">
        <ele>2354</ele>
        <time>2013-06-05T07:58:52Z</time>
      </trkpt>
      <trkpt lat="42.75337" lon="0.11731">
        <ele>2356</ele>
        <time>2013-06-05T07:59:01Z</time>
      </trkpt>
      <trkpt lat="42.75336" lon="0.11726">
        <ele>2357</ele>
        <time>2013-06-05T07:59:07Z</time>
      </trkpt>
      <trkpt lat="42.75335" lon="0.1172">
        <ele>2357</ele>
        <time>2013-06-05T07:59:14Z</time>
      </trkpt>
      <trkpt lat="42.75333" lon="0.11717">
        <ele>2358</ele>
        <time>2013-06-05T07:59:16Z</time>
      </trkpt>
      <trkpt lat="42.75332" lon="0.11708">
        <ele>2358</ele>
        <time>2013-06-05T07:59:24Z</time>
      </trkpt>
      <trkpt lat="42.75333" lon="0.11704">
        <ele>2359</ele>
        <time>2013-06-05T07:59:30Z</time>
      </trkpt>
      <trkpt lat="42.75333" lon="0.11698">
        <ele>2360</ele>
        <time>2013-06-05T07:59:36Z</time>
      </trkpt>
      <trkpt lat="42.75329" lon="0.11697">
        <ele>2362</ele>
        <time>2013-06-05T07:59:44Z</time>
      </trkpt>
      <trkpt lat="42.75329" lon="0.11702">
        <ele>2363</ele>
        <time>2013-06-05T07:59:52Z</time>
      </trkpt>
      <trkpt lat="42.75325" lon="0.11705">
        <ele>2364</ele>
        <time>2013-06-05T08:00:00Z</time>
      </trkpt>
      <trkpt lat="42.75322" lon="0.11708">
        <ele>2365</ele>
        <time>2013-06-05T08:00:06Z</time>
      </trkpt>
      <trkpt lat="42.75317" lon="0.11716">
        <ele>2365</ele>
        <time>2013-06-05T08:00:18Z</time>
      </trkpt>
      <trkpt lat="42.75312" lon="0.11719">
        <ele>2366</ele>
        <time>2013-06-05T08:00:24Z</time>
      </trkpt>
      <trkpt lat="42.7531" lon="0.1172">
        <ele>2367</ele>
        <time>2013-06-05T08:00:27Z</time>
      </trkpt>
      <trkpt lat="42.75309" lon="0.11725">
        <ele>2367</ele>
        <time>2013-06-05T08:00:35Z</time>
      </trkpt>
      <trkpt lat="42.75306" lon="0.1173">
        <ele>2368</ele>
        <time>2013-06-05T08:00:41Z</time>
      </trkpt>
      <trkpt lat="42.75303" lon="0.11735">
        <ele>2369</ele>
        <time>2013-06-05T08:00:48Z</time>
      </trkpt>
      <trkpt lat="42.75301" lon="0.11737">
        <ele>2370</ele>
        <time>2013-06-05T08:00:54Z</time>
      </trkpt>
      <trkpt lat="42.75298" lon="0.11742">
        <ele>2371</ele>
        <time>2013-06-05T08:01:02Z</time>
      </trkpt>
      <trkpt lat="42.75295" lon="0.11745">
        <ele>2371</ele>
        <time>2013-06-05T08:01:08Z</time>
      </trkpt>
      <trkpt lat="42.75294" lon="0.11751">
        <ele>2372</ele>
        <time>2013-06-05T08:01:16Z</time>
      </trkpt>
      <trkpt lat="42.7529" lon="0.11757">
        <ele>2373</ele>
        <time>2013-06-05T08:01:22Z</time>
      </trkpt>
      <trkpt lat="42.75283" lon="0.1176">
        <ele>2375</ele>
        <time>2013-06-05T08:01:30Z</time>
      </trkpt>
      <trkpt lat="42.7528" lon="0.11764">
        <ele>2376</ele>
        <time>2013-06-05T08:01:40Z</time>
      </trkpt>
      <trkpt lat="42.75275" lon="0.11766">
        <ele>2376</ele>
        <time>2013-06-05T08:01:48Z</time>
      </trkpt>
      <trkpt lat="42.75273" lon="0.11765">
        <ele>2376</ele>
        <time>2013-06-05T08:01:49Z</time>
      </trkpt>
      <trkpt lat="42.75267" lon="0.1177">
        <ele>2377</ele>
        <time>2013-06-05T08:01:57Z</time>
      </trkpt>
      <trkpt lat="42.75265" lon="0.1177">
        <ele>2377</ele>
        <time>2013-06-05T08:02:00Z</time>
      </trkpt>
      <trkpt lat="42.7526" lon="0.11769">
        <ele>2377</ele>
        <time>2013-06-05T08:02:08Z</time>
      </trkpt>
      <trkpt lat="42.75255" lon="0.1177">
        <ele>2377</ele>
        <time>2013-06-05T08:02:15Z</time>
      </trkpt>
      <trkpt lat="42.75248" lon="0.1177">
        <ele>2378</ele>
        <time>2013-06-05T08:02:23Z</time>
      </trkpt>
      <trkpt lat="42.75244" lon="0.11771">
        <ele>2378</ele>
        <time>2013-06-05T08:02:29Z</time>
      </trkpt>
      <trkpt lat="42.75237" lon="0.11773">
        <ele>2378</ele>
        <time>2013-06-05T08:02:37Z</time>
      </trkpt>
      <trkpt lat="42.75232" lon="0.11776">
        <ele>2379</ele>
        <time>2013-06-05T08:02:45Z</time>
      </trkpt>
      <trkpt lat="42.75225" lon="0.11781">
        <ele>2380</ele>
        <time>2013-06-05T08:02:54Z</time>
      </trkpt>
      <trkpt lat="42.75217" lon="0.11783">
        <ele>2381</ele>
        <time>2013-06-05T08:03:03Z</time>
      </trkpt>
      <trkpt lat="42.75213" lon="0.11787">
        <ele>2382</ele>
        <time>2013-06-05T08:03:10Z</time>
      </trkpt>
      <trkpt lat="42.75207" lon="0.11789">
        <ele>2382</ele>
        <time>2013-06-05T08:03:17Z</time>
      </trkpt>
      <trkpt lat="42.75202" lon="0.11795">
        <ele>2383</ele>
        <time>2013-06-05T08:03:26Z</time>
      </trkpt>
      <trkpt lat="42.75197" lon="0.118">
        <ele>2383</ele>
        <time>2013-06-05T08:03:35Z</time>
      </trkpt>
      <trkpt lat="42.75195" lon="0.11805">
        <ele>2384</ele>
        <time>2013-06-05T08:03:42Z</time>
      </trkpt>
      <trkpt lat="42.75194" lon="0.1181">
        <ele>2385</ele>
        <time>2013-06-05T08:03:49Z</time>
      </trkpt>
      <trkpt lat="42.75188" lon="0.11816">
        <ele>2385</ele>
        <time>2013-06-05T08:03:59Z</time>
      </trkpt>
      <trkpt lat="42.75186" lon="0.11821">
        <ele>2386</ele>
        <time>2013-06-05T08:04:07Z</time>
      </trkpt>
      <trkpt lat="42.75182" lon="0.11828">
        <ele>2387</ele>
        <time>2013-06-05T08:04:15Z</time>
      </trkpt>
      <trkpt lat="42.75177" lon="0.11833">
        <ele>2388</ele>
        <time>2013-06-05T08:04:25Z</time>
      </trkpt>
      <trkpt lat="42.75175" lon="0.11837">
        <ele>2389</ele>
        <time>2013-06-05T08:04:33Z</time>
      </trkpt>
      <trkpt lat="42.75172" lon="0.11843">
        <ele>2390</ele>
        <time>2013-06-05T08:04:43Z</time>
      </trkpt>
      <trkpt lat="42.75169" lon="0.11849">
        <ele>2390</ele>
        <time>2013-06-05T08:04:49Z</time>
      </trkpt>
      <trkpt lat="42.75167" lon="0.11855">
        <ele>2391</ele>
        <time>2013-06-05T08:04:58Z</time>
      </trkpt>
      <trkpt lat="42.75163" lon="0.11862">
        <ele>2392</ele>
        <time>2013-06-05T08:05:06Z</time>
      </trkpt>
      <trkpt lat="42.7516" lon="0.11867">
        <ele>2392</ele>
        <time>2013-06-05T08:05:14Z</time>
      </trkpt>
      <trkpt lat="42.75155" lon="0.11873">
        <ele>2393</ele>
        <time>2013-06-05T08:05:23Z</time>
      </trkpt>
      <trkpt lat="42.75152" lon="0.11878">
        <ele>2393</ele>
        <time>2013-06-05T08:05:31Z</time>
      </trkpt>
      <trkpt lat="42.75148" lon="0.11883">
        <ele>2394</ele>
        <time>2013-06-05T08:05:39Z</time>
      </trkpt>
      <trkpt lat="42.75144" lon="0.11888">
        <ele>2394</ele>
        <time>2013-06-05T08:05:47Z</time>
      </trkpt>
      <trkpt lat="42.7514" lon="0.11896">
        <ele>2395</ele>
        <time>2013-06-05T08:05:56Z</time>
      </trkpt>
      <trkpt lat="42.75136" lon="0.119">
        <ele>2396</ele>
        <time>2013-06-05T08:06:04Z</time>
      </trkpt>
      <trkpt lat="42.75134" lon="0.11904">
        <ele>2397</ele>
        <time>2013-06-05T08:06:08Z</time>
      </trkpt>
      <trkpt lat="42.75131" lon="0.11911">
        <ele>2397</ele>
        <time>2013-06-05T08:06:17Z</time>
      </trkpt>
      <trkpt lat="42.75129" lon="0.11916">
        <ele>2398</ele>
        <time>2013-06-05T08:06:24Z</time>
      </trkpt>
      <trkpt lat="42.75127" lon="0.11922">
        <ele>2398</ele>
        <time>2013-06-05T08:06:31Z</time>
      </trkpt>
      <trkpt lat="42.75125" lon="0.11925">
        <ele>2399</ele>
        <time>2013-06-05T08:06:34Z</time>
      </trkpt>
      <trkpt lat="42.75123" lon="0.1193">
        <ele>2399</ele>
        <time>2013-06-05T08:06:41Z</time>
      </trkpt>
      <trkpt lat="42.75119" lon="0.11937">
        <ele>2400</ele>
        <time>2013-06-05T08:06:50Z</time>
      </trkpt>
      <trkpt lat="42.75117" lon="0.11943">
        <ele>2401</ele>
        <time>2013-06-05T08:06:58Z</time>
      </trkpt>
      <trkpt lat="42.75114" lon="0.11948">
        <ele>2401</ele>
        <time>2013-06-05T08:07:06Z</time>
      </trkpt>
      <trkpt lat="42.7511" lon="0.11954">
        <ele>2402</ele>
        <time>2013-06-05T08:07:13Z</time>
      </trkpt>
      <trkpt lat="42.75107" lon="0.11958">
        <ele>2402</ele>
        <time>2013-06-05T08:07:19Z</time>
      </trkpt>
      <trkpt lat="42.75105" lon="0.1196">
        <ele>2402</ele>
        <time>2013-06-05T08:07:27Z</time>
      </trkpt>
      <trkpt lat="42.75106" lon="0.1196">
        <ele>2404</ele>
        <time>2013-06-05T08:07:39Z</time>
      </trkpt>
      <trkpt lat="42.75106" lon="0.1196">
        <ele>2403</ele>
        <time>2013-06-05T08:07:52Z</time>
      </trkpt>
      <trkpt lat="42.75107" lon="0.1196">
        <ele>2403</ele>
        <time>2013-06-05T08:08:09Z</time>
      </trkpt>
      <trkpt lat="42.75106" lon="0.11961">
        <ele>2404</ele>
        <time>2013-06-05T08:08:19Z</time>
      </trkpt>
      <trkpt lat="42.75107" lon="0.1196">
        <ele>2404</ele>
        <time>2013-06-05T08:08:33Z</time>
      </trkpt>
      <trkpt lat="42.75106" lon="0.11962">
        <ele>2404</ele>
        <time>2013-06-05T08:08:40Z</time>
      </trkpt>
      <trkpt lat="42.75106" lon="0.11963">
        <ele>2404</ele>
        <time>2013-06-05T08:08:47Z</time>
      </trkpt>
      <trkpt lat="42.75104" lon="0.11968">
        <ele>2404</ele>
        <time>2013-06-05T08:08:55Z</time>
      </trkpt>
      <trkpt lat="42.75104" lon="0.11968">
        <ele>2405</ele>
        <time>2013-06-05T08:09:01Z</time>
      </trkpt>
      <trkpt lat="42.75104" lon="0.11971">
        <ele>2405</ele>
        <time>2013-06-05T08:09:09Z</time>
      </trkpt>
      <trkpt lat="42.751" lon="0.11976">
        <ele>2406</ele>
        <time>2013-06-05T08:09:17Z</time>
      </trkpt>
      <trkpt lat="42.75098" lon="0.11981">
        <ele>2406</ele>
        <time>2013-06-05T08:09:23Z</time>
      </trkpt>
      <trkpt lat="42.75098" lon="0.11986">
        <ele>2406</ele>
        <time>2013-06-05T08:09:27Z</time>
      </trkpt>
      <trkpt lat="42.75095" lon="0.11993">
        <ele>2407</ele>
        <time>2013-06-05T08:09:35Z</time>
      </trkpt>
      <trkpt lat="42.75093" lon="0.12002">
        <ele>2408</ele>
        <time>2013-06-05T08:09:43Z</time>
      </trkpt>
      <trkpt lat="42.7509" lon="0.12012">
        <ele>2410</ele>
        <time>2013-06-05T08:09:52Z</time>
      </trkpt>
      <trkpt lat="42.75089" lon="0.12019">
        <ele>2410</ele>
        <time>2013-06-05T08:09:59Z</time>
      </trkpt>
      <trkpt lat="42.75088" lon="0.12022">
        <ele>2411</ele>
        <time>2013-06-05T08:10:06Z</time>
      </trkpt>
      <trkpt lat="42.75088" lon="0.12021">
        <ele>2411</ele>
        <time>2013-06-05T08:10:14Z</time>
      </trkpt>
      <trkpt lat="42.7509" lon="0.12023">
        <ele>2411</ele>
        <time>2013-06-05T08:10:21Z</time>
      </trkpt>
      <trkpt lat="42.75088" lon="0.12029">
        <ele>2411</ele>
        <time>2013-06-05T08:10:27Z</time>
      </trkpt>
      <trkpt lat="42.75084" lon="0.1204">
        <ele>2411</ele>
        <time>2013-06-05T08:10:36Z</time>
      </trkpt>
      <trkpt lat="42.75083" lon="0.12043">
        <ele>2412</ele>
        <time>2013-06-05T08:10:39Z</time>
      </trkpt>
      <trkpt lat="42.75082" lon="0.12051">
        <ele>2413</ele>
        <time>2013-06-05T08:10:47Z</time>
      </trkpt>
      <trkpt lat="42.75082" lon="0.12053">
        <ele>2413</ele>
        <time>2013-06-05T08:10:49Z</time>
      </trkpt>
      <trkpt lat="42.75081" lon="0.12059">
        <ele>2414</ele>
        <time>2013-06-05T08:10:55Z</time>
      </trkpt>
      <trkpt lat="42.75078" lon="0.12066">
        <ele>2414</ele>
        <time>2013-06-05T08:11:03Z</time>
      </trkpt>
      <trkpt lat="42.75077" lon="0.1207">
        <ele>2415</ele>
        <time>2013-06-05T08:11:09Z</time>
      </trkpt>
      <trkpt lat="42.75076" lon="0.12071">
        <ele>2415</ele>
        <time>2013-06-05T08:11:22Z</time>
      </trkpt>
      <trkpt lat="42.75075" lon="0.12074">
        <ele>2415</ele>
        <time>2013-06-05T08:11:29Z</time>
      </trkpt>
      <trkpt lat="42.75074" lon="0.12079">
        <ele>2416</ele>
        <time>2013-06-05T08:11:32Z</time>
      </trkpt>
      <trkpt lat="42.75073" lon="0.12086">
        <ele>2417</ele>
        <time>2013-06-05T08:11:40Z</time>
      </trkpt>
      <trkpt lat="42.75073" lon="0.12087">
        <ele>2416</ele>
        <time>2013-06-05T08:11:46Z</time>
      </trkpt>
      <trkpt lat="42.75071" lon="0.12092">
        <ele>2417</ele>
        <time>2013-06-05T08:11:52Z</time>
      </trkpt>
      <trkpt lat="42.7507" lon="0.12097">
        <ele>2419</ele>
        <time>2013-06-05T08:12:00Z</time>
      </trkpt>
      <trkpt lat="42.7507" lon="0.12098">
        <ele>2419</ele>
        <time>2013-06-05T08:12:10Z</time>
      </trkpt>
      <trkpt lat="42.75068" lon="0.12101">
        <ele>2418</ele>
        <time>2013-06-05T08:12:21Z</time>
      </trkpt>
      <trkpt lat="42.75068" lon="0.12106">
        <ele>2419</ele>
        <time>2013-06-05T08:12:26Z</time>
      </trkpt>
      <trkpt lat="42.75068" lon="0.12113">
        <ele>2420</ele>
        <time>2013-06-05T08:12:33Z</time>
      </trkpt>
      <trkpt lat="42.75066" lon="0.12115">
        <ele>2420</ele>
        <time>2013-06-05T08:12:39Z</time>
      </trkpt>
      <trkpt lat="42.75067" lon="0.12117">
        <ele>2420</ele>
        <time>2013-06-05T08:12:53Z</time>
      </trkpt>
      <trkpt lat="42.75063" lon="0.12126">
        <ele>2421</ele>
        <time>2013-06-05T08:13:01Z</time>
      </trkpt>
      <trkpt lat="42.75056" lon="0.12132">
        <ele>2422</ele>
        <time>2013-06-05T08:13:09Z</time>
      </trkpt>
      <trkpt lat="42.75053" lon="0.1214">
        <ele>2423</ele>
        <time>2013-06-05T08:13:17Z</time>
      </trkpt>
      <trkpt lat="42.7505" lon="0.12142">
        <ele>2424</ele>
        <time>2013-06-05T08:13:24Z</time>
      </trkpt>
      <trkpt lat="42.7505" lon="0.12139">
        <ele>2424</ele>
        <time>2013-06-05T08:13:37Z</time>
      </trkpt>
      <trkpt lat="42.75051" lon="0.12143">
        <ele>2424</ele>
        <time>2013-06-05T08:13:43Z</time>
      </trkpt>
      <trkpt lat="42.75051" lon="0.12146">
        <ele>2425</ele>
        <time>2013-06-05T08:13:48Z</time>
      </trkpt>
      <trkpt lat="42.75051" lon="0.12153">
        <ele>2425</ele>
        <time>2013-06-05T08:13:56Z</time>
      </trkpt>
      <trkpt lat="42.75045" lon="0.12155">
        <ele>2426</ele>
        <time>2013-06-05T08:14:03Z</time>
      </trkpt>
      <trkpt lat="42.75042" lon="0.12163">
        <ele>2426</ele>
        <time>2013-06-05T08:14:11Z</time>
      </trkpt>
      <trkpt lat="42.75039" lon="0.12164">
        <ele>2427</ele>
        <time>2013-06-05T08:14:13Z</time>
      </trkpt>
      <trkpt lat="42.75036" lon="0.12166">
        <ele>2427</ele>
        <time>2013-06-05T08:14:17Z</time>
      </trkpt>
      <trkpt lat="42.75032" lon="0.12173">
        <ele>2429</ele>
        <time>2013-06-05T08:14:27Z</time>
      </trkpt>
      <trkpt lat="42.75027" lon="0.12177">
        <ele>2430</ele>
        <time>2013-06-05T08:14:37Z</time>
      </trkpt>
      <trkpt lat="42.75025" lon="0.12182">
        <ele>2432</ele>
        <time>2013-06-05T08:14:45Z</time>
      </trkpt>
      <trkpt lat="42.75023" lon="0.12191">
        <ele>2433</ele>
        <time>2013-06-05T08:14:55Z</time>
      </trkpt>
      <trkpt lat="42.75021" lon="0.12197">
        <ele>2433</ele>
        <time>2013-06-05T08:15:04Z</time>
      </trkpt>
      <trkpt lat="42.75017" lon="0.12201">
        <ele>2435</ele>
        <time>2013-06-05T08:15:12Z</time>
      </trkpt>
      <trkpt lat="42.75017" lon="0.12207">
        <ele>2436</ele>
        <time>2013-06-05T08:15:20Z</time>
      </trkpt>
      <trkpt lat="42.75015" lon="0.12206">
        <ele>2436</ele>
        <time>2013-06-05T08:15:29Z</time>
      </trkpt>
      <trkpt lat="42.75016" lon="0.12207">
        <ele>2436</ele>
        <time>2013-06-05T08:15:44Z</time>
      </trkpt>
      <trkpt lat="42.75011" lon="0.12211">
        <ele>2437</ele>
        <time>2013-06-05T08:15:52Z</time>
      </trkpt>
      <trkpt lat="42.75013" lon="0.12212">
        <ele>2437</ele>
        <time>2013-06-05T08:16:01Z</time>
      </trkpt>
      <trkpt lat="42.7501" lon="0.1221">
        <ele>2437</ele>
        <time>2013-06-05T08:16:10Z</time>
      </trkpt>
      <trkpt lat="42.75009" lon="0.12212">
        <ele>2438</ele>
        <time>2013-06-05T08:16:18Z</time>
      </trkpt>
      <trkpt lat="42.75006" lon="0.1222">
        <ele>2438</ele>
        <time>2013-06-05T08:16:27Z</time>
      </trkpt>
      <trkpt lat="42.75" lon="0.12228">
        <ele>2439</ele>
        <time>2013-06-05T08:16:35Z</time>
      </trkpt>
      <trkpt lat="42.74996" lon="0.12231">
        <ele>2439</ele>
        <time>2013-06-05T08:16:41Z</time>
      </trkpt>
      <trkpt lat="42.74994" lon="0.12236">
        <ele>2440</ele>
        <time>2013-06-05T08:16:47Z</time>
      </trkpt>
      <trkpt lat="42.74988" lon="0.12243">
        <ele>2441</ele>
        <time>2013-06-05T08:16:55Z</time>
      </trkpt>
      <trkpt lat="42.74985" lon="0.12245">
        <ele>2442</ele>
        <time>2013-06-05T08:17:02Z</time>
      </trkpt>
      <trkpt lat="42.74982" lon="0.12253">
        <ele>2443</ele>
        <time>2013-06-05T08:17:09Z</time>
      </trkpt>
      <trkpt lat="42.74978" lon="0.12258">
        <ele>2444</ele>
        <time>2013-06-05T08:17:16Z</time>
      </trkpt>
      <trkpt lat="42.74974" lon="0.12259">
        <ele>2445</ele>
        <time>2013-06-05T08:17:22Z</time>
      </trkpt>
      <trkpt lat="42.74971" lon="0.12266">
        <ele>2446</ele>
        <time>2013-06-05T08:17:30Z</time>
      </trkpt>
      <trkpt lat="42.74966" lon="0.12269">
        <ele>2448</ele>
        <time>2013-06-05T08:17:36Z</time>
      </trkpt>
      <trkpt lat="42.74964" lon="0.12273">
        <ele>2448</ele>
        <time>2013-06-05T08:17:42Z</time>
      </trkpt>
      <trkpt lat="42.74963" lon="0.12278">
        <ele>2449</ele>
        <time>2013-06-05T08:17:48Z</time>
      </trkpt>
      <trkpt lat="42.7496" lon="0.12285">
        <ele>2450</ele>
        <time>2013-06-05T08:17:54Z</time>
      </trkpt>
      <trkpt lat="42.74958" lon="0.12293">
        <ele>2451</ele>
        <time>2013-06-05T08:18:02Z</time>
      </trkpt>
      <trkpt lat="42.74955" lon="0.12297">
        <ele>2452</ele>
        <time>2013-06-05T08:18:10Z</time>
      </trkpt>
      <trkpt lat="42.74955" lon="0.123">
        <ele>2453</ele>
        <time>2013-06-05T08:18:12Z</time>
      </trkpt>
      <trkpt lat="42.74953" lon="0.12307">
        <ele>2453</ele>
        <time>2013-06-05T08:18:20Z</time>
      </trkpt>
      <trkpt lat="42.7495" lon="0.12314">
        <ele>2455</ele>
        <time>2013-06-05T08:18:27Z</time>
      </trkpt>
      <trkpt lat="42.74947" lon="0.12321">
        <ele>2456</ele>
        <time>2013-06-05T08:18:36Z</time>
      </trkpt>
      <trkpt lat="42.74943" lon="0.12328">
        <ele>2457</ele>
        <time>2013-06-05T08:18:44Z</time>
      </trkpt>
      <trkpt lat="42.74941" lon="0.12332">
        <ele>2458</ele>
        <time>2013-06-05T08:18:52Z</time>
      </trkpt>
      <trkpt lat="42.74942" lon="0.12336">
        <ele>2459</ele>
        <time>2013-06-05T08:18:59Z</time>
      </trkpt>
      <trkpt lat="42.74941" lon="0.12341">
        <ele>2460</ele>
        <time>2013-06-05T08:19:07Z</time>
      </trkpt>
      <trkpt lat="42.74937" lon="0.12348">
        <ele>2461</ele>
        <time>2013-06-05T08:19:16Z</time>
      </trkpt>
      <trkpt lat="42.74936" lon="0.12356">
        <ele>2463</ele>
        <time>2013-06-05T08:19:24Z</time>
      </trkpt>
      <trkpt lat="42.74937" lon="0.12361">
        <ele>2464</ele>
        <time>2013-06-05T08:19:31Z</time>
      </trkpt>
      <trkpt lat="42.74935" lon="0.12368">
        <ele>2465</ele>
        <time>2013-06-05T08:19:37Z</time>
      </trkpt>
      <trkpt lat="42.74933" lon="0.12374">
        <ele>2466</ele>
        <time>2013-06-05T08:19:45Z</time>
      </trkpt>
      <trkpt lat="42.74929" lon="0.1238">
        <ele>2467</ele>
        <time>2013-06-05T08:19:52Z</time>
      </trkpt>
      <trkpt lat="42.7493" lon="0.12385">
        <ele>2468</ele>
        <time>2013-06-05T08:19:58Z</time>
      </trkpt>
      <trkpt lat="42.74926" lon="0.12392">
        <ele>2470</ele>
        <time>2013-06-05T08:20:07Z</time>
      </trkpt>
      <trkpt lat="42.74925" lon="0.12399">
        <ele>2472</ele>
        <time>2013-06-05T08:20:14Z</time>
      </trkpt>
      <trkpt lat="42.74924" lon="0.12404">
        <ele>2472</ele>
        <time>2013-06-05T08:20:21Z</time>
      </trkpt>
      <trkpt lat="42.74921" lon="0.12411">
        <ele>2473</ele>
        <time>2013-06-05T08:20:29Z</time>
      </trkpt>
      <trkpt lat="42.74919" lon="0.12416">
        <ele>2474</ele>
        <time>2013-06-05T08:20:37Z</time>
      </trkpt>
      <trkpt lat="42.7492" lon="0.1242">
        <ele>2475</ele>
        <time>2013-06-05T08:20:45Z</time>
      </trkpt>
      <trkpt lat="42.74914" lon="0.1243">
        <ele>2477</ele>
        <time>2013-06-05T08:20:54Z</time>
      </trkpt>
      <trkpt lat="42.7491" lon="0.12434">
        <ele>2478</ele>
        <time>2013-06-05T08:21:01Z</time>
      </trkpt>
      <trkpt lat="42.74911" lon="0.12439">
        <ele>2479</ele>
        <time>2013-06-05T08:21:08Z</time>
      </trkpt>
      <trkpt lat="42.74906" lon="0.12447">
        <ele>2481</ele>
        <time>2013-06-05T08:21:17Z</time>
      </trkpt>
      <trkpt lat="42.74901" lon="0.1245">
        <ele>2482</ele>
        <time>2013-06-05T08:21:22Z</time>
      </trkpt>
      <trkpt lat="42.74899" lon="0.12455">
        <ele>2483</ele>
        <time>2013-06-05T08:21:30Z</time>
      </trkpt>
      <trkpt lat="42.74897" lon="0.12462">
        <ele>2484</ele>
        <time>2013-06-05T08:21:37Z</time>
      </trkpt>
      <trkpt lat="42.74894" lon="0.12467">
        <ele>2485</ele>
        <time>2013-06-05T08:21:44Z</time>
      </trkpt>
      <trkpt lat="42.74893" lon="0.12468">
        <ele>2485</ele>
        <time>2013-06-05T08:21:45Z</time>
      </trkpt>
      <trkpt lat="42.74889" lon="0.12477">
        <ele>2487</ele>
        <time>2013-06-05T08:21:54Z</time>
      </trkpt>
      <trkpt lat="42.74887" lon="0.12481">
        <ele>2487</ele>
        <time>2013-06-05T08:22:01Z</time>
      </trkpt>
      <trkpt lat="42.74886" lon="0.12483">
        <ele>2488</ele>
        <time>2013-06-05T08:22:03Z</time>
      </trkpt>
      <trkpt lat="42.74886" lon="0.12488">
        <ele>2488</ele>
        <time>2013-06-05T08:22:10Z</time>
      </trkpt>
      <trkpt lat="42.74885" lon="0.12493">
        <ele>2489</ele>
        <time>2013-06-05T08:22:16Z</time>
      </trkpt>
      <trkpt lat="42.74887" lon="0.12498">
        <ele>2490</ele>
        <time>2013-06-05T08:22:25Z</time>
      </trkpt>
      <trkpt lat="42.74887" lon="0.12504">
        <ele>2492</ele>
        <time>2013-06-05T08:22:33Z</time>
      </trkpt>
      <trkpt lat="42.74883" lon="0.12512">
        <ele>2493</ele>
        <time>2013-06-05T08:22:40Z</time>
      </trkpt>
      <trkpt lat="42.74883" lon="0.12517">
        <ele>2494</ele>
        <time>2013-06-05T08:22:47Z</time>
      </trkpt>
      <trkpt lat="42.74883" lon="0.12523">
        <ele>2495</ele>
        <time>2013-06-05T08:22:56Z</time>
      </trkpt>
      <trkpt lat="42.74879" lon="0.12522">
        <ele>2496</ele>
        <time>2013-06-05T08:23:03Z</time>
      </trkpt>
      <trkpt lat="42.74877" lon="0.12519">
        <ele>2496</ele>
        <time>2013-06-05T08:23:15Z</time>
      </trkpt>
      <trkpt lat="42.74876" lon="0.12518">
        <ele>2497</ele>
        <time>2013-06-05T08:23:22Z</time>
      </trkpt>
      <trkpt lat="42.74874" lon="0.12515">
        <ele>2497</ele>
        <time>2013-06-05T08:23:28Z</time>
      </trkpt>
      <trkpt lat="42.74871" lon="0.12509">
        <ele>2498</ele>
        <time>2013-06-05T08:23:36Z</time>
      </trkpt>
      <trkpt lat="42.74868" lon="0.12505">
        <ele>2499</ele>
        <time>2013-06-05T08:23:44Z</time>
      </trkpt>
      <trkpt lat="42.74865" lon="0.12498">
        <ele>2501</ele>
        <time>2013-06-05T08:23:53Z</time>
      </trkpt>
      <trkpt lat="42.74865" lon="0.12496">
        <ele>2500</ele>
        <time>2013-06-05T08:23:54Z</time>
      </trkpt>
      <trkpt lat="42.74859" lon="0.12486">
        <ele>2502</ele>
        <time>2013-06-05T08:24:04Z</time>
      </trkpt>
      <trkpt lat="42.74854" lon="0.1248">
        <ele>2503</ele>
        <time>2013-06-05T08:24:12Z</time>
      </trkpt>
      <trkpt lat="42.74851" lon="0.12477">
        <ele>2504</ele>
        <time>2013-06-05T08:24:18Z</time>
      </trkpt>
      <trkpt lat="42.74848" lon="0.12476">
        <ele>2505</ele>
        <time>2013-06-05T08:24:24Z</time>
      </trkpt>
      <trkpt lat="42.74845" lon="0.12476">
        <ele>2506</ele>
        <time>2013-06-05T08:24:30Z</time>
      </trkpt>
      <trkpt lat="42.74843" lon="0.1248">
        <ele>2507</ele>
        <time>2013-06-05T08:24:36Z</time>
      </trkpt>
      <trkpt lat="42.74843" lon="0.12482">
        <ele>2507</ele>
        <time>2013-06-05T08:24:38Z</time>
      </trkpt>
      <trkpt lat="42.74844" lon="0.12489">
        <ele>2509</ele>
        <time>2013-06-05T08:24:48Z</time>
      </trkpt>
      <trkpt lat="42.74847" lon="0.12494">
        <ele>2510</ele>
        <time>2013-06-05T08:24:55Z</time>
      </trkpt>
      <trkpt lat="42.74847" lon="0.12498">
        <ele>2511</ele>
        <time>2013-06-05T08:25:02Z</time>
      </trkpt>
      <trkpt lat="42.74846" lon="0.12497">
        <ele>2511</ele>
        <time>2013-06-05T08:25:13Z</time>
      </trkpt>
      <trkpt lat="42.74846" lon="0.12502">
        <ele>2512</ele>
        <time>2013-06-05T08:25:21Z</time>
      </trkpt>
      <trkpt lat="42.74843" lon="0.12507">
        <ele>2512</ele>
        <time>2013-06-05T08:25:27Z</time>
      </trkpt>
      <trkpt lat="42.74843" lon="0.12517">
        <ele>2513</ele>
        <time>2013-06-05T08:25:34Z</time>
      </trkpt>
      <trkpt lat="42.74842" lon="0.12526">
        <ele>2514</ele>
        <time>2013-06-05T08:25:42Z</time>
      </trkpt>
      <trkpt lat="42.7484" lon="0.12531">
        <ele>2515</ele>
        <time>2013-06-05T08:25:49Z</time>
      </trkpt>
      <trkpt lat="42.74838" lon="0.12535">
        <ele>2516</ele>
        <time>2013-06-05T08:25:57Z</time>
      </trkpt>
      <trkpt lat="42.74838" lon="0.12539">
        <ele>2516</ele>
        <time>2013-06-05T08:26:03Z</time>
      </trkpt>
      <trkpt lat="42.74837" lon="0.12543">
        <ele>2517</ele>
        <time>2013-06-05T08:26:10Z</time>
      </trkpt>
      <trkpt lat="42.74837" lon="0.12545">
        <ele>2517</ele>
        <time>2013-06-05T08:26:20Z</time>
      </trkpt>
      <trkpt lat="42.74837" lon="0.12551">
        <ele>2518</ele>
        <time>2013-06-05T08:26:32Z</time>
      </trkpt>
      <trkpt lat="42.74835" lon="0.12556">
        <ele>2520</ele>
        <time>2013-06-05T08:26:39Z</time>
      </trkpt>
      <trkpt lat="42.74834" lon="0.1256">
        <ele>2521</ele>
        <time>2013-06-05T08:26:46Z</time>
      </trkpt>
      <trkpt lat="42.74834" lon="0.12568">
        <ele>2522</ele>
        <time>2013-06-05T08:26:54Z</time>
      </trkpt>
      <trkpt lat="42.74834" lon="0.12567">
        <ele>2522</ele>
        <time>2013-06-05T08:27:11Z</time>
      </trkpt>
      <trkpt lat="42.74834" lon="0.12572">
        <ele>2522</ele>
        <time>2013-06-05T08:27:19Z</time>
      </trkpt>
      <trkpt lat="42.74834" lon="0.12574">
        <ele>2523</ele>
        <time>2013-06-05T08:27:25Z</time>
      </trkpt>
      <trkpt lat="42.74835" lon="0.12574">
        <ele>2525</ele>
        <time>2013-06-05T08:27:35Z</time>
      </trkpt>
      <trkpt lat="42.74835" lon="0.1258">
        <ele>2525</ele>
        <time>2013-06-05T08:27:42Z</time>
      </trkpt>
      <trkpt lat="42.74836" lon="0.12588">
        <ele>2526</ele>
        <time>2013-06-05T08:27:49Z</time>
      </trkpt>
      <trkpt lat="42.74835" lon="0.12593">
        <ele>2527</ele>
        <time>2013-06-05T08:27:57Z</time>
      </trkpt>
      <trkpt lat="42.7483" lon="0.12596">
        <ele>2529</ele>
        <time>2013-06-05T08:28:06Z</time>
      </trkpt>
      <trkpt lat="42.74825" lon="0.12598">
        <ele>2531</ele>
        <time>2013-06-05T08:28:14Z</time>
      </trkpt>
      <trkpt lat="42.74821" lon="0.12604">
        <ele>2533</ele>
        <time>2013-06-05T08:28:23Z</time>
      </trkpt>
      <trkpt lat="42.7482" lon="0.12609">
        <ele>2534</ele>
        <time>2013-06-05T08:28:29Z</time>
      </trkpt>
      <trkpt lat="42.74819" lon="0.12616">
        <ele>2535</ele>
        <time>2013-06-05T08:28:38Z</time>
      </trkpt>
      <trkpt lat="42.74817" lon="0.12626">
        <ele>2537</ele>
        <time>2013-06-05T08:28:48Z</time>
      </trkpt>
      <trkpt lat="42.74814" lon="0.12635">
        <ele>2538</ele>
        <time>2013-06-05T08:28:59Z</time>
      </trkpt>
      <trkpt lat="42.74813" lon="0.12637">
        <ele>2538</ele>
        <time>2013-06-05T08:29:01Z</time>
      </trkpt>
      <trkpt lat="42.74812" lon="0.12643">
        <ele>2540</ele>
        <time>2013-06-05T08:29:09Z</time>
      </trkpt>
      <trkpt lat="42.74812" lon="0.12641">
        <ele>2541</ele>
        <time>2013-06-05T08:29:19Z</time>
      </trkpt>
      <trkpt lat="42.74811" lon="0.12644">
        <ele>2540</ele>
        <time>2013-06-05T08:29:35Z</time>
      </trkpt>
      <trkpt lat="42.74812" lon="0.12645">
        <ele>2540</ele>
        <time>2013-06-05T08:29:49Z</time>
      </trkpt>
      <trkpt lat="42.74812" lon="0.12644">
        <ele>2540</ele>
        <time>2013-06-05T08:30:07Z</time>
      </trkpt>
      <trkpt lat="42.74812" lon="0.12643">
        <ele>2541</ele>
        <time>2013-06-05T08:30:18Z</time>
      </trkpt>
      <trkpt lat="42.74813" lon="0.12644">
        <ele>2541</ele>
        <time>2013-06-05T08:30:41Z</time>
      </trkpt>
      <trkpt lat="42.74814" lon="0.12642">
        <ele>2541</ele>
        <time>2013-06-05T08:31:10Z</time>
      </trkpt>
      <trkpt lat="42.74813" lon="0.12643">
        <ele>2541</ele>
        <time>2013-06-05T08:31:34Z</time>
      </trkpt>
      <trkpt lat="42.74812" lon="0.12642">
        <ele>2541</ele>
        <time>2013-06-05T08:31:55Z</time>
      </trkpt>
      <trkpt lat="42.74813" lon="0.12643">
        <ele>2541</ele>
        <time>2013-06-05T08:32:12Z</time>
      </trkpt>
      <trkpt lat="42.74813" lon="0.12648">
        <ele>2542</ele>
        <time>2013-06-05T08:32:21Z</time>
      </trkpt>
      <trkpt lat="42.74812" lon="0.12651">
        <ele>2542</ele>
        <time>2013-06-05T08:32:30Z</time>
      </trkpt>
      <trkpt lat="42.74812" lon="0.12656">
        <ele>2542</ele>
        <time>2013-06-05T08:32:37Z</time>
      </trkpt>
      <trkpt lat="42.7481" lon="0.12663">
        <ele>2543</ele>
        <time>2013-06-05T08:32:44Z</time>
      </trkpt>
      <trkpt lat="42.74809" lon="0.12671">
        <ele>2544</ele>
        <time>2013-06-05T08:32:52Z</time>
      </trkpt>
      <trkpt lat="42.74808" lon="0.12678">
        <ele>2546</ele>
        <time>2013-06-05T08:33:00Z</time>
      </trkpt>
      <trkpt lat="42.74807" lon="0.12689">
        <ele>2547</ele>
        <time>2013-06-05T08:33:08Z</time>
      </trkpt>
      <trkpt lat="42.74806" lon="0.12699">
        <ele>2547</ele>
        <time>2013-06-05T08:33:17Z</time>
      </trkpt>
      <trkpt lat="42.74806" lon="0.12706">
        <ele>2547</ele>
        <time>2013-06-05T08:33:24Z</time>
      </trkpt>
      <trkpt lat="42.74805" lon="0.12715">
        <ele>2549</ele>
        <time>2013-06-05T08:33:32Z</time>
      </trkpt>
      <trkpt lat="42.74805" lon="0.12726">
        <ele>2550</ele>
        <time>2013-06-05T08:33:41Z</time>
      </trkpt>
      <trkpt lat="42.74803" lon="0.12733">
        <ele>2550</ele>
        <time>2013-06-05T08:33:47Z</time>
      </trkpt>
      <trkpt lat="42.74801" lon="0.12745">
        <ele>2551</ele>
        <time>2013-06-05T08:33:56Z</time>
      </trkpt>
      <trkpt lat="42.748" lon="0.12753">
        <ele>2551</ele>
        <time>2013-06-05T08:34:04Z</time>
      </trkpt>
      <trkpt lat="42.748" lon="0.12754">
        <ele>2551</ele>
        <time>2013-06-05T08:34:05Z</time>
      </trkpt>
      <trkpt lat="42.748" lon="0.1276">
        <ele>2552</ele>
        <time>2013-06-05T08:34:10Z</time>
      </trkpt>
      <trkpt lat="42.74799" lon="0.12767">
        <ele>2552</ele>
        <time>2013-06-05T08:34:17Z</time>
      </trkpt>
      <trkpt lat="42.74798" lon="0.12781">
        <ele>2553</ele>
        <time>2013-06-05T08:34:28Z</time>
      </trkpt>
      <trkpt lat="42.74797" lon="0.12789">
        <ele>2554</ele>
        <time>2013-06-05T08:34:36Z</time>
      </trkpt>
      <trkpt lat="42.74796" lon="0.12794">
        <ele>2554</ele>
        <time>2013-06-05T08:34:41Z</time>
      </trkpt>
      <trkpt lat="42.74796" lon="0.12803">
        <ele>2556</ele>
        <time>2013-06-05T08:34:51Z</time>
      </trkpt>
      <trkpt lat="42.74796" lon="0.12812">
        <ele>2557</ele>
        <time>2013-06-05T08:35:00Z</time>
      </trkpt>
      <trkpt lat="42.74794" lon="0.12822">
        <ele>2558</ele>
        <time>2013-06-05T08:35:09Z</time>
      </trkpt>
      <trkpt lat="42.74794" lon="0.12829">
        <ele>2559</ele>
        <time>2013-06-05T08:35:16Z</time>
      </trkpt>
      <trkpt lat="42.74793" lon="0.12838">
        <ele>2560</ele>
        <time>2013-06-05T08:35:25Z</time>
      </trkpt>
      <trkpt lat="42.74792" lon="0.12844">
        <ele>2561</ele>
        <time>2013-06-05T08:35:33Z</time>
      </trkpt>
      <trkpt lat="42.7479" lon="0.12855">
        <ele>2563</ele>
        <time>2013-06-05T08:35:42Z</time>
      </trkpt>
      <trkpt lat="42.74788" lon="0.12861">
        <ele>2563</ele>
        <time>2013-06-05T08:35:50Z</time>
      </trkpt>
      <trkpt lat="42.74788" lon="0.12871">
        <ele>2564</ele>
        <time>2013-06-05T08:36:00Z</time>
      </trkpt>
      <trkpt lat="42.74789" lon="0.12881">
        <ele>2566</ele>
        <time>2013-06-05T08:36:08Z</time>
      </trkpt>
      <trkpt lat="42.74788" lon="0.12887">
        <ele>2566</ele>
        <time>2013-06-05T08:36:15Z</time>
      </trkpt>
      <trkpt lat="42.74787" lon="0.12895">
        <ele>2568</ele>
        <time>2013-06-05T08:36:24Z</time>
      </trkpt>
      <trkpt lat="42.74786" lon="0.12902">
        <ele>2569</ele>
        <time>2013-06-05T08:36:32Z</time>
      </trkpt>
      <trkpt lat="42.74785" lon="0.12909">
        <ele>2570</ele>
        <time>2013-06-05T08:36:40Z</time>
      </trkpt>
      <trkpt lat="42.74785" lon="0.12914">
        <ele>2571</ele>
        <time>2013-06-05T08:36:47Z</time>
      </trkpt>
      <trkpt lat="42.74781" lon="0.12922">
        <ele>2572</ele>
        <time>2013-06-05T08:36:54Z</time>
      </trkpt>
      <trkpt lat="42.74781" lon="0.12927">
        <ele>2574</ele>
        <time>2013-06-05T08:37:02Z</time>
      </trkpt>
      <trkpt lat="42.74779" lon="0.12935">
        <ele>2574</ele>
        <time>2013-06-05T08:37:10Z</time>
      </trkpt>
      <trkpt lat="42.74779" lon="0.12942">
        <ele>2575</ele>
        <time>2013-06-05T08:37:17Z</time>
      </trkpt>
      <trkpt lat="42.74778" lon="0.1295">
        <ele>2576</ele>
        <time>2013-06-05T08:37:25Z</time>
      </trkpt>
      <trkpt lat="42.74776" lon="0.12956">
        <ele>2576</ele>
        <time>2013-06-05T08:37:33Z</time>
      </trkpt>
      <trkpt lat="42.74775" lon="0.12963">
        <ele>2577</ele>
        <time>2013-06-05T08:37:40Z</time>
      </trkpt>
      <trkpt lat="42.74773" lon="0.12969">
        <ele>2578</ele>
        <time>2013-06-05T08:37:47Z</time>
      </trkpt>
      <trkpt lat="42.7477" lon="0.12977">
        <ele>2579</ele>
        <time>2013-06-05T08:37:54Z</time>
      </trkpt>
      <trkpt lat="42.74771" lon="0.12977">
        <ele>2579</ele>
        <time>2013-06-05T08:37:56Z</time>
      </trkpt>
      <trkpt lat="42.74771" lon="0.12981">
        <ele>2580</ele>
        <time>2013-06-05T08:38:04Z</time>
      </trkpt>
      <trkpt lat="42.74771" lon="0.12988">
        <ele>2579</ele>
        <time>2013-06-05T08:38:15Z</time>
      </trkpt>
      <trkpt lat="42.74772" lon="0.12997">
        <ele>2581</ele>
        <time>2013-06-05T08:38:24Z</time>
      </trkpt>
      <trkpt lat="42.7477" lon="0.13003">
        <ele>2582</ele>
        <time>2013-06-05T08:38:32Z</time>
      </trkpt>
      <trkpt lat="42.74768" lon="0.13013">
        <ele>2582</ele>
        <time>2013-06-05T08:38:42Z</time>
      </trkpt>
      <trkpt lat="42.74768" lon="0.1302">
        <ele>2583</ele>
        <time>2013-06-05T08:38:49Z</time>
      </trkpt>
      <trkpt lat="42.74767" lon="0.13029">
        <ele>2585</ele>
        <time>2013-06-05T08:38:58Z</time>
      </trkpt>
      <trkpt lat="42.74767" lon="0.13034">
        <ele>2586</ele>
        <time>2013-06-05T08:39:06Z</time>
      </trkpt>
      <trkpt lat="42.74768" lon="0.13041">
        <ele>2587</ele>
        <time>2013-06-05T08:39:14Z</time>
      </trkpt>
      <trkpt lat="42.74767" lon="0.13048">
        <ele>2587</ele>
        <time>2013-06-05T08:39:21Z</time>
      </trkpt>
      <trkpt lat="42.74764" lon="0.13056">
        <ele>2589</ele>
        <time>2013-06-05T08:39:29Z</time>
      </trkpt>
      <trkpt lat="42.7476" lon="0.13062">
        <ele>2589</ele>
        <time>2013-06-05T08:39:36Z</time>
      </trkpt>
      <trkpt lat="42.7476" lon="0.13069">
        <ele>2590</ele>
        <time>2013-06-05T08:39:43Z</time>
      </trkpt>
      <trkpt lat="42.74759" lon="0.13077">
        <ele>2591</ele>
        <time>2013-06-05T08:39:51Z</time>
      </trkpt>
      <trkpt lat="42.74757" lon="0.13089">
        <ele>2591</ele>
        <time>2013-06-05T08:39:58Z</time>
      </trkpt>
      <trkpt lat="42.74757" lon="0.13101">
        <ele>2593</ele>
        <time>2013-06-05T08:40:04Z</time>
      </trkpt>
      <trkpt lat="42.74756" lon="0.13108">
        <ele>2593</ele>
        <time>2013-06-05T08:40:11Z</time>
      </trkpt>
      <trkpt lat="42.74757" lon="0.13114">
        <ele>2594</ele>
        <time>2013-06-05T08:40:19Z</time>
      </trkpt>
      <trkpt lat="42.74759" lon="0.13118">
        <ele>2595</ele>
        <time>2013-06-05T08:40:26Z</time>
      </trkpt>
      <trkpt lat="42.7476" lon="0.13128">
        <ele>2596</ele>
        <time>2013-06-05T08:40:34Z</time>
      </trkpt>
      <trkpt lat="42.74761" lon="0.13136">
        <ele>2597</ele>
        <time>2013-06-05T08:40:42Z</time>
      </trkpt>
      <trkpt lat="42.74759" lon="0.13139">
        <ele>2598</ele>
        <time>2013-06-05T08:40:51Z</time>
      </trkpt>
      <trkpt lat="42.7476" lon="0.13141">
        <ele>2598</ele>
        <time>2013-06-05T08:41:04Z</time>
      </trkpt>
      <trkpt lat="42.74756" lon="0.13139">
        <ele>2598</ele>
        <time>2013-06-05T08:41:17Z</time>
      </trkpt>
      <trkpt lat="42.74755" lon="0.13138">
        <ele>2598</ele>
        <time>2013-06-05T08:41:27Z</time>
      </trkpt>
      <trkpt lat="42.74756" lon="0.13139">
        <ele>2598</ele>
        <time>2013-06-05T08:41:44Z</time>
      </trkpt>
      <trkpt lat="42.74756" lon="0.13145">
        <ele>2599</ele>
        <time>2013-06-05T08:41:58Z</time>
      </trkpt>
      <trkpt lat="42.74755" lon="0.13147">
        <ele>2599</ele>
        <time>2013-06-05T08:42:01Z</time>
      </trkpt>
      <trkpt lat="42.74755" lon="0.13153">
        <ele>2600</ele>
        <time>2013-06-05T08:42:09Z</time>
      </trkpt>
      <trkpt lat="42.74753" lon="0.13158">
        <ele>2600</ele>
        <time>2013-06-05T08:42:16Z</time>
      </trkpt>
      <trkpt lat="42.74752" lon="0.13167">
        <ele>2600</ele>
        <time>2013-06-05T08:42:23Z</time>
      </trkpt>
      <trkpt lat="42.74751" lon="0.13172">
        <ele>2601</ele>
        <time>2013-06-05T08:42:29Z</time>
      </trkpt>
      <trkpt lat="42.74752" lon="0.13182">
        <ele>2601</ele>
        <time>2013-06-05T08:42:39Z</time>
      </trkpt>
      <trkpt lat="42.74751" lon="0.1319">
        <ele>2602</ele>
        <time>2013-06-05T08:42:46Z</time>
      </trkpt>
      <trkpt lat="42.74752" lon="0.13193">
        <ele>2602</ele>
        <time>2013-06-05T08:42:50Z</time>
      </trkpt>
      <trkpt lat="42.74753" lon="0.132">
        <ele>2603</ele>
        <time>2013-06-05T08:42:57Z</time>
      </trkpt>
      <trkpt lat="42.74753" lon="0.13205">
        <ele>2604</ele>
        <time>2013-06-05T08:43:02Z</time>
      </trkpt>
      <trkpt lat="42.74753" lon="0.13213">
        <ele>2604</ele>
        <time>2013-06-05T08:43:11Z</time>
      </trkpt>
      <trkpt lat="42.74754" lon="0.13217">
        <ele>2606</ele>
        <time>2013-06-05T08:43:17Z</time>
      </trkpt>
      <trkpt lat="42.74754" lon="0.13228">
        <ele>2606</ele>
        <time>2013-06-05T08:43:24Z</time>
      </trkpt>
      <trkpt lat="42.74754" lon="0.13234">
        <ele>2607</ele>
        <time>2013-06-05T08:43:32Z</time>
      </trkpt>
      <trkpt lat="42.74752" lon="0.13247">
        <ele>2609</ele>
        <time>2013-06-05T08:43:44Z</time>
      </trkpt>
      <trkpt lat="42.74753" lon="0.13255">
        <ele>2609</ele>
        <time>2013-06-05T08:43:52Z</time>
      </trkpt>
      <trkpt lat="42.74754" lon="0.13263">
        <ele>2610</ele>
        <time>2013-06-05T08:44:00Z</time>
      </trkpt>
      <trkpt lat="42.74754" lon="0.13266">
        <ele>2611</ele>
        <time>2013-06-05T08:44:09Z</time>
      </trkpt>
      <trkpt lat="42.74753" lon="0.13272">
        <ele>2612</ele>
        <time>2013-06-05T08:44:18Z</time>
      </trkpt>
      <trkpt lat="42.74754" lon="0.13279">
        <ele>2613</ele>
        <time>2013-06-05T08:44:25Z</time>
      </trkpt>
      <trkpt lat="42.74755" lon="0.13288">
        <ele>2613</ele>
        <time>2013-06-05T08:44:34Z</time>
      </trkpt>
      <trkpt lat="42.74755" lon="0.13294">
        <ele>2615</ele>
        <time>2013-06-05T08:44:41Z</time>
      </trkpt>
      <trkpt lat="42.74754" lon="0.13297">
        <ele>2616</ele>
        <time>2013-06-05T08:44:49Z</time>
      </trkpt>
      <trkpt lat="42.74754" lon="0.133">
        <ele>2617</ele>
        <time>2013-06-05T08:44:57Z</time>
      </trkpt>
      <trkpt lat="42.74753" lon="0.13306">
        <ele>2618</ele>
        <time>2013-06-05T08:45:05Z</time>
      </trkpt>
      <trkpt lat="42.74751" lon="0.13315">
        <ele>2619</ele>
        <time>2013-06-05T08:45:14Z</time>
      </trkpt>
      <trkpt lat="42.74751" lon="0.13324">
        <ele>2620</ele>
        <time>2013-06-05T08:45:21Z</time>
      </trkpt>
      <trkpt lat="42.74752" lon="0.13326">
        <ele>2621</ele>
        <time>2013-06-05T08:45:27Z</time>
      </trkpt>
      <trkpt lat="42.7475" lon="0.13326">
        <ele>2623</ele>
        <time>2013-06-05T08:45:36Z</time>
      </trkpt>
      <trkpt lat="42.74751" lon="0.13331">
        <ele>2623</ele>
        <time>2013-06-05T08:45:43Z</time>
      </trkpt>
      <trkpt lat="42.74751" lon="0.1334">
        <ele>2625</ele>
        <time>2013-06-05T08:45:52Z</time>
      </trkpt>
      <trkpt lat="42.74751" lon="0.1335">
        <ele>2625</ele>
        <time>2013-06-05T08:45:59Z</time>
      </trkpt>
      <trkpt lat="42.74751" lon="0.13354">
        <ele>2626</ele>
        <time>2013-06-05T08:46:05Z</time>
      </trkpt>
      <trkpt lat="42.74752" lon="0.1336">
        <ele>2627</ele>
        <time>2013-06-05T08:46:11Z</time>
      </trkpt>
      <trkpt lat="42.74752" lon="0.13367">
        <ele>2628</ele>
        <time>2013-06-05T08:46:20Z</time>
      </trkpt>
      <trkpt lat="42.74749" lon="0.13368">
        <ele>2630</ele>
        <time>2013-06-05T08:46:26Z</time>
      </trkpt>
      <trkpt lat="42.74748" lon="0.13368">
        <ele>2631</ele>
        <time>2013-06-05T08:46:28Z</time>
      </trkpt>
      <trkpt lat="42.74745" lon="0.13369">
        <ele>2632</ele>
        <time>2013-06-05T08:46:36Z</time>
      </trkpt>
      <trkpt lat="42.74741" lon="0.13373">
        <ele>2634</ele>
        <time>2013-06-05T08:46:46Z</time>
      </trkpt>
      <trkpt lat="42.74737" lon="0.13377">
        <ele>2635</ele>
        <time>2013-06-05T08:46:54Z</time>
      </trkpt>
      <trkpt lat="42.74734" lon="0.1338">
        <ele>2636</ele>
        <time>2013-06-05T08:47:00Z</time>
      </trkpt>
      <trkpt lat="42.74733" lon="0.13383">
        <ele>2636</ele>
        <time>2013-06-05T08:47:06Z</time>
      </trkpt>
      <trkpt lat="42.74731" lon="0.13385">
        <ele>2638</ele>
        <time>2013-06-05T08:47:12Z</time>
      </trkpt>
      <trkpt lat="42.74729" lon="0.1339">
        <ele>2638</ele>
        <time>2013-06-05T08:47:19Z</time>
      </trkpt>
      <trkpt lat="42.74729" lon="0.13392">
        <ele>2639</ele>
        <time>2013-06-05T08:47:25Z</time>
      </trkpt>
      <trkpt lat="42.74732" lon="0.13392">
        <ele>2640</ele>
        <time>2013-06-05T08:47:32Z</time>
      </trkpt>
      <trkpt lat="42.74732" lon="0.13392">
        <ele>2640</ele>
        <time>2013-06-05T08:47:42Z</time>
      </trkpt>
      <trkpt lat="42.7473" lon="0.13393">
        <ele>2640</ele>
        <time>2013-06-05T08:47:55Z</time>
      </trkpt>
      <trkpt lat="42.74732" lon="0.13392">
        <ele>2640</ele>
        <time>2013-06-05T08:48:13Z</time>
      </trkpt>
      <trkpt lat="42.74735" lon="0.13392">
        <ele>2640</ele>
        <time>2013-06-05T08:48:24Z</time>
      </trkpt>
      <trkpt lat="42.74738" lon="0.13394">
        <ele>2640</ele>
        <time>2013-06-05T08:48:37Z</time>
      </trkpt>
      <trkpt lat="42.74742" lon="0.13396">
        <ele>2641</ele>
        <time>2013-06-05T08:48:51Z</time>
      </trkpt>
      <trkpt lat="42.74741" lon="0.13404">
        <ele>2642</ele>
        <time>2013-06-05T08:48:59Z</time>
      </trkpt>
      <trkpt lat="42.74741" lon="0.13405">
        <ele>2642</ele>
        <time>2013-06-05T08:49:00Z</time>
      </trkpt>
      <trkpt lat="42.74739" lon="0.1341">
        <ele>2643</ele>
        <time>2013-06-05T08:49:07Z</time>
      </trkpt>
      <trkpt lat="42.74737" lon="0.13416">
        <ele>2644</ele>
        <time>2013-06-05T08:49:13Z</time>
      </trkpt>
      <trkpt lat="42.74735" lon="0.13421">
        <ele>2645</ele>
        <time>2013-06-05T08:49:19Z</time>
      </trkpt>
      <trkpt lat="42.74733" lon="0.13418">
        <ele>2645</ele>
        <time>2013-06-05T08:49:27Z</time>
      </trkpt>
      <trkpt lat="42.74734" lon="0.13418">
        <ele>2645</ele>
        <time>2013-06-05T08:49:40Z</time>
      </trkpt>
      <trkpt lat="42.74734" lon="0.13415">
        <ele>2645</ele>
        <time>2013-06-05T08:49:56Z</time>
      </trkpt>
      <trkpt lat="42.74736" lon="0.13417">
        <ele>2645</ele>
        <time>2013-06-05T08:50:04Z</time>
      </trkpt>
      <trkpt lat="42.74733" lon="0.13417">
        <ele>2645</ele>
        <time>2013-06-05T08:50:20Z</time>
      </trkpt>
      <trkpt lat="42.74733" lon="0.13421">
        <ele>2645</ele>
        <time>2013-06-05T08:50:29Z</time>
      </trkpt>
      <trkpt lat="42.74732" lon="0.1342">
        <ele>2645</ele>
        <time>2013-06-05T08:50:41Z</time>
      </trkpt>
      <trkpt lat="42.74732" lon="0.13422">
        <ele>2645</ele>
        <time>2013-06-05T08:50:53Z</time>
      </trkpt>
      <trkpt lat="42.74732" lon="0.13421">
        <ele>2646</ele>
        <time>2013-06-05T08:50:59Z</time>
      </trkpt>
      <trkpt lat="42.7473" lon="0.13425">
        <ele>2646</ele>
        <time>2013-06-05T08:51:06Z</time>
      </trkpt>
      <trkpt lat="42.74729" lon="0.13431">
        <ele>2648</ele>
        <time>2013-06-05T08:51:14Z</time>
      </trkpt>
      <trkpt lat="42.74727" lon="0.13437">
        <ele>2649</ele>
        <time>2013-06-05T08:51:21Z</time>
      </trkpt>
      <trkpt lat="42.74726" lon="0.13442">
        <ele>2650</ele>
        <time>2013-06-05T08:51:26Z</time>
      </trkpt>
      <trkpt lat="42.74724" lon="0.13447">
        <ele>2650</ele>
        <time>2013-06-05T08:51:33Z</time>
      </trkpt>
      <trkpt lat="42.74722" lon="0.13453">
        <ele>2652</ele>
        <time>2013-06-05T08:51:42Z</time>
      </trkpt>
      <trkpt lat="42.74725" lon="0.13457">
        <ele>2652</ele>
        <time>2013-06-05T08:51:50Z</time>
      </trkpt>
      <trkpt lat="42.7473" lon="0.13455">
        <ele>2653</ele>
        <time>2013-06-05T08:51:56Z</time>
      </trkpt>
      <trkpt lat="42.74735" lon="0.13454">
        <ele>2654</ele>
        <time>2013-06-05T08:52:04Z</time>
      </trkpt>
      <trkpt lat="42.74739" lon="0.13453">
        <ele>2655</ele>
        <time>2013-06-05T08:52:12Z</time>
      </trkpt>
      <trkpt lat="42.74742" lon="0.1345">
        <ele>2656</ele>
        <time>2013-06-05T08:52:20Z</time>
      </trkpt>
      <trkpt lat="42.74739" lon="0.13454">
        <ele>2656</ele>
        <time>2013-06-05T08:52:26Z</time>
      </trkpt>
      <trkpt lat="42.74736" lon="0.1346">
        <ele>2658</ele>
        <time>2013-06-05T08:52:36Z</time>
      </trkpt>
      <trkpt lat="42.74733" lon="0.13466">
        <ele>2659</ele>
        <time>2013-06-05T08:52:42Z</time>
      </trkpt>
      <trkpt lat="42.7473" lon="0.13471">
        <ele>2660</ele>
        <time>2013-06-05T08:52:49Z</time>
      </trkpt>
      <trkpt lat="42.74729" lon="0.13476">
        <ele>2661</ele>
        <time>2013-06-05T08:52:57Z</time>
      </trkpt>
      <trkpt lat="42.74728" lon="0.13481">
        <ele>2662</ele>
        <time>2013-06-05T08:53:05Z</time>
      </trkpt>
      <trkpt lat="42.74726" lon="0.13487">
        <ele>2663</ele>
        <time>2013-06-05T08:53:13Z</time>
      </trkpt>
      <trkpt lat="42.74724" lon="0.13492">
        <ele>2663</ele>
        <time>2013-06-05T08:53:19Z</time>
      </trkpt>
      <trkpt lat="42.74722" lon="0.13497">
        <ele>2665</ele>
        <time>2013-06-05T08:53:27Z</time>
      </trkpt>
      <trkpt lat="42.74719" lon="0.13502">
        <ele>2665</ele>
        <time>2013-06-05T08:53:36Z</time>
      </trkpt>
      <trkpt lat="42.74717" lon="0.13507">
        <ele>2667</ele>
        <time>2013-06-05T08:53:43Z</time>
      </trkpt>
      <trkpt lat="42.74715" lon="0.13512">
        <ele>2668</ele>
        <time>2013-06-05T08:53:49Z</time>
      </trkpt>
      <trkpt lat="42.74713" lon="0.1352">
        <ele>2670</ele>
        <time>2013-06-05T08:53:59Z</time>
      </trkpt>
      <trkpt lat="42.74709" lon="0.13526">
        <ele>2671</ele>
        <time>2013-06-05T08:54:06Z</time>
      </trkpt>
      <trkpt lat="42.74709" lon="0.13529">
        <ele>2671</ele>
        <time>2013-06-05T08:54:12Z</time>
      </trkpt>
      <trkpt lat="42.74708" lon="0.13534">
        <ele>2672</ele>
        <time>2013-06-05T08:54:18Z</time>
      </trkpt>
      <trkpt lat="42.74706" lon="0.13538">
        <ele>2673</ele>
        <time>2013-06-05T08:54:27Z</time>
      </trkpt>
      <trkpt lat="42.74703" lon="0.13543">
        <ele>2675</ele>
        <time>2013-06-05T08:54:34Z</time>
      </trkpt>
      <trkpt lat="42.74701" lon="0.13548">
        <ele>2675</ele>
        <time>2013-06-05T08:54:42Z</time>
      </trkpt>
      <trkpt lat="42.74698" lon="0.13553">
        <ele>2677</ele>
        <time>2013-06-05T08:54:49Z</time>
      </trkpt>
      <trkpt lat="42.74694" lon="0.13557">
        <ele>2678</ele>
        <time>2013-06-05T08:54:58Z</time>
      </trkpt>
      <trkpt lat="42.7469" lon="0.13564">
        <ele>2679</ele>
        <time>2013-06-05T08:55:07Z</time>
      </trkpt>
      <trkpt lat="42.7469" lon="0.13568">
        <ele>2681</ele>
        <time>2013-06-05T08:55:16Z</time>
      </trkpt>
      <trkpt lat="42.74693" lon="0.13567">
        <ele>2680</ele>
        <time>2013-06-05T08:55:22Z</time>
      </trkpt>
      <trkpt lat="42.74696" lon="0.13567">
        <ele>2682</ele>
        <time>2013-06-05T08:55:29Z</time>
      </trkpt>
      <trkpt lat="42.74702" lon="0.13568">
        <ele>2683</ele>
        <time>2013-06-05T08:55:37Z</time>
      </trkpt>
      <trkpt lat="42.74709" lon="0.13569">
        <ele>2684</ele>
        <time>2013-06-05T08:55:47Z</time>
      </trkpt>
      <trkpt lat="42.74713" lon="0.13568">
        <ele>2686</ele>
        <time>2013-06-05T08:55:57Z</time>
      </trkpt>
      <trkpt lat="42.74718" lon="0.13571">
        <ele>2686</ele>
        <time>2013-06-05T08:56:04Z</time>
      </trkpt>
      <trkpt lat="42.74722" lon="0.13573">
        <ele>2687</ele>
        <time>2013-06-05T08:56:11Z</time>
      </trkpt>
      <trkpt lat="42.74721" lon="0.13577">
        <ele>2689</ele>
        <time>2013-06-05T08:56:19Z</time>
      </trkpt>
      <trkpt lat="42.74717" lon="0.13579">
        <ele>2690</ele>
        <time>2013-06-05T08:56:27Z</time>
      </trkpt>
      <trkpt lat="42.74714" lon="0.13585">
        <ele>2693</ele>
        <time>2013-06-05T08:56:36Z</time>
      </trkpt>
      <trkpt lat="42.7471" lon="0.1359">
        <ele>2693</ele>
        <time>2013-06-05T08:56:45Z</time>
      </trkpt>
      <trkpt lat="42.74708" lon="0.13596">
        <ele>2695</ele>
        <time>2013-06-05T08:56:52Z</time>
      </trkpt>
      <trkpt lat="42.74704" lon="0.13602">
        <ele>2696</ele>
        <time>2013-06-05T08:57:00Z</time>
      </trkpt>
      <trkpt lat="42.74701" lon="0.13605">
        <ele>2697</ele>
        <time>2013-06-05T08:57:06Z</time>
      </trkpt>
      <trkpt lat="42.74698" lon="0.1361">
        <ele>2698</ele>
        <time>2013-06-05T08:57:12Z</time>
      </trkpt>
      <trkpt lat="42.74695" lon="0.13612">
        <ele>2698</ele>
        <time>2013-06-05T08:57:16Z</time>
      </trkpt>
      <trkpt lat="42.74692" lon="0.13614">
        <ele>2699</ele>
        <time>2013-06-05T08:57:20Z</time>
      </trkpt>
      <trkpt lat="42.74689" lon="0.1362">
        <ele>2700</ele>
        <time>2013-06-05T08:57:28Z</time>
      </trkpt>
      <trkpt lat="42.74686" lon="0.13623">
        <ele>2700</ele>
        <time>2013-06-05T08:57:36Z</time>
      </trkpt>
      <trkpt lat="42.74682" lon="0.13625">
        <ele>2702</ele>
        <time>2013-06-05T08:57:42Z</time>
      </trkpt>
      <trkpt lat="42.74682" lon="0.13626">
        <ele>2702</ele>
        <time>2013-06-05T08:57:43Z</time>
      </trkpt>
      <trkpt lat="42.74679" lon="0.13629">
        <ele>2703</ele>
        <time>2013-06-05T08:57:49Z</time>
      </trkpt>
      <trkpt lat="42.74678" lon="0.13631">
        <ele>2703</ele>
        <time>2013-06-05T08:57:53Z</time>
      </trkpt>
      <trkpt lat="42.74674" lon="0.13634">
        <ele>2705</ele>
        <time>2013-06-05T08:58:00Z</time>
      </trkpt>
      <trkpt lat="42.74672" lon="0.13638">
        <ele>2706</ele>
        <time>2013-06-05T08:58:06Z</time>
      </trkpt>
      <trkpt lat="42.7467" lon="0.13639">
        <ele>2706</ele>
        <time>2013-06-05T08:58:09Z</time>
      </trkpt>
      <trkpt lat="42.74666" lon="0.13644">
        <ele>2708</ele>
        <time>2013-06-05T08:58:17Z</time>
      </trkpt>
      <trkpt lat="42.74664" lon="0.13646">
        <ele>2708</ele>
        <time>2013-06-05T08:58:21Z</time>
      </trkpt>
      <trkpt lat="42.74659" lon="0.13649">
        <ele>2709</ele>
        <time>2013-06-05T08:58:29Z</time>
      </trkpt>
      <trkpt lat="42.74655" lon="0.13651">
        <ele>2710</ele>
        <time>2013-06-05T08:58:37Z</time>
      </trkpt>
      <trkpt lat="42.74659" lon="0.13651">
        <ele>2710</ele>
        <time>2013-06-05T08:58:49Z</time>
      </trkpt>
      <trkpt lat="42.74664" lon="0.13653">
        <ele>2711</ele>
        <time>2013-06-05T08:58:56Z</time>
      </trkpt>
      <trkpt lat="42.74667" lon="0.13654">
        <ele>2712</ele>
        <time>2013-06-05T08:59:03Z</time>
      </trkpt>
      <trkpt lat="42.74672" lon="0.13657">
        <ele>2712</ele>
        <time>2013-06-05T08:59:11Z</time>
      </trkpt>
      <trkpt lat="42.74679" lon="0.13662">
        <ele>2713</ele>
        <time>2013-06-05T08:59:20Z</time>
      </trkpt>
      <trkpt lat="42.74683" lon="0.13664">
        <ele>2715</ele>
        <time>2013-06-05T08:59:30Z</time>
      </trkpt>
      <trkpt lat="42.74685" lon="0.13668">
        <ele>2716</ele>
        <time>2013-06-05T08:59:37Z</time>
      </trkpt>
      <trkpt lat="42.74686" lon="0.13669">
        <ele>2717</ele>
        <time>2013-06-05T08:59:39Z</time>
      </trkpt>
      <trkpt lat="42.74687" lon="0.13677">
        <ele>2718</ele>
        <time>2013-06-05T08:59:47Z</time>
      </trkpt>
      <trkpt lat="42.74688" lon="0.1368">
        <ele>2720</ele>
        <time>2013-06-05T08:59:55Z</time>
      </trkpt>
      <trkpt lat="42.74686" lon="0.13682">
        <ele>2721</ele>
        <time>2013-06-05T09:00:01Z</time>
      </trkpt>
      <trkpt lat="42.74683" lon="0.13684">
        <ele>2722</ele>
        <time>2013-06-05T09:00:10Z</time>
      </trkpt>
      <trkpt lat="42.74683" lon="0.13685">
        <ele>2721</ele>
        <time>2013-06-05T09:00:18Z</time>
      </trkpt>
      <trkpt lat="42.74682" lon="0.13683">
        <ele>2722</ele>
        <time>2013-06-05T09:00:32Z</time>
      </trkpt>
      <trkpt lat="42.74683" lon="0.13684">
        <ele>2722</ele>
        <time>2013-06-05T09:00:43Z</time>
      </trkpt>
      <trkpt lat="42.74682" lon="0.13685">
        <ele>2722</ele>
        <time>2013-06-05T09:00:55Z</time>
      </trkpt>
      <trkpt lat="42.74679" lon="0.13687">
        <ele>2723</ele>
        <time>2013-06-05T09:01:03Z</time>
      </trkpt>
      <trkpt lat="42.74675" lon="0.13692">
        <ele>2725</ele>
        <time>2013-06-05T09:01:13Z</time>
      </trkpt>
      <trkpt lat="42.7467" lon="0.13698">
        <ele>2726</ele>
        <time>2013-06-05T09:01:20Z</time>
      </trkpt>
      <trkpt lat="42.74668" lon="0.137">
        <ele>2727</ele>
        <time>2013-06-05T09:01:26Z</time>
      </trkpt>
      <trkpt lat="42.74665" lon="0.13703">
        <ele>2728</ele>
        <time>2013-06-05T09:01:32Z</time>
      </trkpt>
      <trkpt lat="42.74662" lon="0.13706">
        <ele>2729</ele>
        <time>2013-06-05T09:01:37Z</time>
      </trkpt>
      <trkpt lat="42.74658" lon="0.1371">
        <ele>2730</ele>
        <time>2013-06-05T09:01:46Z</time>
      </trkpt>
      <trkpt lat="42.74657" lon="0.13712">
        <ele>2731</ele>
        <time>2013-06-05T09:01:50Z</time>
      </trkpt>
      <trkpt lat="42.74653" lon="0.13717">
        <ele>2732</ele>
        <time>2013-06-05T09:01:59Z</time>
      </trkpt>
      <trkpt lat="42.74649" lon="0.13722">
        <ele>2733</ele>
        <time>2013-06-05T09:02:06Z</time>
      </trkpt>
      <trkpt lat="42.74644" lon="0.13725">
        <ele>2734</ele>
        <time>2013-06-05T09:02:13Z</time>
      </trkpt>
      <trkpt lat="42.74639" lon="0.13727">
        <ele>2736</ele>
        <time>2013-06-05T09:02:21Z</time>
      </trkpt>
      <trkpt lat="42.74636" lon="0.13728">
        <ele>2737</ele>
        <time>2013-06-05T09:02:30Z</time>
      </trkpt>
      <trkpt lat="42.74632" lon="0.1373">
        <ele>2737</ele>
        <time>2013-06-05T09:02:36Z</time>
      </trkpt>
      <trkpt lat="42.74632" lon="0.13735">
        <ele>2738</ele>
        <time>2013-06-05T09:02:42Z</time>
      </trkpt>
      <trkpt lat="42.74633" lon="0.13733">
        <ele>2739</ele>
        <time>2013-06-05T09:02:51Z</time>
      </trkpt>
      <trkpt lat="42.74633" lon="0.13737">
        <ele>2740</ele>
        <time>2013-06-05T09:02:59Z</time>
      </trkpt>
      <trkpt lat="42.74632" lon="0.13739">
        <ele>2741</ele>
        <time>2013-06-05T09:03:10Z</time>
      </trkpt>
      <trkpt lat="42.74632" lon="0.13739">
        <ele>2740</ele>
        <time>2013-06-05T09:03:23Z</time>
      </trkpt>
      <trkpt lat="42.74631" lon="0.13739">
        <ele>2740</ele>
        <time>2013-06-05T09:03:34Z</time>
      </trkpt>
      <trkpt lat="42.74633" lon="0.13736">
        <ele>2740</ele>
        <time>2013-06-05T09:03:48Z</time>
      </trkpt>
      <trkpt lat="42.74633" lon="0.13738">
        <ele>2740</ele>
        <time>2013-06-05T09:03:59Z</time>
      </trkpt>
      <trkpt lat="42.74633" lon="0.13739">
        <ele>2740</ele>
        <time>2013-06-05T09:04:18Z</time>
      </trkpt>
      <trkpt lat="42.74633" lon="0.13742">
        <ele>2740</ele>
        <time>2013-06-05T09:04:34Z</time>
      </trkpt>
      <trkpt lat="42.74638" lon="0.13748">
        <ele>2741</ele>
        <time>2013-06-05T09:04:42Z</time>
      </trkpt>
      <trkpt lat="42.74639" lon="0.13748">
        <ele>2741</ele>
        <time>2013-06-05T09:04:43Z</time>
      </trkpt>
      <trkpt lat="42.74644" lon="0.13747">
        <ele>2743</ele>
        <time>2013-06-05T09:04:51Z</time>
      </trkpt>
      <trkpt lat="42.74644" lon="0.13745">
        <ele>2743</ele>
        <time>2013-06-05T09:05:07Z</time>
      </trkpt>
      <trkpt lat="42.74645" lon="0.13744">
        <ele>2743</ele>
        <time>2013-06-05T09:05:22Z</time>
      </trkpt>
      <trkpt lat="42.74642" lon="0.13746">
        <ele>2744</ele>
        <time>2013-06-05T09:05:38Z</time>
      </trkpt>
      <trkpt lat="42.74643" lon="0.13744">
        <ele>2743</ele>
        <time>2013-06-05T09:05:49Z</time>
      </trkpt>
      <trkpt lat="42.74641" lon="0.13747">
        <ele>2743</ele>
        <time>2013-06-05T09:06:03Z</time>
      </trkpt>
      <trkpt lat="42.74642" lon="0.13744">
        <ele>2743</ele>
        <time>2013-06-05T09:06:16Z</time>
      </trkpt>
      <trkpt lat="42.74641" lon="0.13745">
        <ele>2743</ele>
        <time>2013-06-05T09:06:29Z</time>
      </trkpt>
      <trkpt lat="42.74645" lon="0.13747">
        <ele>2743</ele>
        <time>2013-06-05T09:06:36Z</time>
      </trkpt>
      <trkpt lat="42.74647" lon="0.13747">
        <ele>2743</ele>
        <time>2013-06-05T09:06:45Z</time>
      </trkpt>
      <trkpt lat="42.7465" lon="0.13749">
        <ele>2744</ele>
        <time>2013-06-05T09:06:58Z</time>
      </trkpt>
      <trkpt lat="42.74652" lon="0.13752">
        <ele>2745</ele>
        <time>2013-06-05T09:07:05Z</time>
      </trkpt>
      <trkpt lat="42.74654" lon="0.13756">
        <ele>2747</ele>
        <time>2013-06-05T09:07:14Z</time>
      </trkpt>
      <trkpt lat="42.74649" lon="0.13757">
        <ele>2748</ele>
        <time>2013-06-05T09:07:21Z</time>
      </trkpt>
      <trkpt lat="42.74644" lon="0.13759">
        <ele>2749</ele>
        <time>2013-06-05T09:07:28Z</time>
      </trkpt>
      <trkpt lat="42.7464" lon="0.13762">
        <ele>2750</ele>
        <time>2013-06-05T09:07:35Z</time>
      </trkpt>
      <trkpt lat="42.74637" lon="0.13764">
        <ele>2752</ele>
        <time>2013-06-05T09:07:42Z</time>
      </trkpt>
      <trkpt lat="42.74635" lon="0.13766">
        <ele>2753</ele>
        <time>2013-06-05T09:07:50Z</time>
      </trkpt>
      <trkpt lat="42.74635" lon="0.13765">
        <ele>2754</ele>
        <time>2013-06-05T09:07:57Z</time>
      </trkpt>
      <trkpt lat="42.74635" lon="0.13767">
        <ele>2754</ele>
        <time>2013-06-05T09:08:04Z</time>
      </trkpt>
      <trkpt lat="42.74636" lon="0.13768">
        <ele>2753</ele>
        <time>2013-06-05T09:08:10Z</time>
      </trkpt>
      <trkpt lat="42.74638" lon="0.1377">
        <ele>2755</ele>
        <time>2013-06-05T09:08:16Z</time>
      </trkpt>
      <trkpt lat="42.74637" lon="0.1377">
        <ele>2755</ele>
        <time>2013-06-05T09:08:28Z</time>
      </trkpt>
      <trkpt lat="42.74637" lon="0.13771">
        <ele>2755</ele>
        <time>2013-06-05T09:08:35Z</time>
      </trkpt>
      <trkpt lat="42.74639" lon="0.13773">
        <ele>2755</ele>
        <time>2013-06-05T09:08:42Z</time>
      </trkpt>
      <trkpt lat="42.7464" lon="0.13771">
        <ele>2756</ele>
        <time>2013-06-05T09:08:51Z</time>
      </trkpt>
      <trkpt lat="42.7464" lon="0.13772">
        <ele>2756</ele>
        <time>2013-06-05T09:08:58Z</time>
      </trkpt>
      <trkpt lat="42.74641" lon="0.13772">
        <ele>2757</ele>
        <time>2013-06-05T09:09:05Z</time>
      </trkpt>
      <trkpt lat="42.74641" lon="0.13773">
        <ele>2757</ele>
        <time>2013-06-05T09:09:18Z</time>
      </trkpt>
      <trkpt lat="42.74641" lon="0.13773">
        <ele>2756</ele>
        <time>2013-06-05T09:09:27Z</time>
      </trkpt>
      <trkpt lat="42.74641" lon="0.13773">
        <ele>2756</ele>
        <time>2013-06-05T09:09:36Z</time>
      </trkpt>
      <trkpt lat="42.7464" lon="0.13773">
        <ele>2757</ele>
        <time>2013-06-05T09:09:43Z</time>
      </trkpt>
      <trkpt lat="42.7464" lon="0.13774">
        <ele>2756</ele>
        <time>2013-06-05T09:09:56Z</time>
      </trkpt>
      <trkpt lat="42.74641" lon="0.13774">
        <ele>2757</ele>
        <time>2013-06-05T09:10:06Z</time>
      </trkpt>
      <trkpt lat="42.7464" lon="0.13774">
        <ele>2757</ele>
        <time>2013-06-05T09:10:19Z</time>
      </trkpt>
      <trkpt lat="42.74639" lon="0.13773">
        <ele>2756</ele>
        <time>2013-06-05T09:10:22Z</time>
      </trkpt>
      <trkpt lat="42.74639" lon="0.13775">
        <ele>2756</ele>
        <time>2013-06-05T09:10:28Z</time>
      </trkpt>
      <trkpt lat="42.74638" lon="0.13773">
        <ele>2756</ele>
        <time>2013-06-05T09:10:38Z</time>
      </trkpt>
      <trkpt lat="42.74638" lon="0.13772">
        <ele>2756</ele>
        <time>2013-06-05T09:10:56Z</time>
      </trkpt>
      <trkpt lat="42.7464" lon="0.13771">
        <ele>2756</ele>
        <time>2013-06-05T09:11:14Z</time>
      </trkpt>
      <trkpt lat="42.74641" lon="0.13772">
        <ele>2756</ele>
        <time>2013-06-05T09:11:38Z</time>
      </trkpt>
      <trkpt lat="42.74641" lon="0.13773">
        <ele>2756</ele>
        <time>2013-06-05T09:12:06Z</time>
      </trkpt>
      <trkpt lat="42.74641" lon="0.13773">
        <ele>2756</ele>
        <time>2013-06-05T09:12:27Z</time>
      </trkpt>
      <trkpt lat="42.7464" lon="0.13773">
        <ele>2756</ele>
        <time>2013-06-05T09:12:50Z</time>
      </trkpt>
      <trkpt lat="42.7464" lon="0.13773">
        <ele>2756</ele>
        <time>2013-06-05T09:13:12Z</time>
      </trkpt>
      <trkpt lat="42.74641" lon="0.13772">
        <ele>2756</ele>
        <time>2013-06-05T09:13:28Z</time>
      </trkpt>
      <trkpt lat="42.74642" lon="0.13773">
        <ele>2756</ele>
        <time>2013-06-05T09:13:47Z</time>
      </trkpt>
      <trkpt lat="42.74641" lon="0.13773">
        <ele>2756</ele>
        <time>2013-06-05T09:14:08Z</time>
      </trkpt>
      <trkpt lat="42.74641" lon="0.13773">
        <ele>2757</ele>
        <time>2013-06-05T09:14:35Z</time>
      </trkpt>
      <trkpt lat="42.74642" lon="0.13773">
        <ele>2757</ele>
        <time>2013-06-05T09:14:58Z</time>
      </trkpt>
      <trkpt lat="42.74642" lon="0.13773">
        <ele>2756</ele>
        <time>2013-06-05T09:15:18Z</time>
      </trkpt>
      <trkpt lat="42.7464" lon="0.13773">
        <ele>2756</ele>
        <time>2013-06-05T09:15:37Z</time>
      </trkpt>
      <trkpt lat="42.74642" lon="0.13773">
        <ele>2756</ele>
        <time>2013-06-05T09:15:58Z</time>
      </trkpt>
      <trkpt lat="42.74642" lon="0.13772">
        <ele>2756</ele>
        <time>2013-06-05T09:16:19Z</time>
      </trkpt>
      <trkpt lat="42.74641" lon="0.13773">
        <ele>2756</ele>
        <time>2013-06-05T09:16:40Z</time>
      </trkpt>
      <trkpt lat="42.74641" lon="0.13773">
        <ele>2757</ele>
        <time>2013-06-05T09:16:42Z</time>
      </trkpt>
      <trkpt lat="42.74642" lon="0.13773">
        <ele>2756</ele>
        <time>2013-06-05T09:17:06Z</time>
      </trkpt>
      <trkpt lat="42.74641" lon="0.13773">
        <ele>2756</ele>
        <time>2013-06-05T09:17:28Z</time>
      </trkpt>
      <trkpt lat="42.74641" lon="0.13773">
        <ele>2756</ele>
        <time>2013-06-05T09:17:51Z</time>
      </trkpt>
      <trkpt lat="42.74641" lon="0.13773">
        <ele>2757</ele>
        <time>2013-06-05T09:18:08Z</time>
      </trkpt>
      <trkpt lat="42.74642" lon="0.13773">
        <ele>2757</ele>
        <time>2013-06-05T09:18:18Z</time>
      </trkpt>
      <trkpt lat="42.74641" lon="0.13773">
        <ele>2757</ele>
        <time>2013-06-05T09:18:28Z</time>
      </trkpt>
      <trkpt lat="42.74641" lon="0.13774">
        <ele>2757</ele>
        <time>2013-06-05T09:18:38Z</time>
      </trkpt>
      <trkpt lat="42.74641" lon="0.13776">
        <ele>2757</ele>
        <time>2013-06-05T09:18:47Z</time>
      </trkpt>
      <trkpt lat="42.74641" lon="0.13776">
        <ele>2757</ele>
        <time>2013-06-05T09:18:57Z</time>
      </trkpt>
      <trkpt lat="42.74642" lon="0.13775">
        <ele>2757</ele>
        <time>2013-06-05T09:19:09Z</time>
      </trkpt>
      <trkpt lat="42.74642" lon="0.13775">
        <ele>2758</ele>
        <time>2013-06-05T09:19:18Z</time>
      </trkpt>
      <trkpt lat="42.74642" lon="0.13777">
        <ele>2757</ele>
        <time>2013-06-05T09:19:27Z</time>
      </trkpt>
      <trkpt lat="42.74643" lon="0.13778">
        <ele>2759</ele>
        <time>2013-06-05T09:19:30Z</time>
      </trkpt>
      <trkpt lat="42.74643" lon="0.13779">
        <ele>2760</ele>
        <time>2013-06-05T09:19:39Z</time>
      </trkpt>
      <trkpt lat="42.74646" lon="0.13782">
        <ele>2762</ele>
        <time>2013-06-05T09:19:50Z</time>
      </trkpt>
      <trkpt lat="42.74651" lon="0.13787">
        <ele>2765</ele>
        <time>2013-06-05T09:20:02Z</time>
      </trkpt>
      <trkpt lat="42.7465" lon="0.13791">
        <ele>2766</ele>
        <time>2013-06-05T09:20:11Z</time>
      </trkpt>
      <trkpt lat="42.74649" lon="0.13793">
        <ele>2767</ele>
        <time>2013-06-05T09:20:19Z</time>
      </trkpt>
      <trkpt lat="42.74648" lon="0.13795">
        <ele>2769</ele>
        <time>2013-06-05T09:20:25Z</time>
      </trkpt>
      <trkpt lat="42.7465" lon="0.13799">
        <ele>2769</ele>
        <time>2013-06-05T09:20:33Z</time>
      </trkpt>
      <trkpt lat="42.74652" lon="0.13802">
        <ele>2771</ele>
        <time>2013-06-05T09:20:44Z</time>
      </trkpt>
      <trkpt lat="42.74651" lon="0.13804">
        <ele>2774</ele>
        <time>2013-06-05T09:20:55Z</time>
      </trkpt>
      <trkpt lat="42.74651" lon="0.13807">
        <ele>2775</ele>
        <time>2013-06-05T09:21:06Z</time>
      </trkpt>
      <trkpt lat="42.74654" lon="0.13811">
        <ele>2777</ele>
        <time>2013-06-05T09:21:15Z</time>
      </trkpt>
      <trkpt lat="42.74656" lon="0.13813">
        <ele>2778</ele>
        <time>2013-06-05T09:21:26Z</time>
      </trkpt>
      <trkpt lat="42.74657" lon="0.13816">
        <ele>2779</ele>
        <time>2013-06-05T09:21:34Z</time>
      </trkpt>
      <trkpt lat="42.74657" lon="0.13817">
        <ele>2780</ele>
        <time>2013-06-05T09:21:45Z</time>
      </trkpt>
      <trkpt lat="42.74656" lon="0.13817">
        <ele>2781</ele>
        <time>2013-06-05T09:21:57Z</time>
      </trkpt>
      <trkpt lat="42.74654" lon="0.13822">
        <ele>2783</ele>
        <time>2013-06-05T09:22:10Z</time>
      </trkpt>
      <trkpt lat="42.74654" lon="0.13825">
        <ele>2784</ele>
        <time>2013-06-05T09:22:20Z</time>
      </trkpt>
      <trkpt lat="42.74654" lon="0.13829">
        <ele>2786</ele>
        <time>2013-06-05T09:22:31Z</time>
      </trkpt>
      <trkpt lat="42.74654" lon="0.1383">
        <ele>2787</ele>
        <time>2013-06-05T09:22:40Z</time>
      </trkpt>
      <trkpt lat="42.74655" lon="0.13829">
        <ele>2788</ele>
        <time>2013-06-05T09:22:48Z</time>
      </trkpt>
      <trkpt lat="42.74653" lon="0.1383">
        <ele>2788</ele>
        <time>2013-06-05T09:23:01Z</time>
      </trkpt>
      <trkpt lat="42.74654" lon="0.13832">
        <ele>2788</ele>
        <time>2013-06-05T09:23:12Z</time>
      </trkpt>
      <trkpt lat="42.74657" lon="0.13833">
        <ele>2789</ele>
        <time>2013-06-05T09:23:21Z</time>
      </trkpt>
      <trkpt lat="42.74659" lon="0.13839">
        <ele>2792</ele>
        <time>2013-06-05T09:23:32Z</time>
      </trkpt>
      <trkpt lat="42.7466" lon="0.13842">
        <ele>2793</ele>
        <time>2013-06-05T09:23:43Z</time>
      </trkpt>
      <trkpt lat="42.74662" lon="0.13843">
        <ele>2795</ele>
        <time>2013-06-05T09:23:51Z</time>
      </trkpt>
      <trkpt lat="42.74667" lon="0.13844">
        <ele>2796</ele>
        <time>2013-06-05T09:23:59Z</time>
      </trkpt>
      <trkpt lat="42.74666" lon="0.13847">
        <ele>2797</ele>
        <time>2013-06-05T09:24:07Z</time>
      </trkpt>
      <trkpt lat="42.7467" lon="0.13847">
        <ele>2798</ele>
        <time>2013-06-05T09:24:16Z</time>
      </trkpt>
      <trkpt lat="42.74672" lon="0.13851">
        <ele>2800</ele>
        <time>2013-06-05T09:24:26Z</time>
      </trkpt>
      <trkpt lat="42.74669" lon="0.13855">
        <ele>2800</ele>
        <time>2013-06-05T09:24:36Z</time>
      </trkpt>
      <trkpt lat="42.7467" lon="0.13855">
        <ele>2801</ele>
        <time>2013-06-05T09:24:46Z</time>
      </trkpt>
      <trkpt lat="42.74673" lon="0.13853">
        <ele>2801</ele>
        <time>2013-06-05T09:25:03Z</time>
      </trkpt>
      <trkpt lat="42.74674" lon="0.13853">
        <ele>2801</ele>
        <time>2013-06-05T09:25:13Z</time>
      </trkpt>
      <trkpt lat="42.74673" lon="0.13857">
        <ele>2803</ele>
        <time>2013-06-05T09:25:22Z</time>
      </trkpt>
      <trkpt lat="42.74672" lon="0.13861">
        <ele>2805</ele>
        <time>2013-06-05T09:25:31Z</time>
      </trkpt>
      <trkpt lat="42.74672" lon="0.13862">
        <ele>2807</ele>
        <time>2013-06-05T09:25:39Z</time>
      </trkpt>
      <trkpt lat="42.74673" lon="0.13863">
        <ele>2809</ele>
        <time>2013-06-05T09:25:50Z</time>
      </trkpt>
      <trkpt lat="42.74675" lon="0.13862">
        <ele>2809</ele>
        <time>2013-06-05T09:25:58Z</time>
      </trkpt>
      <trkpt lat="42.7468" lon="0.13864">
        <ele>2809</ele>
        <time>2013-06-05T09:26:19Z</time>
      </trkpt>
      <trkpt lat="42.74683" lon="0.13861">
        <ele>2809</ele>
        <time>2013-06-05T09:26:38Z</time>
      </trkpt>
      <trkpt lat="42.7468" lon="0.13861">
        <ele>2809</ele>
        <time>2013-06-05T09:26:50Z</time>
      </trkpt>
      <trkpt lat="42.74674" lon="0.13864">
        <ele>2810</ele>
        <time>2013-06-05T09:27:06Z</time>
      </trkpt>
      <trkpt lat="42.74671" lon="0.13867">
        <ele>2811</ele>
        <time>2013-06-05T09:27:13Z</time>
      </trkpt>
      <trkpt lat="42.74673" lon="0.13871">
        <ele>2812</ele>
        <time>2013-06-05T09:27:23Z</time>
      </trkpt>
      <trkpt lat="42.74674" lon="0.13871">
        <ele>2813</ele>
        <time>2013-06-05T09:27:31Z</time>
      </trkpt>
      <trkpt lat="42.74672" lon="0.13873">
        <ele>2812</ele>
        <time>2013-06-05T09:27:49Z</time>
      </trkpt>
      <trkpt lat="42.74673" lon="0.13872">
        <ele>2813</ele>
        <time>2013-06-05T09:27:58Z</time>
      </trkpt>
      <trkpt lat="42.74675" lon="0.13871">
        <ele>2814</ele>
        <time>2013-06-05T09:28:06Z</time>
      </trkpt>
      <trkpt lat="42.7468" lon="0.13873">
        <ele>2815</ele>
        <time>2013-06-05T09:28:17Z</time>
      </trkpt>
      <trkpt lat="42.74679" lon="0.13876">
        <ele>2817</ele>
        <time>2013-06-05T09:28:28Z</time>
      </trkpt>
      <trkpt lat="42.74677" lon="0.13876">
        <ele>2818</ele>
        <time>2013-06-05T09:28:43Z</time>
      </trkpt>
      <trkpt lat="42.74678" lon="0.13878">
        <ele>2818</ele>
        <time>2013-06-05T09:28:59Z</time>
      </trkpt>
      <trkpt lat="42.74679" lon="0.13879">
        <ele>2818</ele>
        <time>2013-06-05T09:29:15Z</time>
      </trkpt>
      <trkpt lat="42.74681" lon="0.1388">
        <ele>2820</ele>
        <time>2013-06-05T09:29:24Z</time>
      </trkpt>
      <trkpt lat="42.74684" lon="0.13882">
        <ele>2821</ele>
        <time>2013-06-05T09:29:32Z</time>
      </trkpt>
      <trkpt lat="42.74688" lon="0.13883">
        <ele>2823</ele>
        <time>2013-06-05T09:29:43Z</time>
      </trkpt>
      <trkpt lat="42.74693" lon="0.13884">
        <ele>2825</ele>
        <time>2013-06-05T09:29:54Z</time>
      </trkpt>
      <trkpt lat="42.74693" lon="0.13885">
        <ele>2825</ele>
        <time>2013-06-05T09:30:05Z</time>
      </trkpt>
      <trkpt lat="42.74702" lon="0.13887">
        <ele>2826</ele>
        <time>2013-06-05T09:30:16Z</time>
      </trkpt>
      <trkpt lat="42.74707" lon="0.13891">
        <ele>2828</ele>
        <time>2013-06-05T09:30:26Z</time>
      </trkpt>
      <trkpt lat="42.74708" lon="0.13894">
        <ele>2829</ele>
        <time>2013-06-05T09:30:35Z</time>
      </trkpt>
      <trkpt lat="42.74708" lon="0.13895">
        <ele>2831</ele>
        <time>2013-06-05T09:30:45Z</time>
      </trkpt>
      <trkpt lat="42.74708" lon="0.13896">
        <ele>2833</ele>
        <time>2013-06-05T09:30:54Z</time>
      </trkpt>
      <trkpt lat="42.74706" lon="0.13899">
        <ele>2835</ele>
        <time>2013-06-05T09:31:04Z</time>
      </trkpt>
      <trkpt lat="42.74708" lon="0.13901">
        <ele>2836</ele>
        <time>2013-06-05T09:31:12Z</time>
      </trkpt>
      <trkpt lat="42.74704" lon="0.13899">
        <ele>2836</ele>
        <time>2013-06-05T09:31:22Z</time>
      </trkpt>
      <trkpt lat="42.74704" lon="0.13902">
        <ele>2838</ele>
        <time>2013-06-05T09:31:33Z</time>
      </trkpt>
      <trkpt lat="42.74705" lon="0.13904">
        <ele>2839</ele>
        <time>2013-06-05T09:31:40Z</time>
      </trkpt>
      <trkpt lat="42.74703" lon="0.13904">
        <ele>2839</ele>
        <time>2013-06-05T09:31:50Z</time>
      </trkpt>
      <trkpt lat="42.74703" lon="0.13904">
        <ele>2840</ele>
        <time>2013-06-05T09:32:00Z</time>
      </trkpt>
      <trkpt lat="42.74703" lon="0.13906">
        <ele>2841</ele>
        <time>2013-06-05T09:32:07Z</time>
      </trkpt>
      <trkpt lat="42.74704" lon="0.13909">
        <ele>2842</ele>
        <time>2013-06-05T09:32:18Z</time>
      </trkpt>
      <trkpt lat="42.74708" lon="0.13911">
        <ele>2843</ele>
        <time>2013-06-05T09:32:28Z</time>
      </trkpt>
      <trkpt lat="42.74709" lon="0.13909">
        <ele>2844</ele>
        <time>2013-06-05T09:32:41Z</time>
      </trkpt>
      <trkpt lat="42.74712" lon="0.1391">
        <ele>2844</ele>
        <time>2013-06-05T09:32:53Z</time>
      </trkpt>
      <trkpt lat="42.7471" lon="0.13911">
        <ele>2845</ele>
        <time>2013-06-05T09:33:07Z</time>
      </trkpt>
      <trkpt lat="42.7471" lon="0.13913">
        <ele>2846</ele>
        <time>2013-06-05T09:33:15Z</time>
      </trkpt>
      <trkpt lat="42.7471" lon="0.13914">
        <ele>2846</ele>
        <time>2013-06-05T09:33:24Z</time>
      </trkpt>
      <trkpt lat="42.74713" lon="0.13914">
        <ele>2848</ele>
        <time>2013-06-05T09:33:33Z</time>
      </trkpt>
      <trkpt lat="42.74713" lon="0.13916">
        <ele>2848</ele>
        <time>2013-06-05T09:33:39Z</time>
      </trkpt>
      <trkpt lat="42.74712" lon="0.13917">
        <ele>2849</ele>
        <time>2013-06-05T09:33:45Z</time>
      </trkpt>
      <trkpt lat="42.74714" lon="0.13917">
        <ele>2850</ele>
        <time>2013-06-05T09:33:53Z</time>
      </trkpt>
      <trkpt lat="42.74713" lon="0.13921">
        <ele>2850</ele>
        <time>2013-06-05T09:34:01Z</time>
      </trkpt>
      <trkpt lat="42.74712" lon="0.13923">
        <ele>2851</ele>
        <time>2013-06-05T09:34:10Z</time>
      </trkpt>
      <trkpt lat="42.7471" lon="0.13924">
        <ele>2852</ele>
        <time>2013-06-05T09:34:18Z</time>
      </trkpt>
      <trkpt lat="42.74713" lon="0.13925">
        <ele>2853</ele>
        <time>2013-06-05T09:34:26Z</time>
      </trkpt>
      <trkpt lat="42.74715" lon="0.13925">
        <ele>2854</ele>
        <time>2013-06-05T09:34:33Z</time>
      </trkpt>
      <trkpt lat="42.74716" lon="0.13927">
        <ele>2855</ele>
        <time>2013-06-05T09:34:41Z</time>
      </trkpt>
      <trkpt lat="42.74718" lon="0.13928">
        <ele>2855</ele>
        <time>2013-06-05T09:34:50Z</time>
      </trkpt>
      <trkpt lat="42.74718" lon="0.13928">
        <ele>2856</ele>
        <time>2013-06-05T09:34:58Z</time>
      </trkpt>
      <trkpt lat="42.74719" lon="0.1393">
        <ele>2857</ele>
        <time>2013-06-05T09:35:08Z</time>
      </trkpt>
      <trkpt lat="42.74717" lon="0.13931">
        <ele>2856</ele>
        <time>2013-06-05T09:35:20Z</time>
      </trkpt>
      <trkpt lat="42.74717" lon="0.13933">
        <ele>2857</ele>
        <time>2013-06-05T09:35:34Z</time>
      </trkpt>
      <trkpt lat="42.74718" lon="0.13933">
        <ele>2857</ele>
        <time>2013-06-05T09:35:48Z</time>
      </trkpt>
      <trkpt lat="42.74719" lon="0.13933">
        <ele>2857</ele>
        <time>2013-06-05T09:36:06Z</time>
      </trkpt>
      <trkpt lat="42.7472" lon="0.13931">
        <ele>2857</ele>
        <time>2013-06-05T09:36:20Z</time>
      </trkpt>
      <trkpt lat="42.74721" lon="0.1393">
        <ele>2857</ele>
        <time>2013-06-05T09:36:35Z</time>
      </trkpt>
      <trkpt lat="42.74718" lon="0.13933">
        <ele>2857</ele>
        <time>2013-06-05T09:36:55Z</time>
      </trkpt>
      <trkpt lat="42.74715" lon="0.13931">
        <ele>2856</ele>
        <time>2013-06-05T09:37:11Z</time>
      </trkpt>
      <trkpt lat="42.74716" lon="0.13933">
        <ele>2858</ele>
        <time>2013-06-05T09:37:24Z</time>
      </trkpt>
      <trkpt lat="42.74716" lon="0.13938">
        <ele>2856</ele>
        <time>2013-06-05T09:37:35Z</time>
      </trkpt>
      <trkpt lat="42.74716" lon="0.13942">
        <ele>2856</ele>
        <time>2013-06-05T09:37:43Z</time>
      </trkpt>
      <trkpt lat="42.74716" lon="0.13943">
        <ele>2855</ele>
        <time>2013-06-05T09:37:56Z</time>
      </trkpt>
      <trkpt lat="42.74716" lon="0.13941">
        <ele>2856</ele>
        <time>2013-06-05T09:38:13Z</time>
      </trkpt>
      <trkpt lat="42.74716" lon="0.13947">
        <ele>2855</ele>
        <time>2013-06-05T09:38:22Z</time>
      </trkpt>
      <trkpt lat="42.74717" lon="0.13944">
        <ele>2854</ele>
        <time>2013-06-05T09:38:30Z</time>
      </trkpt>
      <trkpt lat="42.74716" lon="0.13938">
        <ele>2854</ele>
        <time>2013-06-05T09:38:42Z</time>
      </trkpt>
      <trkpt lat="42.74715" lon="0.1394">
        <ele>2854</ele>
        <time>2013-06-05T09:38:57Z</time>
      </trkpt>
      <trkpt lat="42.74715" lon="0.13941">
        <ele>2854</ele>
        <time>2013-06-05T09:39:15Z</time>
      </trkpt>
      <trkpt lat="42.74716" lon="0.13942">
        <ele>2854</ele>
        <time>2013-06-05T09:39:30Z</time>
      </trkpt>
      <trkpt lat="42.74716" lon="0.13945">
        <ele>2855</ele>
        <time>2013-06-05T09:39:48Z</time>
      </trkpt>
      <trkpt lat="42.74716" lon="0.13946">
        <ele>2855</ele>
        <time>2013-06-05T09:40:05Z</time>
      </trkpt>
      <trkpt lat="42.74715" lon="0.13947">
        <ele>2855</ele>
        <time>2013-06-05T09:40:21Z</time>
      </trkpt>
      <trkpt lat="42.74715" lon="0.13944">
        <ele>2855</ele>
        <time>2013-06-05T09:40:34Z</time>
      </trkpt>
      <trkpt lat="42.74715" lon="0.13943">
        <ele>2855</ele>
        <time>2013-06-05T09:40:52Z</time>
      </trkpt>
      <trkpt lat="42.74714" lon="0.13939">
        <ele>2855</ele>
        <time>2013-06-05T09:41:10Z</time>
      </trkpt>
      <trkpt lat="42.74716" lon="0.13942">
        <ele>2855</ele>
        <time>2013-06-05T09:41:27Z</time>
      </trkpt>
      <trkpt lat="42.74714" lon="0.13942">
        <ele>2855</ele>
        <time>2013-06-05T09:41:43Z</time>
      </trkpt>
      <trkpt lat="42.74715" lon="0.13943">
        <ele>2855</ele>
        <time>2013-06-05T09:42:00Z</time>
      </trkpt>
      <trkpt lat="42.74716" lon="0.13945">
        <ele>2855</ele>
        <time>2013-06-05T09:42:14Z</time>
      </trkpt>
      <trkpt lat="42.74719" lon="0.13946">
        <ele>2855</ele>
        <time>2013-06-05T09:42:35Z</time>
      </trkpt>
      <trkpt lat="42.7472" lon="0.13947">
        <ele>2856</ele>
        <time>2013-06-05T09:42:50Z</time>
      </trkpt>
      <trkpt lat="42.74719" lon="0.13946">
        <ele>2855</ele>
        <time>2013-06-05T09:43:10Z</time>
      </trkpt>
      <trkpt lat="42.74717" lon="0.13944">
        <ele>2855</ele>
        <time>2013-06-05T09:43:27Z</time>
      </trkpt>
      <trkpt lat="42.74716" lon="0.13941">
        <ele>2856</ele>
        <time>2013-06-05T09:43:42Z</time>
      </trkpt>
      <trkpt lat="42.74716" lon="0.13939">
        <ele>2856</ele>
        <time>2013-06-05T09:43:55Z</time>
      </trkpt>
      <trkpt lat="42.74715" lon="0.13937">
        <ele>2856</ele>
        <time>2013-06-05T09:44:11Z</time>
      </trkpt>
      <trkpt lat="42.74716" lon="0.13938">
        <ele>2856</ele>
        <time>2013-06-05T09:44:28Z</time>
      </trkpt>
      <trkpt lat="42.74716" lon="0.13938">
        <ele>2856</ele>
        <time>2013-06-05T09:44:43Z</time>
      </trkpt>
      <trkpt lat="42.74715" lon="0.13939">
        <ele>2857</ele>
        <time>2013-06-05T09:45:05Z</time>
      </trkpt>
      <trkpt lat="42.74717" lon="0.13933">
        <ele>2857</ele>
        <time>2013-06-05T09:45:16Z</time>
      </trkpt>
      <trkpt lat="42.74719" lon="0.13933">
        <ele>2857</ele>
        <time>2013-06-05T09:45:32Z</time>
      </trkpt>
      <trkpt lat="42.74719" lon="0.13934">
        <ele>2857</ele>
        <time>2013-06-05T09:45:50Z</time>
      </trkpt>
      <trkpt lat="42.74716" lon="0.13938">
        <ele>2857</ele>
        <time>2013-06-05T09:46:05Z</time>
      </trkpt>
      <trkpt lat="42.74718" lon="0.13938">
        <ele>2856</ele>
        <time>2013-06-05T09:46:23Z</time>
      </trkpt>
      <trkpt lat="42.74717" lon="0.13936">
        <ele>2857</ele>
        <time>2013-06-05T09:46:39Z</time>
      </trkpt>
      <trkpt lat="42.74718" lon="0.13934">
        <ele>2858</ele>
        <time>2013-06-05T09:46:47Z</time>
      </trkpt>
      <trkpt lat="42.7472" lon="0.13933">
        <ele>2858</ele>
        <time>2013-06-05T09:46:55Z</time>
      </trkpt>
      <trkpt lat="42.7472" lon="0.13933">
        <ele>2858</ele>
        <time>2013-06-05T09:47:04Z</time>
      </trkpt>
      <trkpt lat="42.74718" lon="0.13934">
        <ele>2858</ele>
        <time>2013-06-05T09:47:26Z</time>
      </trkpt>
      <trkpt lat="42.74717" lon="0.13932">
        <ele>2858</ele>
        <time>2013-06-05T09:47:33Z</time>
      </trkpt>
      <trkpt lat="42.74715" lon="0.1393">
        <ele>2859</ele>
        <time>2013-06-05T09:47:40Z</time>
      </trkpt>
      <trkpt lat="42.74714" lon="0.13931">
        <ele>2858</ele>
        <time>2013-06-05T09:47:48Z</time>
      </trkpt>
      <trkpt lat="42.74713" lon="0.13932">
        <ele>2857</ele>
        <time>2013-06-05T09:48:03Z</time>
      </trkpt>
      <trkpt lat="42.74714" lon="0.13933">
        <ele>2857</ele>
        <time>2013-06-05T09:48:23Z</time>
      </trkpt>
      <trkpt lat="42.74715" lon="0.13934">
        <ele>2857</ele>
        <time>2013-06-05T09:48:43Z</time>
      </trkpt>
      <trkpt lat="42.7471" lon="0.13935">
        <ele>2856</ele>
        <time>2013-06-05T09:48:53Z</time>
      </trkpt>
      <trkpt lat="42.74711" lon="0.13933">
        <ele>2855</ele>
        <time>2013-06-05T09:49:05Z</time>
      </trkpt>
      <trkpt lat="42.74715" lon="0.13931">
        <ele>2854</ele>
        <time>2013-06-05T09:49:17Z</time>
      </trkpt>
      <trkpt lat="42.74718" lon="0.1393">
        <ele>2854</ele>
        <time>2013-06-05T09:49:32Z</time>
      </trkpt>
      <trkpt lat="42.74716" lon="0.13926">
        <ele>2854</ele>
        <time>2013-06-05T09:49:45Z</time>
      </trkpt>
      <trkpt lat="42.74711" lon="0.13927">
        <ele>2853</ele>
        <time>2013-06-05T09:49:55Z</time>
      </trkpt>
      <trkpt lat="42.74714" lon="0.1393">
        <ele>2851</ele>
        <time>2013-06-05T09:50:03Z</time>
      </trkpt>
      <trkpt lat="42.74718" lon="0.13928">
        <ele>2851</ele>
        <time>2013-06-05T09:50:13Z</time>
      </trkpt>
      <trkpt lat="42.74718" lon="0.13923">
        <ele>2850</ele>
        <time>2013-06-05T09:50:21Z</time>
      </trkpt>
      <trkpt lat="42.74717" lon="0.1392">
        <ele>2848</ele>
        <time>2013-06-05T09:50:30Z</time>
      </trkpt>
      <trkpt lat="42.74719" lon="0.13917">
        <ele>2847</ele>
        <time>2013-06-05T09:50:39Z</time>
      </trkpt>
    </trkseg>
  </trk>
</gpx>